<?xml version="1.0" encoding="UTF-8" standalone="no" ?>
<gpx xmlns="http://www.topografix.com/GPX/1/1" xmlns:xsi="http://www.w3.org/2001/XMLSchema-instance" xsi:schemaLocation="http://www.topografix.com/GPX/1/1 http://www.topografix.com/GPX/1/1/gpx.xsd" version="1.1" creator="VisuGPX - https://www.visugpx.com">
  <metadata>
    <name>3 jours en Beaufortain 2018</name>
    <desc><![CDATA[3 jours en Beaufortain 2018 depuis le refuge de La Balme]]></desc>
  </metadata>
  <trk>
    <name><![CDATA[PIERRA MENTA TOUR]]></name>
    <trkseg>
      <trkpt lat="45.63208" lon="6.66908">
        <ele>2018.91</ele>
        <time>2018-02-08T07:51:24Z</time>
      </trkpt>
      <trkpt lat="45.6321" lon="6.66911">
        <ele>2018.91</ele>
        <time>2018-02-08T07:51:37Z</time>
      </trkpt>
      <trkpt lat="45.63208" lon="6.66911">
        <ele>2019.87</ele>
        <time>2018-02-08T07:52:03Z</time>
      </trkpt>
      <trkpt lat="45.63208" lon="6.66912">
        <ele>2019.39</ele>
        <time>2018-02-08T07:52:28Z</time>
      </trkpt>
      <trkpt lat="45.63208" lon="6.66912">
        <ele>2018.91</ele>
        <time>2018-02-08T07:52:51Z</time>
      </trkpt>
      <trkpt lat="45.63207" lon="6.66911">
        <ele>2019.39</ele>
        <time>2018-02-08T07:53:12Z</time>
      </trkpt>
      <trkpt lat="45.63209" lon="6.66914">
        <ele>2019.87</ele>
        <time>2018-02-08T07:53:34Z</time>
      </trkpt>
      <trkpt lat="45.63208" lon="6.6691">
        <ele>2019.87</ele>
        <time>2018-02-08T07:54:03Z</time>
      </trkpt>
      <trkpt lat="45.63208" lon="6.669">
        <ele>2020.35</ele>
        <time>2018-02-08T07:54:15Z</time>
      </trkpt>
      <trkpt lat="45.63206" lon="6.66886">
        <ele>2021.79</ele>
        <time>2018-02-08T07:54:30Z</time>
      </trkpt>
      <trkpt lat="45.63205" lon="6.66872">
        <ele>2022.27</ele>
        <time>2018-02-08T07:54:45Z</time>
      </trkpt>
      <trkpt lat="45.63203" lon="6.66864">
        <ele>2023.23</ele>
        <time>2018-02-08T07:54:56Z</time>
      </trkpt>
      <trkpt lat="45.63202" lon="6.66851">
        <ele>2023.71</ele>
        <time>2018-02-08T07:55:09Z</time>
      </trkpt>
      <trkpt lat="45.63202" lon="6.66839">
        <ele>2025.15</ele>
        <time>2018-02-08T07:55:22Z</time>
      </trkpt>
      <trkpt lat="45.63201" lon="6.66823">
        <ele>2026.12</ele>
        <time>2018-02-08T07:55:38Z</time>
      </trkpt>
      <trkpt lat="45.632" lon="6.66808">
        <ele>2027.56</ele>
        <time>2018-02-08T07:55:52Z</time>
      </trkpt>
      <trkpt lat="45.63199" lon="6.66797">
        <ele>2027.56</ele>
        <time>2018-02-08T07:56:05Z</time>
      </trkpt>
      <trkpt lat="45.63198" lon="6.66781">
        <ele>2029</ele>
        <time>2018-02-08T07:56:19Z</time>
      </trkpt>
      <trkpt lat="45.63198" lon="6.66774">
        <ele>2029.48</ele>
        <time>2018-02-08T07:56:25Z</time>
      </trkpt>
      <trkpt lat="45.63197" lon="6.66755">
        <ele>2029.96</ele>
        <time>2018-02-08T07:56:42Z</time>
      </trkpt>
      <trkpt lat="45.63197" lon="6.66742">
        <ele>2031.4</ele>
        <time>2018-02-08T07:56:57Z</time>
      </trkpt>
      <trkpt lat="45.63195" lon="6.66727">
        <ele>2032.84</ele>
        <time>2018-02-08T07:57:13Z</time>
      </trkpt>
      <trkpt lat="45.63194" lon="6.66716">
        <ele>2034.77</ele>
        <time>2018-02-08T07:57:27Z</time>
      </trkpt>
      <trkpt lat="45.63189" lon="6.66707">
        <ele>2037.17</ele>
        <time>2018-02-08T07:57:43Z</time>
      </trkpt>
      <trkpt lat="45.63181" lon="6.66703">
        <ele>2039.09</ele>
        <time>2018-02-08T07:57:59Z</time>
      </trkpt>
      <trkpt lat="45.63172" lon="6.66703">
        <ele>2041.5</ele>
        <time>2018-02-08T07:58:11Z</time>
      </trkpt>
      <trkpt lat="45.63162" lon="6.66703">
        <ele>2042.94</ele>
        <time>2018-02-08T07:58:27Z</time>
      </trkpt>
      <trkpt lat="45.63153" lon="6.66699">
        <ele>2043.42</ele>
        <time>2018-02-08T07:58:41Z</time>
      </trkpt>
      <trkpt lat="45.63145" lon="6.66695">
        <ele>2045.34</ele>
        <time>2018-02-08T07:58:54Z</time>
      </trkpt>
      <trkpt lat="45.63138" lon="6.66695">
        <ele>2047.26</ele>
        <time>2018-02-08T07:59:10Z</time>
      </trkpt>
      <trkpt lat="45.63131" lon="6.66692">
        <ele>2048.23</ele>
        <time>2018-02-08T07:59:24Z</time>
      </trkpt>
      <trkpt lat="45.63124" lon="6.66685">
        <ele>2048.23</ele>
        <time>2018-02-08T07:59:38Z</time>
      </trkpt>
      <trkpt lat="45.63119" lon="6.66679">
        <ele>2050.15</ele>
        <time>2018-02-08T07:59:54Z</time>
      </trkpt>
      <trkpt lat="45.63117" lon="6.66676">
        <ele>2051.11</ele>
        <time>2018-02-08T08:00:13Z</time>
      </trkpt>
      <trkpt lat="45.63108" lon="6.6668">
        <ele>2053.51</ele>
        <time>2018-02-08T08:00:28Z</time>
      </trkpt>
      <trkpt lat="45.63103" lon="6.66693">
        <ele>2054.96</ele>
        <time>2018-02-08T08:00:43Z</time>
      </trkpt>
      <trkpt lat="45.63099" lon="6.66704">
        <ele>2055.92</ele>
        <time>2018-02-08T08:00:57Z</time>
      </trkpt>
      <trkpt lat="45.63095" lon="6.66717">
        <ele>2055.44</ele>
        <time>2018-02-08T08:01:11Z</time>
      </trkpt>
      <trkpt lat="45.63093" lon="6.6673">
        <ele>2054.47</ele>
        <time>2018-02-08T08:01:24Z</time>
      </trkpt>
      <trkpt lat="45.63091" lon="6.66744">
        <ele>2053.51</ele>
        <time>2018-02-08T08:01:38Z</time>
      </trkpt>
      <trkpt lat="45.63087" lon="6.66756">
        <ele>2053.51</ele>
        <time>2018-02-08T08:01:52Z</time>
      </trkpt>
      <trkpt lat="45.63081" lon="6.6677">
        <ele>2054.96</ele>
        <time>2018-02-08T08:02:12Z</time>
      </trkpt>
      <trkpt lat="45.63075" lon="6.66784">
        <ele>2057.36</ele>
        <time>2018-02-08T08:02:29Z</time>
      </trkpt>
      <trkpt lat="45.6307" lon="6.66794">
        <ele>2058.8</ele>
        <time>2018-02-08T08:02:43Z</time>
      </trkpt>
      <trkpt lat="45.63067" lon="6.66806">
        <ele>2060.72</ele>
        <time>2018-02-08T08:02:57Z</time>
      </trkpt>
      <trkpt lat="45.63063" lon="6.6682">
        <ele>2061.68</ele>
        <time>2018-02-08T08:03:13Z</time>
      </trkpt>
      <trkpt lat="45.6306" lon="6.66833">
        <ele>2063.13</ele>
        <time>2018-02-08T08:03:27Z</time>
      </trkpt>
      <trkpt lat="45.63057" lon="6.66846">
        <ele>2064.57</ele>
        <time>2018-02-08T08:03:42Z</time>
      </trkpt>
      <trkpt lat="45.63054" lon="6.66861">
        <ele>2065.05</ele>
        <time>2018-02-08T08:05:17Z</time>
      </trkpt>
      <trkpt lat="45.63054" lon="6.66859">
        <ele>2065.05</ele>
        <time>2018-02-08T08:05:49Z</time>
      </trkpt>
      <trkpt lat="45.63054" lon="6.66856">
        <ele>2065.05</ele>
        <time>2018-02-08T08:06:09Z</time>
      </trkpt>
      <trkpt lat="45.63056" lon="6.66847">
        <ele>2065.53</ele>
        <time>2018-02-08T08:06:21Z</time>
      </trkpt>
      <trkpt lat="45.63061" lon="6.66834">
        <ele>2065.05</ele>
        <time>2018-02-08T08:06:34Z</time>
      </trkpt>
      <trkpt lat="45.63064" lon="6.66826">
        <ele>2062.65</ele>
        <time>2018-02-08T08:06:40Z</time>
      </trkpt>
      <trkpt lat="45.63066" lon="6.66817">
        <ele>2061.68</ele>
        <time>2018-02-08T08:06:53Z</time>
      </trkpt>
      <trkpt lat="45.63069" lon="6.66805">
        <ele>2060.72</ele>
        <time>2018-02-08T08:07:05Z</time>
      </trkpt>
      <trkpt lat="45.63075" lon="6.66787">
        <ele>2057.84</ele>
        <time>2018-02-08T08:07:19Z</time>
      </trkpt>
      <trkpt lat="45.63074" lon="6.66785">
        <ele>2056.88</ele>
        <time>2018-02-08T08:07:31Z</time>
      </trkpt>
      <trkpt lat="45.63079" lon="6.66775">
        <ele>2056.4</ele>
        <time>2018-02-08T08:07:44Z</time>
      </trkpt>
      <trkpt lat="45.63084" lon="6.66762">
        <ele>2055.44</ele>
        <time>2018-02-08T08:07:59Z</time>
      </trkpt>
      <trkpt lat="45.63092" lon="6.66746">
        <ele>2053.03</ele>
        <time>2018-02-08T08:08:15Z</time>
      </trkpt>
      <trkpt lat="45.63094" lon="6.66731">
        <ele>2054.47</ele>
        <time>2018-02-08T08:08:31Z</time>
      </trkpt>
      <trkpt lat="45.63094" lon="6.66723">
        <ele>2054.96</ele>
        <time>2018-02-08T08:08:42Z</time>
      </trkpt>
      <trkpt lat="45.63098" lon="6.66709">
        <ele>2055.92</ele>
        <time>2018-02-08T08:08:56Z</time>
      </trkpt>
      <trkpt lat="45.63099" lon="6.66702">
        <ele>2056.88</ele>
        <time>2018-02-08T08:09:09Z</time>
      </trkpt>
      <trkpt lat="45.631" lon="6.667">
        <ele>2056.88</ele>
        <time>2018-02-08T08:09:25Z</time>
      </trkpt>
      <trkpt lat="45.63102" lon="6.6669">
        <ele>2056.88</ele>
        <time>2018-02-08T08:09:38Z</time>
      </trkpt>
      <trkpt lat="45.63104" lon="6.66684">
        <ele>2055.92</ele>
        <time>2018-02-08T08:09:44Z</time>
      </trkpt>
      <trkpt lat="45.63114" lon="6.66667">
        <ele>2053.03</ele>
        <time>2018-02-08T08:09:54Z</time>
      </trkpt>
      <trkpt lat="45.63123" lon="6.66665">
        <ele>2055.44</ele>
        <time>2018-02-08T08:10:07Z</time>
      </trkpt>
      <trkpt lat="45.63129" lon="6.66658">
        <ele>2057.36</ele>
        <time>2018-02-08T08:10:21Z</time>
      </trkpt>
      <trkpt lat="45.6313" lon="6.66655">
        <ele>2057.36</ele>
        <time>2018-02-08T08:10:34Z</time>
      </trkpt>
      <trkpt lat="45.63129" lon="6.66657">
        <ele>2057.84</ele>
        <time>2018-02-08T08:10:57Z</time>
      </trkpt>
      <trkpt lat="45.63133" lon="6.66645">
        <ele>2058.8</ele>
        <time>2018-02-08T08:11:10Z</time>
      </trkpt>
      <trkpt lat="45.63134" lon="6.66631">
        <ele>2060.72</ele>
        <time>2018-02-08T08:11:26Z</time>
      </trkpt>
      <trkpt lat="45.63135" lon="6.66618">
        <ele>2061.68</ele>
        <time>2018-02-08T08:11:39Z</time>
      </trkpt>
      <trkpt lat="45.63136" lon="6.66603">
        <ele>2064.09</ele>
        <time>2018-02-08T08:11:56Z</time>
      </trkpt>
      <trkpt lat="45.63136" lon="6.66587">
        <ele>2066.01</ele>
        <time>2018-02-08T08:12:15Z</time>
      </trkpt>
      <trkpt lat="45.63136" lon="6.66569">
        <ele>2067.45</ele>
        <time>2018-02-08T08:12:32Z</time>
      </trkpt>
      <trkpt lat="45.63135" lon="6.66558">
        <ele>2067.93</ele>
        <time>2018-02-08T08:12:44Z</time>
      </trkpt>
      <trkpt lat="45.63137" lon="6.66547">
        <ele>2068.89</ele>
        <time>2018-02-08T08:12:58Z</time>
      </trkpt>
      <trkpt lat="45.6314" lon="6.66536">
        <ele>2070.82</ele>
        <time>2018-02-08T08:13:12Z</time>
      </trkpt>
      <trkpt lat="45.63143" lon="6.66521">
        <ele>2072.74</ele>
        <time>2018-02-08T08:13:29Z</time>
      </trkpt>
      <trkpt lat="45.63143" lon="6.66521">
        <ele>2072.26</ele>
        <time>2018-02-08T08:13:43Z</time>
      </trkpt>
      <trkpt lat="45.63144" lon="6.66517">
        <ele>2072.74</ele>
        <time>2018-02-08T08:13:57Z</time>
      </trkpt>
      <trkpt lat="45.63142" lon="6.6652">
        <ele>2073.22</ele>
        <time>2018-02-08T08:14:14Z</time>
      </trkpt>
      <trkpt lat="45.63143" lon="6.66514">
        <ele>2073.7</ele>
        <time>2018-02-08T08:14:23Z</time>
      </trkpt>
      <trkpt lat="45.63143" lon="6.66495">
        <ele>2074.66</ele>
        <time>2018-02-08T08:14:38Z</time>
      </trkpt>
      <trkpt lat="45.63145" lon="6.66481">
        <ele>2076.1</ele>
        <time>2018-02-08T08:14:53Z</time>
      </trkpt>
      <trkpt lat="45.63149" lon="6.66467">
        <ele>2077.07</ele>
        <time>2018-02-08T08:15:07Z</time>
      </trkpt>
      <trkpt lat="45.63155" lon="6.6645">
        <ele>2078.03</ele>
        <time>2018-02-08T08:15:22Z</time>
      </trkpt>
      <trkpt lat="45.63161" lon="6.66437">
        <ele>2079.95</ele>
        <time>2018-02-08T08:15:38Z</time>
      </trkpt>
      <trkpt lat="45.63161" lon="6.66428">
        <ele>2081.39</ele>
        <time>2018-02-08T08:15:53Z</time>
      </trkpt>
      <trkpt lat="45.6316" lon="6.66414">
        <ele>2083.31</ele>
        <time>2018-02-08T08:16:09Z</time>
      </trkpt>
      <trkpt lat="45.63167" lon="6.66396">
        <ele>2084.28</ele>
        <time>2018-02-08T08:16:28Z</time>
      </trkpt>
      <trkpt lat="45.63171" lon="6.66385">
        <ele>2086.68</ele>
        <time>2018-02-08T08:16:44Z</time>
      </trkpt>
      <trkpt lat="45.63179" lon="6.66375">
        <ele>2088.6</ele>
        <time>2018-02-08T08:17:00Z</time>
      </trkpt>
      <trkpt lat="45.63183" lon="6.66363">
        <ele>2090.52</ele>
        <time>2018-02-08T08:17:14Z</time>
      </trkpt>
      <trkpt lat="45.63185" lon="6.66358">
        <ele>2092.45</ele>
        <time>2018-02-08T08:17:31Z</time>
      </trkpt>
      <trkpt lat="45.63192" lon="6.66345">
        <ele>2093.89</ele>
        <time>2018-02-08T08:17:47Z</time>
      </trkpt>
      <trkpt lat="45.63194" lon="6.66338">
        <ele>2095.33</ele>
        <time>2018-02-08T08:18:02Z</time>
      </trkpt>
      <trkpt lat="45.63199" lon="6.66331">
        <ele>2097.25</ele>
        <time>2018-02-08T08:18:17Z</time>
      </trkpt>
      <trkpt lat="45.63202" lon="6.66323">
        <ele>2099.18</ele>
        <time>2018-02-08T08:18:30Z</time>
      </trkpt>
      <trkpt lat="45.63207" lon="6.66314">
        <ele>2100.14</ele>
        <time>2018-02-08T08:18:44Z</time>
      </trkpt>
      <trkpt lat="45.63211" lon="6.66303">
        <ele>2102.06</ele>
        <time>2018-02-08T08:18:59Z</time>
      </trkpt>
      <trkpt lat="45.63213" lon="6.66297">
        <ele>2103.98</ele>
        <time>2018-02-08T08:19:15Z</time>
      </trkpt>
      <trkpt lat="45.63216" lon="6.66288">
        <ele>2105.42</ele>
        <time>2018-02-08T08:19:28Z</time>
      </trkpt>
      <trkpt lat="45.63221" lon="6.66279">
        <ele>2106.87</ele>
        <time>2018-02-08T08:19:41Z</time>
      </trkpt>
      <trkpt lat="45.63226" lon="6.66267">
        <ele>2108.79</ele>
        <time>2018-02-08T08:19:55Z</time>
      </trkpt>
      <trkpt lat="45.63229" lon="6.66257">
        <ele>2110.23</ele>
        <time>2018-02-08T08:20:09Z</time>
      </trkpt>
      <trkpt lat="45.63234" lon="6.66249">
        <ele>2111.67</ele>
        <time>2018-02-08T08:20:25Z</time>
      </trkpt>
      <trkpt lat="45.63237" lon="6.66235">
        <ele>2113.6</ele>
        <time>2018-02-08T08:20:41Z</time>
      </trkpt>
      <trkpt lat="45.63241" lon="6.66224">
        <ele>2115.04</ele>
        <time>2018-02-08T08:20:58Z</time>
      </trkpt>
      <trkpt lat="45.63244" lon="6.66214">
        <ele>2116.96</ele>
        <time>2018-02-08T08:21:13Z</time>
      </trkpt>
      <trkpt lat="45.63248" lon="6.66206">
        <ele>2118.4</ele>
        <time>2018-02-08T08:21:25Z</time>
      </trkpt>
      <trkpt lat="45.63253" lon="6.66193">
        <ele>2120.32</ele>
        <time>2018-02-08T08:21:43Z</time>
      </trkpt>
      <trkpt lat="45.63255" lon="6.6618">
        <ele>2122.25</ele>
        <time>2018-02-08T08:21:57Z</time>
      </trkpt>
      <trkpt lat="45.63258" lon="6.66172">
        <ele>2124.17</ele>
        <time>2018-02-08T08:22:11Z</time>
      </trkpt>
      <trkpt lat="45.63259" lon="6.6616">
        <ele>2126.57</ele>
        <time>2018-02-08T08:22:28Z</time>
      </trkpt>
      <trkpt lat="45.6326" lon="6.6615">
        <ele>2128.02</ele>
        <time>2018-02-08T08:22:42Z</time>
      </trkpt>
      <trkpt lat="45.6326" lon="6.66136">
        <ele>2129.94</ele>
        <time>2018-02-08T08:22:58Z</time>
      </trkpt>
      <trkpt lat="45.6326" lon="6.66118">
        <ele>2131.86</ele>
        <time>2018-02-08T08:23:17Z</time>
      </trkpt>
      <trkpt lat="45.63261" lon="6.66107">
        <ele>2133.3</ele>
        <time>2018-02-08T08:23:32Z</time>
      </trkpt>
      <trkpt lat="45.63261" lon="6.66095">
        <ele>2134.74</ele>
        <time>2018-02-08T08:23:46Z</time>
      </trkpt>
      <trkpt lat="45.63263" lon="6.66082">
        <ele>2136.67</ele>
        <time>2018-02-08T08:24:02Z</time>
      </trkpt>
      <trkpt lat="45.63263" lon="6.66072">
        <ele>2138.59</ele>
        <time>2018-02-08T08:24:17Z</time>
      </trkpt>
      <trkpt lat="45.63265" lon="6.66061">
        <ele>2140.03</ele>
        <time>2018-02-08T08:24:31Z</time>
      </trkpt>
      <trkpt lat="45.63268" lon="6.66048">
        <ele>2141.95</ele>
        <time>2018-02-08T08:24:47Z</time>
      </trkpt>
      <trkpt lat="45.63268" lon="6.66044">
        <ele>2142.92</ele>
        <time>2018-02-08T08:25:03Z</time>
      </trkpt>
      <trkpt lat="45.63266" lon="6.66043">
        <ele>2142.44</ele>
        <time>2018-02-08T08:25:20Z</time>
      </trkpt>
      <trkpt lat="45.63267" lon="6.6604">
        <ele>2141.95</ele>
        <time>2018-02-08T08:25:51Z</time>
      </trkpt>
      <trkpt lat="45.63271" lon="6.66041">
        <ele>2141.47</ele>
        <time>2018-02-08T08:26:25Z</time>
      </trkpt>
      <trkpt lat="45.63272" lon="6.6604">
        <ele>2141.47</ele>
        <time>2018-02-08T08:26:54Z</time>
      </trkpt>
      <trkpt lat="45.63267" lon="6.66042">
        <ele>2141.47</ele>
        <time>2018-02-08T08:27:24Z</time>
      </trkpt>
      <trkpt lat="45.63265" lon="6.66035">
        <ele>2140.99</ele>
        <time>2018-02-08T08:27:57Z</time>
      </trkpt>
      <trkpt lat="45.63267" lon="6.66043">
        <ele>2140.99</ele>
        <time>2018-02-08T08:28:25Z</time>
      </trkpt>
      <trkpt lat="45.63267" lon="6.6604">
        <ele>2141.47</ele>
        <time>2018-02-08T08:28:38Z</time>
      </trkpt>
      <trkpt lat="45.63266" lon="6.66037">
        <ele>2141.47</ele>
        <time>2018-02-08T08:28:56Z</time>
      </trkpt>
      <trkpt lat="45.63267" lon="6.66034">
        <ele>2142.44</ele>
        <time>2018-02-08T08:29:13Z</time>
      </trkpt>
      <trkpt lat="45.63268" lon="6.66031">
        <ele>2142.92</ele>
        <time>2018-02-08T08:29:26Z</time>
      </trkpt>
      <trkpt lat="45.63267" lon="6.66014">
        <ele>2144.36</ele>
        <time>2018-02-08T08:29:43Z</time>
      </trkpt>
      <trkpt lat="45.63267" lon="6.66007">
        <ele>2144.36</ele>
        <time>2018-02-08T08:29:50Z</time>
      </trkpt>
      <trkpt lat="45.63261" lon="6.65991">
        <ele>2144.84</ele>
        <time>2018-02-08T08:30:06Z</time>
      </trkpt>
      <trkpt lat="45.6326" lon="6.65978">
        <ele>2146.76</ele>
        <time>2018-02-08T08:30:25Z</time>
      </trkpt>
      <trkpt lat="45.63259" lon="6.65967">
        <ele>2147.72</ele>
        <time>2018-02-08T08:30:40Z</time>
      </trkpt>
      <trkpt lat="45.63258" lon="6.65954">
        <ele>2149.65</ele>
        <time>2018-02-08T08:30:58Z</time>
      </trkpt>
      <trkpt lat="45.63258" lon="6.65943">
        <ele>2151.09</ele>
        <time>2018-02-08T08:31:12Z</time>
      </trkpt>
      <trkpt lat="45.63256" lon="6.6593">
        <ele>2153.01</ele>
        <time>2018-02-08T08:31:29Z</time>
      </trkpt>
      <trkpt lat="45.63254" lon="6.65919">
        <ele>2154.45</ele>
        <time>2018-02-08T08:31:47Z</time>
      </trkpt>
      <trkpt lat="45.63251" lon="6.65909">
        <ele>2156.37</ele>
        <time>2018-02-08T08:31:59Z</time>
      </trkpt>
      <trkpt lat="45.6325" lon="6.65898">
        <ele>2157.82</ele>
        <time>2018-02-08T08:32:14Z</time>
      </trkpt>
      <trkpt lat="45.63249" lon="6.65889">
        <ele>2159.26</ele>
        <time>2018-02-08T08:32:28Z</time>
      </trkpt>
      <trkpt lat="45.63245" lon="6.65878">
        <ele>2161.18</ele>
        <time>2018-02-08T08:32:43Z</time>
      </trkpt>
      <trkpt lat="45.63241" lon="6.65861">
        <ele>2163.1</ele>
        <time>2018-02-08T08:33:04Z</time>
      </trkpt>
      <trkpt lat="45.63236" lon="6.65847">
        <ele>2165.51</ele>
        <time>2018-02-08T08:33:19Z</time>
      </trkpt>
      <trkpt lat="45.63232" lon="6.65837">
        <ele>2165.99</ele>
        <time>2018-02-08T08:33:35Z</time>
      </trkpt>
      <trkpt lat="45.63229" lon="6.65827">
        <ele>2167.91</ele>
        <time>2018-02-08T08:33:53Z</time>
      </trkpt>
      <trkpt lat="45.63225" lon="6.65813">
        <ele>2169.35</ele>
        <time>2018-02-08T08:34:07Z</time>
      </trkpt>
      <trkpt lat="45.6322" lon="6.65801">
        <ele>2170.79</ele>
        <time>2018-02-08T08:34:22Z</time>
      </trkpt>
      <trkpt lat="45.63216" lon="6.65792">
        <ele>2173.2</ele>
        <time>2018-02-08T08:34:37Z</time>
      </trkpt>
      <trkpt lat="45.63214" lon="6.65785">
        <ele>2175.12</ele>
        <time>2018-02-08T08:34:51Z</time>
      </trkpt>
      <trkpt lat="45.63209" lon="6.65775">
        <ele>2176.56</ele>
        <time>2018-02-08T08:35:05Z</time>
      </trkpt>
      <trkpt lat="45.63205" lon="6.65769">
        <ele>2177.52</ele>
        <time>2018-02-08T08:35:19Z</time>
      </trkpt>
      <trkpt lat="45.63201" lon="6.65764">
        <ele>2179.45</ele>
        <time>2018-02-08T08:35:31Z</time>
      </trkpt>
      <trkpt lat="45.63196" lon="6.65757">
        <ele>2181.37</ele>
        <time>2018-02-08T08:35:46Z</time>
      </trkpt>
      <trkpt lat="45.63192" lon="6.6575">
        <ele>2182.81</ele>
        <time>2018-02-08T08:35:59Z</time>
      </trkpt>
      <trkpt lat="45.63188" lon="6.65744">
        <ele>2183.77</ele>
        <time>2018-02-08T08:36:14Z</time>
      </trkpt>
      <trkpt lat="45.63187" lon="6.6574">
        <ele>2184.73</ele>
        <time>2018-02-08T08:36:33Z</time>
      </trkpt>
      <trkpt lat="45.6318" lon="6.65737">
        <ele>2187.14</ele>
        <time>2018-02-08T08:36:48Z</time>
      </trkpt>
      <trkpt lat="45.63178" lon="6.6573">
        <ele>2189.06</ele>
        <time>2018-02-08T08:37:00Z</time>
      </trkpt>
      <trkpt lat="45.63178" lon="6.65718">
        <ele>2190.5</ele>
        <time>2018-02-08T08:37:16Z</time>
      </trkpt>
      <trkpt lat="45.6318" lon="6.6571">
        <ele>2192.9</ele>
        <time>2018-02-08T08:37:30Z</time>
      </trkpt>
      <trkpt lat="45.63182" lon="6.65701">
        <ele>2194.35</ele>
        <time>2018-02-08T08:37:45Z</time>
      </trkpt>
      <trkpt lat="45.63183" lon="6.65694">
        <ele>2195.79</ele>
        <time>2018-02-08T08:37:58Z</time>
      </trkpt>
      <trkpt lat="45.63183" lon="6.65693">
        <ele>2196.75</ele>
        <time>2018-02-08T08:38:12Z</time>
      </trkpt>
      <trkpt lat="45.63177" lon="6.65696">
        <ele>2198.19</ele>
        <time>2018-02-08T08:38:27Z</time>
      </trkpt>
      <trkpt lat="45.63173" lon="6.65696">
        <ele>2200.59</ele>
        <time>2018-02-08T08:38:41Z</time>
      </trkpt>
      <trkpt lat="45.63167" lon="6.65697">
        <ele>2202.04</ele>
        <time>2018-02-08T08:38:54Z</time>
      </trkpt>
      <trkpt lat="45.63162" lon="6.65699">
        <ele>2203.96</ele>
        <time>2018-02-08T08:39:07Z</time>
      </trkpt>
      <trkpt lat="45.63161" lon="6.65694">
        <ele>2204.92</ele>
        <time>2018-02-08T08:39:19Z</time>
      </trkpt>
      <trkpt lat="45.63164" lon="6.65689">
        <ele>2206.36</ele>
        <time>2018-02-08T08:39:30Z</time>
      </trkpt>
      <trkpt lat="45.63166" lon="6.65682">
        <ele>2208.29</ele>
        <time>2018-02-08T08:39:42Z</time>
      </trkpt>
      <trkpt lat="45.63169" lon="6.65674">
        <ele>2210.21</ele>
        <time>2018-02-08T08:39:56Z</time>
      </trkpt>
      <trkpt lat="45.63173" lon="6.65667">
        <ele>2211.17</ele>
        <time>2018-02-08T08:40:09Z</time>
      </trkpt>
      <trkpt lat="45.63177" lon="6.65659">
        <ele>2212.61</ele>
        <time>2018-02-08T08:40:22Z</time>
      </trkpt>
      <trkpt lat="45.63178" lon="6.6565">
        <ele>2214.53</ele>
        <time>2018-02-08T08:40:37Z</time>
      </trkpt>
      <trkpt lat="45.63176" lon="6.65644">
        <ele>2217.42</ele>
        <time>2018-02-08T08:40:50Z</time>
      </trkpt>
      <trkpt lat="45.63174" lon="6.6564">
        <ele>2219.34</ele>
        <time>2018-02-08T08:41:03Z</time>
      </trkpt>
      <trkpt lat="45.63177" lon="6.6563">
        <ele>2221.26</ele>
        <time>2018-02-08T08:41:18Z</time>
      </trkpt>
      <trkpt lat="45.63177" lon="6.65625">
        <ele>2223.19</ele>
        <time>2018-02-08T08:41:32Z</time>
      </trkpt>
      <trkpt lat="45.63177" lon="6.65615">
        <ele>2225.59</ele>
        <time>2018-02-08T08:41:47Z</time>
      </trkpt>
      <trkpt lat="45.63177" lon="6.65603">
        <ele>2227.51</ele>
        <time>2018-02-08T08:42:00Z</time>
      </trkpt>
      <trkpt lat="45.63177" lon="6.65604">
        <ele>2227.99</ele>
        <time>2018-02-08T08:42:20Z</time>
      </trkpt>
      <trkpt lat="45.63178" lon="6.65605">
        <ele>2227.99</ele>
        <time>2018-02-08T08:42:42Z</time>
      </trkpt>
      <trkpt lat="45.63174" lon="6.65604">
        <ele>2227.99</ele>
        <time>2018-02-08T08:43:11Z</time>
      </trkpt>
      <trkpt lat="45.63176" lon="6.65603">
        <ele>2227.99</ele>
        <time>2018-02-08T08:43:41Z</time>
      </trkpt>
      <trkpt lat="45.63176" lon="6.65603">
        <ele>2227.99</ele>
        <time>2018-02-08T08:44:01Z</time>
      </trkpt>
      <trkpt lat="45.63176" lon="6.65604">
        <ele>2227.99</ele>
        <time>2018-02-08T08:44:23Z</time>
      </trkpt>
      <trkpt lat="45.63174" lon="6.656">
        <ele>2227.99</ele>
        <time>2018-02-08T08:44:46Z</time>
      </trkpt>
      <trkpt lat="45.63177" lon="6.65599">
        <ele>2227.99</ele>
        <time>2018-02-08T08:45:11Z</time>
      </trkpt>
      <trkpt lat="45.63175" lon="6.65603">
        <ele>2227.99</ele>
        <time>2018-02-08T08:45:40Z</time>
      </trkpt>
      <trkpt lat="45.63172" lon="6.65596">
        <ele>2228.95</ele>
        <time>2018-02-08T08:45:55Z</time>
      </trkpt>
      <trkpt lat="45.63168" lon="6.65588">
        <ele>2229.92</ele>
        <time>2018-02-08T08:46:08Z</time>
      </trkpt>
      <trkpt lat="45.63165" lon="6.65583">
        <ele>2231.84</ele>
        <time>2018-02-08T08:46:21Z</time>
      </trkpt>
      <trkpt lat="45.63157" lon="6.65579">
        <ele>2233.76</ele>
        <time>2018-02-08T08:46:36Z</time>
      </trkpt>
      <trkpt lat="45.63152" lon="6.65587">
        <ele>2236.16</ele>
        <time>2018-02-08T08:46:49Z</time>
      </trkpt>
      <trkpt lat="45.6315" lon="6.65592">
        <ele>2237.61</ele>
        <time>2018-02-08T08:47:02Z</time>
      </trkpt>
      <trkpt lat="45.6315" lon="6.65593">
        <ele>2237.61</ele>
        <time>2018-02-08T08:47:27Z</time>
      </trkpt>
      <trkpt lat="45.63149" lon="6.65592">
        <ele>2238.09</ele>
        <time>2018-02-08T08:47:49Z</time>
      </trkpt>
      <trkpt lat="45.6315" lon="6.65592">
        <ele>2237.61</ele>
        <time>2018-02-08T08:48:16Z</time>
      </trkpt>
      <trkpt lat="45.6315" lon="6.65595">
        <ele>2237.61</ele>
        <time>2018-02-08T08:48:41Z</time>
      </trkpt>
      <trkpt lat="45.63149" lon="6.65597">
        <ele>2238.09</ele>
        <time>2018-02-08T08:49:09Z</time>
      </trkpt>
      <trkpt lat="45.63149" lon="6.65592">
        <ele>2237.61</ele>
        <time>2018-02-08T08:49:35Z</time>
      </trkpt>
      <trkpt lat="45.63147" lon="6.65593">
        <ele>2237.61</ele>
        <time>2018-02-08T08:50:00Z</time>
      </trkpt>
      <trkpt lat="45.63144" lon="6.65588">
        <ele>2238.57</ele>
        <time>2018-02-08T08:50:19Z</time>
      </trkpt>
      <trkpt lat="45.63139" lon="6.65581">
        <ele>2240.97</ele>
        <time>2018-02-08T08:50:33Z</time>
      </trkpt>
      <trkpt lat="45.63133" lon="6.65574">
        <ele>2243.37</ele>
        <time>2018-02-08T08:50:47Z</time>
      </trkpt>
      <trkpt lat="45.63127" lon="6.6557">
        <ele>2245.3</ele>
        <time>2018-02-08T08:51:03Z</time>
      </trkpt>
      <trkpt lat="45.63122" lon="6.6556">
        <ele>2247.7</ele>
        <time>2018-02-08T08:51:18Z</time>
      </trkpt>
      <trkpt lat="45.63117" lon="6.65553">
        <ele>2249.62</ele>
        <time>2018-02-08T08:51:32Z</time>
      </trkpt>
      <trkpt lat="45.63114" lon="6.65544">
        <ele>2251.54</ele>
        <time>2018-02-08T08:51:46Z</time>
      </trkpt>
      <trkpt lat="45.63108" lon="6.65535">
        <ele>2252.51</ele>
        <time>2018-02-08T08:51:59Z</time>
      </trkpt>
      <trkpt lat="45.63104" lon="6.65527">
        <ele>2254.91</ele>
        <time>2018-02-08T08:52:16Z</time>
      </trkpt>
      <trkpt lat="45.63099" lon="6.65523">
        <ele>2256.83</ele>
        <time>2018-02-08T08:52:31Z</time>
      </trkpt>
      <trkpt lat="45.631" lon="6.65532">
        <ele>2258.75</ele>
        <time>2018-02-08T08:52:42Z</time>
      </trkpt>
      <trkpt lat="45.631" lon="6.65532">
        <ele>2258.75</ele>
        <time>2018-02-08T08:52:43Z</time>
      </trkpt>
      <trkpt lat="45.63098" lon="6.65546">
        <ele>2261.16</ele>
        <time>2018-02-08T08:53:00Z</time>
      </trkpt>
      <trkpt lat="45.63096" lon="6.65554">
        <ele>2262.12</ele>
        <time>2018-02-08T08:53:14Z</time>
      </trkpt>
      <trkpt lat="45.63093" lon="6.65545">
        <ele>2264.04</ele>
        <time>2018-02-08T08:53:26Z</time>
      </trkpt>
      <trkpt lat="45.63088" lon="6.65532">
        <ele>2265.48</ele>
        <time>2018-02-08T08:53:43Z</time>
      </trkpt>
      <trkpt lat="45.63085" lon="6.65521">
        <ele>2267.89</ele>
        <time>2018-02-08T08:53:57Z</time>
      </trkpt>
      <trkpt lat="45.63078" lon="6.65513">
        <ele>2269.33</ele>
        <time>2018-02-08T08:54:13Z</time>
      </trkpt>
      <trkpt lat="45.63074" lon="6.655">
        <ele>2271.25</ele>
        <time>2018-02-08T08:54:31Z</time>
      </trkpt>
      <trkpt lat="45.63072" lon="6.6549">
        <ele>2273.66</ele>
        <time>2018-02-08T08:54:44Z</time>
      </trkpt>
      <trkpt lat="45.6307" lon="6.65481">
        <ele>2275.1</ele>
        <time>2018-02-08T08:54:56Z</time>
      </trkpt>
      <trkpt lat="45.63068" lon="6.65472">
        <ele>2277.5</ele>
        <time>2018-02-08T08:55:11Z</time>
      </trkpt>
      <trkpt lat="45.63068" lon="6.65462">
        <ele>2279.9</ele>
        <time>2018-02-08T08:55:24Z</time>
      </trkpt>
      <trkpt lat="45.63064" lon="6.65454">
        <ele>2282.31</ele>
        <time>2018-02-08T08:55:38Z</time>
      </trkpt>
      <trkpt lat="45.63062" lon="6.65448">
        <ele>2284.23</ele>
        <time>2018-02-08T08:55:51Z</time>
      </trkpt>
      <trkpt lat="45.6306" lon="6.6544">
        <ele>2286.15</ele>
        <time>2018-02-08T08:56:04Z</time>
      </trkpt>
      <trkpt lat="45.63057" lon="6.65432">
        <ele>2288.08</ele>
        <time>2018-02-08T08:56:20Z</time>
      </trkpt>
      <trkpt lat="45.63053" lon="6.65422">
        <ele>2289.52</ele>
        <time>2018-02-08T08:56:33Z</time>
      </trkpt>
      <trkpt lat="45.63048" lon="6.65414">
        <ele>2292.4</ele>
        <time>2018-02-08T08:56:49Z</time>
      </trkpt>
      <trkpt lat="45.63044" lon="6.65405">
        <ele>2295.28</ele>
        <time>2018-02-08T08:57:04Z</time>
      </trkpt>
      <trkpt lat="45.63043" lon="6.65398">
        <ele>2297.21</ele>
        <time>2018-02-08T08:57:18Z</time>
      </trkpt>
      <trkpt lat="45.6304" lon="6.65391">
        <ele>2299.13</ele>
        <time>2018-02-08T08:57:30Z</time>
      </trkpt>
      <trkpt lat="45.63038" lon="6.65383">
        <ele>2301.53</ele>
        <time>2018-02-08T08:57:43Z</time>
      </trkpt>
      <trkpt lat="45.63036" lon="6.65377">
        <ele>2303.46</ele>
        <time>2018-02-08T08:57:55Z</time>
      </trkpt>
      <trkpt lat="45.63032" lon="6.65371">
        <ele>2304.9</ele>
        <time>2018-02-08T08:58:07Z</time>
      </trkpt>
      <trkpt lat="45.63025" lon="6.65373">
        <ele>2306.82</ele>
        <time>2018-02-08T08:58:20Z</time>
      </trkpt>
      <trkpt lat="45.6302" lon="6.65375">
        <ele>2308.74</ele>
        <time>2018-02-08T08:58:33Z</time>
      </trkpt>
      <trkpt lat="45.63014" lon="6.65368">
        <ele>2310.67</ele>
        <time>2018-02-08T08:58:47Z</time>
      </trkpt>
      <trkpt lat="45.63012" lon="6.65358">
        <ele>2312.59</ele>
        <time>2018-02-08T08:59:03Z</time>
      </trkpt>
      <trkpt lat="45.6301" lon="6.65345">
        <ele>2314.03</ele>
        <time>2018-02-08T08:59:17Z</time>
      </trkpt>
      <trkpt lat="45.63009" lon="6.65335">
        <ele>2315.95</ele>
        <time>2018-02-08T08:59:32Z</time>
      </trkpt>
      <trkpt lat="45.63004" lon="6.6533">
        <ele>2317.88</ele>
        <time>2018-02-08T08:59:46Z</time>
      </trkpt>
      <trkpt lat="45.62997" lon="6.65331">
        <ele>2320.28</ele>
        <time>2018-02-08T09:00:01Z</time>
      </trkpt>
      <trkpt lat="45.62988" lon="6.65335">
        <ele>2321.24</ele>
        <time>2018-02-08T09:00:15Z</time>
      </trkpt>
      <trkpt lat="45.6298" lon="6.6534">
        <ele>2323.16</ele>
        <time>2018-02-08T09:00:31Z</time>
      </trkpt>
      <trkpt lat="45.62976" lon="6.65331">
        <ele>2325.09</ele>
        <time>2018-02-08T09:00:43Z</time>
      </trkpt>
      <trkpt lat="45.62973" lon="6.6532">
        <ele>2327.01</ele>
        <time>2018-02-08T09:00:58Z</time>
      </trkpt>
      <trkpt lat="45.62967" lon="6.65309">
        <ele>2327.97</ele>
        <time>2018-02-08T09:01:12Z</time>
      </trkpt>
      <trkpt lat="45.62962" lon="6.65299">
        <ele>2329.89</ele>
        <time>2018-02-08T09:01:28Z</time>
      </trkpt>
      <trkpt lat="45.62959" lon="6.65291">
        <ele>2331.33</ele>
        <time>2018-02-08T09:01:40Z</time>
      </trkpt>
      <trkpt lat="45.62956" lon="6.65284">
        <ele>2333.74</ele>
        <time>2018-02-08T09:01:53Z</time>
      </trkpt>
      <trkpt lat="45.62951" lon="6.65271">
        <ele>2335.66</ele>
        <time>2018-02-08T09:02:08Z</time>
      </trkpt>
      <trkpt lat="45.62948" lon="6.65262">
        <ele>2337.1</ele>
        <time>2018-02-08T09:02:21Z</time>
      </trkpt>
      <trkpt lat="45.62944" lon="6.65254">
        <ele>2339.02</ele>
        <time>2018-02-08T09:02:35Z</time>
      </trkpt>
      <trkpt lat="45.62941" lon="6.65248">
        <ele>2340.95</ele>
        <time>2018-02-08T09:02:48Z</time>
      </trkpt>
      <trkpt lat="45.62939" lon="6.6524">
        <ele>2343.35</ele>
        <time>2018-02-08T09:03:01Z</time>
      </trkpt>
      <trkpt lat="45.62935" lon="6.65237">
        <ele>2345.27</ele>
        <time>2018-02-08T09:03:14Z</time>
      </trkpt>
      <trkpt lat="45.6293" lon="6.65238">
        <ele>2347.2</ele>
        <time>2018-02-08T09:03:26Z</time>
      </trkpt>
      <trkpt lat="45.62925" lon="6.65235">
        <ele>2348.64</ele>
        <time>2018-02-08T09:03:39Z</time>
      </trkpt>
      <trkpt lat="45.62924" lon="6.65225">
        <ele>2350.08</ele>
        <time>2018-02-08T09:03:53Z</time>
      </trkpt>
      <trkpt lat="45.62925" lon="6.65215">
        <ele>2351.52</ele>
        <time>2018-02-08T09:04:07Z</time>
      </trkpt>
      <trkpt lat="45.62926" lon="6.65204">
        <ele>2352.96</ele>
        <time>2018-02-08T09:04:22Z</time>
      </trkpt>
      <trkpt lat="45.62928" lon="6.65195">
        <ele>2354.89</ele>
        <time>2018-02-08T09:04:36Z</time>
      </trkpt>
      <trkpt lat="45.62928" lon="6.65188">
        <ele>2356.33</ele>
        <time>2018-02-08T09:04:50Z</time>
      </trkpt>
      <trkpt lat="45.62921" lon="6.65187">
        <ele>2358.25</ele>
        <time>2018-02-08T09:05:05Z</time>
      </trkpt>
      <trkpt lat="45.62916" lon="6.65186">
        <ele>2360.17</ele>
        <time>2018-02-08T09:05:18Z</time>
      </trkpt>
      <trkpt lat="45.6291" lon="6.65186">
        <ele>2362.1</ele>
        <time>2018-02-08T09:05:33Z</time>
      </trkpt>
      <trkpt lat="45.62904" lon="6.65186">
        <ele>2364.02</ele>
        <time>2018-02-08T09:05:46Z</time>
      </trkpt>
      <trkpt lat="45.62899" lon="6.65188">
        <ele>2365.46</ele>
        <time>2018-02-08T09:06:00Z</time>
      </trkpt>
      <trkpt lat="45.62893" lon="6.65185">
        <ele>2366.9</ele>
        <time>2018-02-08T09:06:15Z</time>
      </trkpt>
      <trkpt lat="45.62892" lon="6.65181">
        <ele>2368.83</ele>
        <time>2018-02-08T09:06:26Z</time>
      </trkpt>
      <trkpt lat="45.62894" lon="6.65173">
        <ele>2370.27</ele>
        <time>2018-02-08T09:06:40Z</time>
      </trkpt>
      <trkpt lat="45.62896" lon="6.65165">
        <ele>2372.19</ele>
        <time>2018-02-08T09:06:54Z</time>
      </trkpt>
      <trkpt lat="45.62897" lon="6.65158">
        <ele>2373.63</ele>
        <time>2018-02-08T09:07:07Z</time>
      </trkpt>
      <trkpt lat="45.62899" lon="6.65148">
        <ele>2375.55</ele>
        <time>2018-02-08T09:07:22Z</time>
      </trkpt>
      <trkpt lat="45.62901" lon="6.65142">
        <ele>2376.52</ele>
        <time>2018-02-08T09:07:35Z</time>
      </trkpt>
      <trkpt lat="45.62904" lon="6.65135">
        <ele>2378.44</ele>
        <time>2018-02-08T09:07:48Z</time>
      </trkpt>
      <trkpt lat="45.62906" lon="6.65128">
        <ele>2379.88</ele>
        <time>2018-02-08T09:08:00Z</time>
      </trkpt>
      <trkpt lat="45.62909" lon="6.65124">
        <ele>2381.8</ele>
        <time>2018-02-08T09:08:13Z</time>
      </trkpt>
      <trkpt lat="45.6291" lon="6.6512">
        <ele>2382.28</ele>
        <time>2018-02-08T09:08:29Z</time>
      </trkpt>
      <trkpt lat="45.62913" lon="6.65117">
        <ele>2383.73</ele>
        <time>2018-02-08T09:08:43Z</time>
      </trkpt>
      <trkpt lat="45.62909" lon="6.65116">
        <ele>2385.17</ele>
        <time>2018-02-08T09:08:58Z</time>
      </trkpt>
      <trkpt lat="45.62902" lon="6.65113">
        <ele>2386.61</ele>
        <time>2018-02-08T09:09:11Z</time>
      </trkpt>
      <trkpt lat="45.62896" lon="6.65111">
        <ele>2389.01</ele>
        <time>2018-02-08T09:09:26Z</time>
      </trkpt>
      <trkpt lat="45.62894" lon="6.65111">
        <ele>2389.97</ele>
        <time>2018-02-08T09:09:39Z</time>
      </trkpt>
      <trkpt lat="45.62896" lon="6.65105">
        <ele>2391.42</ele>
        <time>2018-02-08T09:09:54Z</time>
      </trkpt>
      <trkpt lat="45.62899" lon="6.65095">
        <ele>2392.86</ele>
        <time>2018-02-08T09:10:08Z</time>
      </trkpt>
      <trkpt lat="45.62902" lon="6.65088">
        <ele>2394.78</ele>
        <time>2018-02-08T09:10:23Z</time>
      </trkpt>
      <trkpt lat="45.62904" lon="6.65084">
        <ele>2395.74</ele>
        <time>2018-02-08T09:10:35Z</time>
      </trkpt>
      <trkpt lat="45.62899" lon="6.65084">
        <ele>2397.18</ele>
        <time>2018-02-08T09:10:49Z</time>
      </trkpt>
      <trkpt lat="45.62894" lon="6.65083">
        <ele>2399.11</ele>
        <time>2018-02-08T09:11:03Z</time>
      </trkpt>
      <trkpt lat="45.62888" lon="6.65085">
        <ele>2401.51</ele>
        <time>2018-02-08T09:11:17Z</time>
      </trkpt>
      <trkpt lat="45.62882" lon="6.65086">
        <ele>2402.47</ele>
        <time>2018-02-08T09:11:32Z</time>
      </trkpt>
      <trkpt lat="45.62877" lon="6.65086">
        <ele>2403.91</ele>
        <time>2018-02-08T09:11:42Z</time>
      </trkpt>
      <trkpt lat="45.6287" lon="6.65086">
        <ele>2405.84</ele>
        <time>2018-02-08T09:11:55Z</time>
      </trkpt>
      <trkpt lat="45.62864" lon="6.65085">
        <ele>2406.8</ele>
        <time>2018-02-08T09:12:07Z</time>
      </trkpt>
      <trkpt lat="45.62863" lon="6.65079">
        <ele>2408.72</ele>
        <time>2018-02-08T09:12:17Z</time>
      </trkpt>
      <trkpt lat="45.62866" lon="6.65071">
        <ele>2410.16</ele>
        <time>2018-02-08T09:12:31Z</time>
      </trkpt>
      <trkpt lat="45.62868" lon="6.65064">
        <ele>2411.6</ele>
        <time>2018-02-08T09:12:45Z</time>
      </trkpt>
      <trkpt lat="45.6287" lon="6.65054">
        <ele>2413.05</ele>
        <time>2018-02-08T09:12:59Z</time>
      </trkpt>
      <trkpt lat="45.6287" lon="6.65047">
        <ele>2414.97</ele>
        <time>2018-02-08T09:13:14Z</time>
      </trkpt>
      <trkpt lat="45.62865" lon="6.65048">
        <ele>2416.89</ele>
        <time>2018-02-08T09:13:27Z</time>
      </trkpt>
      <trkpt lat="45.62858" lon="6.65047">
        <ele>2417.85</ele>
        <time>2018-02-08T09:13:39Z</time>
      </trkpt>
      <trkpt lat="45.62852" lon="6.65042">
        <ele>2419.78</ele>
        <time>2018-02-08T09:13:55Z</time>
      </trkpt>
      <trkpt lat="45.62848" lon="6.65036">
        <ele>2421.7</ele>
        <time>2018-02-08T09:14:09Z</time>
      </trkpt>
      <trkpt lat="45.62843" lon="6.65028">
        <ele>2423.14</ele>
        <time>2018-02-08T09:14:23Z</time>
      </trkpt>
      <trkpt lat="45.6284" lon="6.65022">
        <ele>2425.06</ele>
        <time>2018-02-08T09:14:35Z</time>
      </trkpt>
      <trkpt lat="45.62837" lon="6.65015">
        <ele>2426.99</ele>
        <time>2018-02-08T09:14:47Z</time>
      </trkpt>
      <trkpt lat="45.62832" lon="6.65009">
        <ele>2428.91</ele>
        <time>2018-02-08T09:15:01Z</time>
      </trkpt>
      <trkpt lat="45.62827" lon="6.65003">
        <ele>2430.83</ele>
        <time>2018-02-08T09:15:15Z</time>
      </trkpt>
      <trkpt lat="45.62823" lon="6.64996">
        <ele>2432.75</ele>
        <time>2018-02-08T09:15:29Z</time>
      </trkpt>
      <trkpt lat="45.62821" lon="6.64989">
        <ele>2434.68</ele>
        <time>2018-02-08T09:15:41Z</time>
      </trkpt>
      <trkpt lat="45.6282" lon="6.64981">
        <ele>2436.12</ele>
        <time>2018-02-08T09:15:55Z</time>
      </trkpt>
      <trkpt lat="45.62819" lon="6.64975">
        <ele>2437.56</ele>
        <time>2018-02-08T09:16:08Z</time>
      </trkpt>
      <trkpt lat="45.62818" lon="6.64967">
        <ele>2439.48</ele>
        <time>2018-02-08T09:16:22Z</time>
      </trkpt>
      <trkpt lat="45.62813" lon="6.64965">
        <ele>2441.89</ele>
        <time>2018-02-08T09:16:34Z</time>
      </trkpt>
      <trkpt lat="45.62808" lon="6.64962">
        <ele>2442.85</ele>
        <time>2018-02-08T09:16:47Z</time>
      </trkpt>
      <trkpt lat="45.62804" lon="6.64959">
        <ele>2444.29</ele>
        <time>2018-02-08T09:16:59Z</time>
      </trkpt>
      <trkpt lat="45.62799" lon="6.64955">
        <ele>2445.73</ele>
        <time>2018-02-08T09:17:13Z</time>
      </trkpt>
      <trkpt lat="45.62795" lon="6.64947">
        <ele>2447.17</ele>
        <time>2018-02-08T09:17:27Z</time>
      </trkpt>
      <trkpt lat="45.62796" lon="6.64941">
        <ele>2447.65</ele>
        <time>2018-02-08T09:17:39Z</time>
      </trkpt>
      <trkpt lat="45.62798" lon="6.64939">
        <ele>2447.65</ele>
        <time>2018-02-08T09:17:56Z</time>
      </trkpt>
      <trkpt lat="45.62797" lon="6.64941">
        <ele>2448.13</ele>
        <time>2018-02-08T09:18:11Z</time>
      </trkpt>
      <trkpt lat="45.62798" lon="6.64944">
        <ele>2446.69</ele>
        <time>2018-02-08T09:18:24Z</time>
      </trkpt>
      <trkpt lat="45.62798" lon="6.64943">
        <ele>2447.17</ele>
        <time>2018-02-08T09:18:48Z</time>
      </trkpt>
      <trkpt lat="45.62797" lon="6.6494">
        <ele>2447.17</ele>
        <time>2018-02-08T09:19:08Z</time>
      </trkpt>
      <trkpt lat="45.62807" lon="6.64933">
        <ele>2445.73</ele>
        <time>2018-02-08T09:20:37Z</time>
      </trkpt>
      <trkpt lat="45.62796" lon="6.64936">
        <ele>2445.73</ele>
        <time>2018-02-08T09:21:00Z</time>
      </trkpt>
      <trkpt lat="45.628" lon="6.6494">
        <ele>2445.25</ele>
        <time>2018-02-08T09:21:20Z</time>
      </trkpt>
      <trkpt lat="45.62799" lon="6.64946">
        <ele>2445.25</ele>
        <time>2018-02-08T09:21:43Z</time>
      </trkpt>
      <trkpt lat="45.62797" lon="6.64947">
        <ele>2445.25</ele>
        <time>2018-02-08T09:22:20Z</time>
      </trkpt>
      <trkpt lat="45.62801" lon="6.64945">
        <ele>2445.25</ele>
        <time>2018-02-08T09:22:44Z</time>
      </trkpt>
      <trkpt lat="45.62808" lon="6.64941">
        <ele>2444.29</ele>
        <time>2018-02-08T09:23:11Z</time>
      </trkpt>
      <trkpt lat="45.62801" lon="6.64941">
        <ele>2445.73</ele>
        <time>2018-02-08T09:23:29Z</time>
      </trkpt>
      <trkpt lat="45.62798" lon="6.64939">
        <ele>2445.25</ele>
        <time>2018-02-08T09:23:48Z</time>
      </trkpt>
      <trkpt lat="45.62794" lon="6.64936">
        <ele>2445.73</ele>
        <time>2018-02-08T09:24:13Z</time>
      </trkpt>
      <trkpt lat="45.62794" lon="6.64924">
        <ele>2447.17</ele>
        <time>2018-02-08T09:24:28Z</time>
      </trkpt>
      <trkpt lat="45.62791" lon="6.64915">
        <ele>2449.58</ele>
        <time>2018-02-08T09:24:45Z</time>
      </trkpt>
      <trkpt lat="45.62789" lon="6.64907">
        <ele>2450.06</ele>
        <time>2018-02-08T09:24:59Z</time>
      </trkpt>
      <trkpt lat="45.62789" lon="6.64902">
        <ele>2451.02</ele>
        <time>2018-02-08T09:25:15Z</time>
      </trkpt>
      <trkpt lat="45.62797" lon="6.649">
        <ele>2453.42</ele>
        <time>2018-02-08T09:25:33Z</time>
      </trkpt>
      <trkpt lat="45.62802" lon="6.64896">
        <ele>2453.9</ele>
        <time>2018-02-08T09:25:45Z</time>
      </trkpt>
      <trkpt lat="45.62796" lon="6.6489">
        <ele>2456.79</ele>
        <time>2018-02-08T09:25:59Z</time>
      </trkpt>
      <trkpt lat="45.62791" lon="6.64882">
        <ele>2457.27</ele>
        <time>2018-02-08T09:26:14Z</time>
      </trkpt>
      <trkpt lat="45.62788" lon="6.64876">
        <ele>2458.71</ele>
        <time>2018-02-08T09:26:27Z</time>
      </trkpt>
      <trkpt lat="45.62787" lon="6.64873">
        <ele>2460.15</ele>
        <time>2018-02-08T09:26:42Z</time>
      </trkpt>
      <trkpt lat="45.62796" lon="6.64877">
        <ele>2462.07</ele>
        <time>2018-02-08T09:26:57Z</time>
      </trkpt>
      <trkpt lat="45.62799" lon="6.64875">
        <ele>2462.55</ele>
        <time>2018-02-08T09:27:11Z</time>
      </trkpt>
      <trkpt lat="45.62799" lon="6.64876">
        <ele>2463.04</ele>
        <time>2018-02-08T09:27:36Z</time>
      </trkpt>
      <trkpt lat="45.62802" lon="6.64877">
        <ele>2462.55</ele>
        <time>2018-02-08T09:27:56Z</time>
      </trkpt>
      <trkpt lat="45.62796" lon="6.64869">
        <ele>2464</ele>
        <time>2018-02-08T09:28:08Z</time>
      </trkpt>
      <trkpt lat="45.62791" lon="6.64859">
        <ele>2465.44</ele>
        <time>2018-02-08T09:28:25Z</time>
      </trkpt>
      <trkpt lat="45.62799" lon="6.64863">
        <ele>2467.84</ele>
        <time>2018-02-08T09:28:40Z</time>
      </trkpt>
      <trkpt lat="45.62808" lon="6.64863">
        <ele>2469.28</ele>
        <time>2018-02-08T09:28:55Z</time>
      </trkpt>
      <trkpt lat="45.62807" lon="6.64859">
        <ele>2469.76</ele>
        <time>2018-02-08T09:29:10Z</time>
      </trkpt>
      <trkpt lat="45.62802" lon="6.64851">
        <ele>2471.21</ele>
        <time>2018-02-08T09:29:24Z</time>
      </trkpt>
      <trkpt lat="45.62797" lon="6.64846">
        <ele>2472.65</ele>
        <time>2018-02-08T09:29:39Z</time>
      </trkpt>
      <trkpt lat="45.62796" lon="6.64843">
        <ele>2473.61</ele>
        <time>2018-02-08T09:29:52Z</time>
      </trkpt>
      <trkpt lat="45.62804" lon="6.64846">
        <ele>2474.57</ele>
        <time>2018-02-08T09:30:10Z</time>
      </trkpt>
      <trkpt lat="45.6281" lon="6.64846">
        <ele>2475.53</ele>
        <time>2018-02-08T09:30:24Z</time>
      </trkpt>
      <trkpt lat="45.62807" lon="6.64843">
        <ele>2476.49</ele>
        <time>2018-02-08T09:30:35Z</time>
      </trkpt>
      <trkpt lat="45.62802" lon="6.64835">
        <ele>2477.94</ele>
        <time>2018-02-08T09:30:49Z</time>
      </trkpt>
      <trkpt lat="45.62805" lon="6.64839">
        <ele>2478.42</ele>
        <time>2018-02-08T09:31:03Z</time>
      </trkpt>
      <trkpt lat="45.62809" lon="6.64838">
        <ele>2478.9</ele>
        <time>2018-02-08T09:31:18Z</time>
      </trkpt>
      <trkpt lat="45.62808" lon="6.64838">
        <ele>2478.9</ele>
        <time>2018-02-08T09:31:44Z</time>
      </trkpt>
      <trkpt lat="45.62812" lon="6.64837">
        <ele>2479.86</ele>
        <time>2018-02-08T09:31:59Z</time>
      </trkpt>
      <trkpt lat="45.62811" lon="6.64835">
        <ele>2479.86</ele>
        <time>2018-02-08T09:32:15Z</time>
      </trkpt>
      <trkpt lat="45.62808" lon="6.64832">
        <ele>2480.82</ele>
        <time>2018-02-08T09:32:28Z</time>
      </trkpt>
      <trkpt lat="45.62805" lon="6.6483">
        <ele>2481.3</ele>
        <time>2018-02-08T09:32:44Z</time>
      </trkpt>
      <trkpt lat="45.62804" lon="6.64827">
        <ele>2482.26</ele>
        <time>2018-02-08T09:33:06Z</time>
      </trkpt>
      <trkpt lat="45.62812" lon="6.64828">
        <ele>2484.18</ele>
        <time>2018-02-08T09:33:20Z</time>
      </trkpt>
      <trkpt lat="45.62818" lon="6.64829">
        <ele>2485.63</ele>
        <time>2018-02-08T09:33:36Z</time>
      </trkpt>
      <trkpt lat="45.6282" lon="6.64828">
        <ele>2485.63</ele>
        <time>2018-02-08T09:33:58Z</time>
      </trkpt>
      <trkpt lat="45.62822" lon="6.64825">
        <ele>2486.11</ele>
        <time>2018-02-08T09:34:10Z</time>
      </trkpt>
      <trkpt lat="45.62817" lon="6.6482">
        <ele>2487.55</ele>
        <time>2018-02-08T09:34:24Z</time>
      </trkpt>
      <trkpt lat="45.62812" lon="6.64814">
        <ele>2488.99</ele>
        <time>2018-02-08T09:34:37Z</time>
      </trkpt>
      <trkpt lat="45.62812" lon="6.64814">
        <ele>2489.47</ele>
        <time>2018-02-08T09:34:48Z</time>
      </trkpt>
      <trkpt lat="45.62821" lon="6.64815">
        <ele>2490.91</ele>
        <time>2018-02-08T09:35:02Z</time>
      </trkpt>
      <trkpt lat="45.6282" lon="6.64813">
        <ele>2491.87</ele>
        <time>2018-02-08T09:35:16Z</time>
      </trkpt>
      <trkpt lat="45.62814" lon="6.64806">
        <ele>2493.8</ele>
        <time>2018-02-08T09:35:31Z</time>
      </trkpt>
      <trkpt lat="45.62812" lon="6.648">
        <ele>2494.76</ele>
        <time>2018-02-08T09:35:48Z</time>
      </trkpt>
      <trkpt lat="45.62811" lon="6.648">
        <ele>2495.24</ele>
        <time>2018-02-08T09:35:59Z</time>
      </trkpt>
      <trkpt lat="45.62812" lon="6.648">
        <ele>2494.76</ele>
        <time>2018-02-08T09:36:19Z</time>
      </trkpt>
      <trkpt lat="45.62813" lon="6.648">
        <ele>2495.24</ele>
        <time>2018-02-08T09:36:27Z</time>
      </trkpt>
      <trkpt lat="45.62821" lon="6.64796">
        <ele>2497.16</ele>
        <time>2018-02-08T09:36:40Z</time>
      </trkpt>
      <trkpt lat="45.62827" lon="6.64795">
        <ele>2498.12</ele>
        <time>2018-02-08T09:36:53Z</time>
      </trkpt>
      <trkpt lat="45.62823" lon="6.64796">
        <ele>2498.6</ele>
        <time>2018-02-08T09:37:08Z</time>
      </trkpt>
      <trkpt lat="45.62821" lon="6.64795">
        <ele>2498.6</ele>
        <time>2018-02-08T09:37:11Z</time>
      </trkpt>
      <trkpt lat="45.62818" lon="6.6479">
        <ele>2500.05</ele>
        <time>2018-02-08T09:37:23Z</time>
      </trkpt>
      <trkpt lat="45.6282" lon="6.64781">
        <ele>2500.05</ele>
        <time>2018-02-08T09:37:45Z</time>
      </trkpt>
      <trkpt lat="45.62818" lon="6.64782">
        <ele>2500.05</ele>
        <time>2018-02-08T09:38:12Z</time>
      </trkpt>
      <trkpt lat="45.62814" lon="6.64784">
        <ele>2501.01</ele>
        <time>2018-02-08T09:38:30Z</time>
      </trkpt>
      <trkpt lat="45.62821" lon="6.6478">
        <ele>2501.97</ele>
        <time>2018-02-08T09:38:45Z</time>
      </trkpt>
      <trkpt lat="45.62827" lon="6.64781">
        <ele>2503.89</ele>
        <time>2018-02-08T09:38:58Z</time>
      </trkpt>
      <trkpt lat="45.62829" lon="6.64783">
        <ele>2504.85</ele>
        <time>2018-02-08T09:39:12Z</time>
      </trkpt>
      <trkpt lat="45.62823" lon="6.64778">
        <ele>2505.33</ele>
        <time>2018-02-08T09:39:27Z</time>
      </trkpt>
      <trkpt lat="45.62819" lon="6.64775">
        <ele>2506.77</ele>
        <time>2018-02-08T09:39:35Z</time>
      </trkpt>
      <trkpt lat="45.62817" lon="6.6477">
        <ele>2507.26</ele>
        <time>2018-02-08T09:39:50Z</time>
      </trkpt>
      <trkpt lat="45.62818" lon="6.64773">
        <ele>2508.22</ele>
        <time>2018-02-08T09:40:02Z</time>
      </trkpt>
      <trkpt lat="45.62824" lon="6.64773">
        <ele>2509.18</ele>
        <time>2018-02-08T09:40:18Z</time>
      </trkpt>
      <trkpt lat="45.62832" lon="6.64774">
        <ele>2511.58</ele>
        <time>2018-02-08T09:40:35Z</time>
      </trkpt>
      <trkpt lat="45.62835" lon="6.64773">
        <ele>2511.58</ele>
        <time>2018-02-08T09:40:50Z</time>
      </trkpt>
      <trkpt lat="45.62837" lon="6.64773">
        <ele>2512.54</ele>
        <time>2018-02-08T09:41:07Z</time>
      </trkpt>
      <trkpt lat="45.62832" lon="6.64771">
        <ele>2513.02</ele>
        <time>2018-02-08T09:41:29Z</time>
      </trkpt>
      <trkpt lat="45.62823" lon="6.64761">
        <ele>2515.43</ele>
        <time>2018-02-08T09:41:47Z</time>
      </trkpt>
      <trkpt lat="45.6282" lon="6.64761">
        <ele>2516.39</ele>
        <time>2018-02-08T09:41:56Z</time>
      </trkpt>
      <trkpt lat="45.6282" lon="6.6476">
        <ele>2516.87</ele>
        <time>2018-02-08T09:42:10Z</time>
      </trkpt>
      <trkpt lat="45.62828" lon="6.64758">
        <ele>2517.83</ele>
        <time>2018-02-08T09:42:22Z</time>
      </trkpt>
      <trkpt lat="45.62835" lon="6.64756">
        <ele>2519.27</ele>
        <time>2018-02-08T09:42:35Z</time>
      </trkpt>
      <trkpt lat="45.62842" lon="6.64755">
        <ele>2521.19</ele>
        <time>2018-02-08T09:42:49Z</time>
      </trkpt>
      <trkpt lat="45.6284" lon="6.6476">
        <ele>2521.19</ele>
        <time>2018-02-08T09:43:07Z</time>
      </trkpt>
      <trkpt lat="45.62845" lon="6.64757">
        <ele>2521.19</ele>
        <time>2018-02-08T09:43:21Z</time>
      </trkpt>
      <trkpt lat="45.62845" lon="6.64757">
        <ele>2521.68</ele>
        <time>2018-02-08T09:43:44Z</time>
      </trkpt>
      <trkpt lat="45.62845" lon="6.64755">
        <ele>2521.68</ele>
        <time>2018-02-08T09:44:02Z</time>
      </trkpt>
      <trkpt lat="45.62846" lon="6.6475">
        <ele>2521.68</ele>
        <time>2018-02-08T09:44:24Z</time>
      </trkpt>
      <trkpt lat="45.62847" lon="6.64752">
        <ele>2521.68</ele>
        <time>2018-02-08T09:44:47Z</time>
      </trkpt>
      <trkpt lat="45.6285" lon="6.64747">
        <ele>2522.16</ele>
        <time>2018-02-08T09:45:05Z</time>
      </trkpt>
      <trkpt lat="45.6285" lon="6.64747">
        <ele>2522.16</ele>
        <time>2018-02-08T09:45:25Z</time>
      </trkpt>
      <trkpt lat="45.62847" lon="6.64752">
        <ele>2522.64</ele>
        <time>2018-02-08T09:45:37Z</time>
      </trkpt>
      <trkpt lat="45.62841" lon="6.64752">
        <ele>2524.08</ele>
        <time>2018-02-08T09:45:48Z</time>
      </trkpt>
      <trkpt lat="45.62836" lon="6.6475">
        <ele>2524.56</ele>
        <time>2018-02-08T09:46:00Z</time>
      </trkpt>
      <trkpt lat="45.62831" lon="6.64747">
        <ele>2526.48</ele>
        <time>2018-02-08T09:46:12Z</time>
      </trkpt>
      <trkpt lat="45.62822" lon="6.64751">
        <ele>2526.96</ele>
        <time>2018-02-08T09:46:31Z</time>
      </trkpt>
      <trkpt lat="45.62834" lon="6.64744">
        <ele>2527.92</ele>
        <time>2018-02-08T09:46:45Z</time>
      </trkpt>
      <trkpt lat="45.62839" lon="6.64743">
        <ele>2528.89</ele>
        <time>2018-02-08T09:46:58Z</time>
      </trkpt>
      <trkpt lat="45.62842" lon="6.64741">
        <ele>2529.37</ele>
        <time>2018-02-08T09:47:16Z</time>
      </trkpt>
      <trkpt lat="45.6284" lon="6.64738">
        <ele>2529.85</ele>
        <time>2018-02-08T09:47:29Z</time>
      </trkpt>
      <trkpt lat="45.62835" lon="6.64737">
        <ele>2531.29</ele>
        <time>2018-02-08T09:47:41Z</time>
      </trkpt>
      <trkpt lat="45.62831" lon="6.64741">
        <ele>2531.29</ele>
        <time>2018-02-08T09:47:56Z</time>
      </trkpt>
      <trkpt lat="45.62832" lon="6.64737">
        <ele>2530.81</ele>
        <time>2018-02-08T09:48:06Z</time>
      </trkpt>
      <trkpt lat="45.62833" lon="6.64734">
        <ele>2531.29</ele>
        <time>2018-02-08T09:48:21Z</time>
      </trkpt>
      <trkpt lat="45.62837" lon="6.64737">
        <ele>2532.25</ele>
        <time>2018-02-08T09:48:37Z</time>
      </trkpt>
      <trkpt lat="45.62843" lon="6.64737">
        <ele>2533.69</ele>
        <time>2018-02-08T09:48:50Z</time>
      </trkpt>
      <trkpt lat="45.62846" lon="6.64738">
        <ele>2534.17</ele>
        <time>2018-02-08T09:49:08Z</time>
      </trkpt>
      <trkpt lat="45.62853" lon="6.64735">
        <ele>2536.58</ele>
        <time>2018-02-08T09:49:21Z</time>
      </trkpt>
      <trkpt lat="45.62857" lon="6.64735">
        <ele>2538.5</ele>
        <time>2018-02-08T09:49:34Z</time>
      </trkpt>
      <trkpt lat="45.62861" lon="6.64734">
        <ele>2538.98</ele>
        <time>2018-02-08T09:49:47Z</time>
      </trkpt>
      <trkpt lat="45.62867" lon="6.64734">
        <ele>2540.9</ele>
        <time>2018-02-08T09:50:01Z</time>
      </trkpt>
      <trkpt lat="45.62867" lon="6.64732">
        <ele>2541.38</ele>
        <time>2018-02-08T09:50:21Z</time>
      </trkpt>
      <trkpt lat="45.62862" lon="6.64729">
        <ele>2542.34</ele>
        <time>2018-02-08T09:50:37Z</time>
      </trkpt>
      <trkpt lat="45.62857" lon="6.64724">
        <ele>2544.75</ele>
        <time>2018-02-08T09:50:51Z</time>
      </trkpt>
      <trkpt lat="45.62859" lon="6.64726">
        <ele>2544.75</ele>
        <time>2018-02-08T09:51:05Z</time>
      </trkpt>
      <trkpt lat="45.62858" lon="6.64726">
        <ele>2545.23</ele>
        <time>2018-02-08T09:51:22Z</time>
      </trkpt>
      <trkpt lat="45.62852" lon="6.64726">
        <ele>2545.23</ele>
        <time>2018-02-08T09:51:34Z</time>
      </trkpt>
      <trkpt lat="45.62851" lon="6.64721">
        <ele>2546.19</ele>
        <time>2018-02-08T09:51:44Z</time>
      </trkpt>
      <trkpt lat="45.62856" lon="6.64718">
        <ele>2546.67</ele>
        <time>2018-02-08T09:52:00Z</time>
      </trkpt>
      <trkpt lat="45.62862" lon="6.64719">
        <ele>2548.11</ele>
        <time>2018-02-08T09:52:17Z</time>
      </trkpt>
      <trkpt lat="45.62861" lon="6.64713">
        <ele>2548.11</ele>
        <time>2018-02-08T09:52:38Z</time>
      </trkpt>
      <trkpt lat="45.62862" lon="6.64722">
        <ele>2548.59</ele>
        <time>2018-02-08T09:52:53Z</time>
      </trkpt>
      <trkpt lat="45.62862" lon="6.6472">
        <ele>2548.59</ele>
        <time>2018-02-08T09:53:15Z</time>
      </trkpt>
      <trkpt lat="45.62859" lon="6.64713">
        <ele>2548.11</ele>
        <time>2018-02-08T09:53:42Z</time>
      </trkpt>
      <trkpt lat="45.6286" lon="6.64719">
        <ele>2548.11</ele>
        <time>2018-02-08T09:54:04Z</time>
      </trkpt>
      <trkpt lat="45.62861" lon="6.64718">
        <ele>2548.59</ele>
        <time>2018-02-08T09:54:38Z</time>
      </trkpt>
      <trkpt lat="45.62866" lon="6.64718">
        <ele>2549.55</ele>
        <time>2018-02-08T09:54:54Z</time>
      </trkpt>
      <trkpt lat="45.62869" lon="6.64716">
        <ele>2551</ele>
        <time>2018-02-08T09:55:10Z</time>
      </trkpt>
      <trkpt lat="45.62868" lon="6.64715">
        <ele>2551</ele>
        <time>2018-02-08T09:55:30Z</time>
      </trkpt>
      <trkpt lat="45.62866" lon="6.64713">
        <ele>2551.48</ele>
        <time>2018-02-08T09:55:56Z</time>
      </trkpt>
      <trkpt lat="45.62863" lon="6.6471">
        <ele>2553.4</ele>
        <time>2018-02-08T09:56:07Z</time>
      </trkpt>
      <trkpt lat="45.62859" lon="6.64705">
        <ele>2554.84</ele>
        <time>2018-02-08T09:56:20Z</time>
      </trkpt>
      <trkpt lat="45.6286" lon="6.64704">
        <ele>2554.84</ele>
        <time>2018-02-08T09:56:39Z</time>
      </trkpt>
      <trkpt lat="45.62861" lon="6.64705">
        <ele>2554.84</ele>
        <time>2018-02-08T09:57:01Z</time>
      </trkpt>
      <trkpt lat="45.62866" lon="6.64705">
        <ele>2555.8</ele>
        <time>2018-02-08T09:57:20Z</time>
      </trkpt>
      <trkpt lat="45.62869" lon="6.64704">
        <ele>2556.76</ele>
        <time>2018-02-08T09:57:33Z</time>
      </trkpt>
      <trkpt lat="45.62867" lon="6.64705">
        <ele>2556.76</ele>
        <time>2018-02-08T09:57:50Z</time>
      </trkpt>
      <trkpt lat="45.62865" lon="6.64702">
        <ele>2557.24</ele>
        <time>2018-02-08T09:58:14Z</time>
      </trkpt>
      <trkpt lat="45.62862" lon="6.64699">
        <ele>2558.69</ele>
        <time>2018-02-08T09:58:31Z</time>
      </trkpt>
      <trkpt lat="45.62864" lon="6.64699">
        <ele>2559.17</ele>
        <time>2018-02-08T09:58:47Z</time>
      </trkpt>
      <trkpt lat="45.62866" lon="6.64698">
        <ele>2560.13</ele>
        <time>2018-02-08T09:59:04Z</time>
      </trkpt>
      <trkpt lat="45.62872" lon="6.647">
        <ele>2562.05</ele>
        <time>2018-02-08T09:59:18Z</time>
      </trkpt>
      <trkpt lat="45.62871" lon="6.64695">
        <ele>2562.53</ele>
        <time>2018-02-08T09:59:33Z</time>
      </trkpt>
      <trkpt lat="45.62868" lon="6.64693">
        <ele>2563.01</ele>
        <time>2018-02-08T09:59:50Z</time>
      </trkpt>
      <trkpt lat="45.62864" lon="6.6469">
        <ele>2563.97</ele>
        <time>2018-02-08T10:00:05Z</time>
      </trkpt>
      <trkpt lat="45.62859" lon="6.64688">
        <ele>2565.9</ele>
        <time>2018-02-08T10:00:19Z</time>
      </trkpt>
      <trkpt lat="45.62854" lon="6.64685">
        <ele>2567.34</ele>
        <time>2018-02-08T10:00:32Z</time>
      </trkpt>
      <trkpt lat="45.62851" lon="6.64683">
        <ele>2568.3</ele>
        <time>2018-02-08T10:00:46Z</time>
      </trkpt>
      <trkpt lat="45.62848" lon="6.64681">
        <ele>2568.78</ele>
        <time>2018-02-08T10:01:04Z</time>
      </trkpt>
      <trkpt lat="45.62849" lon="6.64678">
        <ele>2569.26</ele>
        <time>2018-02-08T10:01:20Z</time>
      </trkpt>
      <trkpt lat="45.62855" lon="6.64681">
        <ele>2570.22</ele>
        <time>2018-02-08T10:01:36Z</time>
      </trkpt>
      <trkpt lat="45.6286" lon="6.64679">
        <ele>2572.14</ele>
        <time>2018-02-08T10:01:49Z</time>
      </trkpt>
      <trkpt lat="45.62859" lon="6.64677">
        <ele>2572.63</ele>
        <time>2018-02-08T10:02:03Z</time>
      </trkpt>
      <trkpt lat="45.62856" lon="6.64675">
        <ele>2574.07</ele>
        <time>2018-02-08T10:02:18Z</time>
      </trkpt>
      <trkpt lat="45.62851" lon="6.64673">
        <ele>2574.55</ele>
        <time>2018-02-08T10:02:32Z</time>
      </trkpt>
      <trkpt lat="45.62851" lon="6.6467">
        <ele>2575.03</ele>
        <time>2018-02-08T10:02:50Z</time>
      </trkpt>
      <trkpt lat="45.62856" lon="6.64671">
        <ele>2575.99</ele>
        <time>2018-02-08T10:03:09Z</time>
      </trkpt>
      <trkpt lat="45.62859" lon="6.6467">
        <ele>2577.43</ele>
        <time>2018-02-08T10:03:21Z</time>
      </trkpt>
      <trkpt lat="45.62861" lon="6.64669">
        <ele>2577.91</ele>
        <time>2018-02-08T10:03:38Z</time>
      </trkpt>
      <trkpt lat="45.62861" lon="6.64667">
        <ele>2579.35</ele>
        <time>2018-02-08T10:03:53Z</time>
      </trkpt>
      <trkpt lat="45.62858" lon="6.64665">
        <ele>2579.35</ele>
        <time>2018-02-08T10:04:05Z</time>
      </trkpt>
      <trkpt lat="45.62852" lon="6.64662">
        <ele>2581.28</ele>
        <time>2018-02-08T10:04:19Z</time>
      </trkpt>
      <trkpt lat="45.6285" lon="6.64659">
        <ele>2582.24</ele>
        <time>2018-02-08T10:04:41Z</time>
      </trkpt>
      <trkpt lat="45.62852" lon="6.64658">
        <ele>2582.72</ele>
        <time>2018-02-08T10:05:00Z</time>
      </trkpt>
      <trkpt lat="45.62856" lon="6.64659">
        <ele>2582.72</ele>
        <time>2018-02-08T10:05:13Z</time>
      </trkpt>
      <trkpt lat="45.62859" lon="6.64657">
        <ele>2583.68</ele>
        <time>2018-02-08T10:05:28Z</time>
      </trkpt>
      <trkpt lat="45.62861" lon="6.64655">
        <ele>2585.6</ele>
        <time>2018-02-08T10:05:40Z</time>
      </trkpt>
      <trkpt lat="45.62863" lon="6.64653">
        <ele>2585.6</ele>
        <time>2018-02-08T10:05:55Z</time>
      </trkpt>
      <trkpt lat="45.62862" lon="6.64651">
        <ele>2586.56</ele>
        <time>2018-02-08T10:06:10Z</time>
      </trkpt>
      <trkpt lat="45.62858" lon="6.6465">
        <ele>2586.56</ele>
        <time>2018-02-08T10:06:29Z</time>
      </trkpt>
      <trkpt lat="45.62854" lon="6.64649">
        <ele>2588.01</ele>
        <time>2018-02-08T10:06:40Z</time>
      </trkpt>
      <trkpt lat="45.62853" lon="6.64647">
        <ele>2588.49</ele>
        <time>2018-02-08T10:06:56Z</time>
      </trkpt>
      <trkpt lat="45.6286" lon="6.64645">
        <ele>2589.93</ele>
        <time>2018-02-08T10:07:11Z</time>
      </trkpt>
      <trkpt lat="45.62865" lon="6.64643">
        <ele>2591.37</ele>
        <time>2018-02-08T10:07:24Z</time>
      </trkpt>
      <trkpt lat="45.62866" lon="6.64644">
        <ele>2591.37</ele>
        <time>2018-02-08T10:07:39Z</time>
      </trkpt>
      <trkpt lat="45.62869" lon="6.64642">
        <ele>2592.33</ele>
        <time>2018-02-08T10:07:51Z</time>
      </trkpt>
      <trkpt lat="45.62867" lon="6.64641">
        <ele>2592.81</ele>
        <time>2018-02-08T10:08:06Z</time>
      </trkpt>
      <trkpt lat="45.62862" lon="6.64639">
        <ele>2594.25</ele>
        <time>2018-02-08T10:08:19Z</time>
      </trkpt>
      <trkpt lat="45.62858" lon="6.64636">
        <ele>2595.22</ele>
        <time>2018-02-08T10:08:30Z</time>
      </trkpt>
      <trkpt lat="45.62858" lon="6.64632">
        <ele>2596.66</ele>
        <time>2018-02-08T10:08:44Z</time>
      </trkpt>
      <trkpt lat="45.62861" lon="6.64631">
        <ele>2597.14</ele>
        <time>2018-02-08T10:08:59Z</time>
      </trkpt>
      <trkpt lat="45.62864" lon="6.64635">
        <ele>2595.7</ele>
        <time>2018-02-08T10:09:11Z</time>
      </trkpt>
      <trkpt lat="45.62864" lon="6.64632">
        <ele>2595.7</ele>
        <time>2018-02-08T10:09:32Z</time>
      </trkpt>
      <trkpt lat="45.62863" lon="6.64631">
        <ele>2595.7</ele>
        <time>2018-02-08T10:10:02Z</time>
      </trkpt>
      <trkpt lat="45.62862" lon="6.6463">
        <ele>2595.22</ele>
        <time>2018-02-08T10:10:33Z</time>
      </trkpt>
      <trkpt lat="45.62865" lon="6.64634">
        <ele>2595.22</ele>
        <time>2018-02-08T10:10:58Z</time>
      </trkpt>
      <trkpt lat="45.62867" lon="6.64634">
        <ele>2595.22</ele>
        <time>2018-02-08T10:11:25Z</time>
      </trkpt>
      <trkpt lat="45.62862" lon="6.64634">
        <ele>2596.18</ele>
        <time>2018-02-08T10:11:45Z</time>
      </trkpt>
      <trkpt lat="45.62861" lon="6.64632">
        <ele>2595.7</ele>
        <time>2018-02-08T10:12:02Z</time>
      </trkpt>
      <trkpt lat="45.62864" lon="6.64635">
        <ele>2596.18</ele>
        <time>2018-02-08T10:12:28Z</time>
      </trkpt>
      <trkpt lat="45.62867" lon="6.64631">
        <ele>2597.62</ele>
        <time>2018-02-08T10:12:40Z</time>
      </trkpt>
      <trkpt lat="45.62869" lon="6.6463">
        <ele>2598.1</ele>
        <time>2018-02-08T10:12:54Z</time>
      </trkpt>
      <trkpt lat="45.62873" lon="6.64629">
        <ele>2599.54</ele>
        <time>2018-02-08T10:13:05Z</time>
      </trkpt>
      <trkpt lat="45.62878" lon="6.64628">
        <ele>2600.98</ele>
        <time>2018-02-08T10:13:18Z</time>
      </trkpt>
      <trkpt lat="45.62882" lon="6.64627">
        <ele>2601.46</ele>
        <time>2018-02-08T10:13:31Z</time>
      </trkpt>
      <trkpt lat="45.6288" lon="6.64625">
        <ele>2602.43</ele>
        <time>2018-02-08T10:13:45Z</time>
      </trkpt>
      <trkpt lat="45.62879" lon="6.64626">
        <ele>2602.43</ele>
        <time>2018-02-08T10:13:48Z</time>
      </trkpt>
      <trkpt lat="45.62881" lon="6.64626">
        <ele>2600.98</ele>
        <time>2018-02-08T10:14:02Z</time>
      </trkpt>
      <trkpt lat="45.6288" lon="6.64626">
        <ele>2600.98</ele>
        <time>2018-02-08T10:14:32Z</time>
      </trkpt>
      <trkpt lat="45.62876" lon="6.64624">
        <ele>2600.98</ele>
        <time>2018-02-08T10:15:00Z</time>
      </trkpt>
      <trkpt lat="45.62877" lon="6.64625">
        <ele>2601.95</ele>
        <time>2018-02-08T10:15:23Z</time>
      </trkpt>
      <trkpt lat="45.62879" lon="6.64626">
        <ele>2602.43</ele>
        <time>2018-02-08T10:15:38Z</time>
      </trkpt>
      <trkpt lat="45.62873" lon="6.64624">
        <ele>2602.91</ele>
        <time>2018-02-08T10:15:50Z</time>
      </trkpt>
      <trkpt lat="45.6287" lon="6.64618">
        <ele>2603.87</ele>
        <time>2018-02-08T10:16:02Z</time>
      </trkpt>
      <trkpt lat="45.62875" lon="6.64618">
        <ele>2605.31</ele>
        <time>2018-02-08T10:16:17Z</time>
      </trkpt>
      <trkpt lat="45.62881" lon="6.64617">
        <ele>2607.23</ele>
        <time>2018-02-08T10:16:31Z</time>
      </trkpt>
      <trkpt lat="45.62884" lon="6.64618">
        <ele>2608.19</ele>
        <time>2018-02-08T10:16:43Z</time>
      </trkpt>
      <trkpt lat="45.62885" lon="6.64617">
        <ele>2608.19</ele>
        <time>2018-02-08T10:16:57Z</time>
      </trkpt>
      <trkpt lat="45.62882" lon="6.64614">
        <ele>2609.16</ele>
        <time>2018-02-08T10:17:11Z</time>
      </trkpt>
      <trkpt lat="45.62876" lon="6.64611">
        <ele>2610.6</ele>
        <time>2018-02-08T10:17:25Z</time>
      </trkpt>
      <trkpt lat="45.62873" lon="6.64609">
        <ele>2611.56</ele>
        <time>2018-02-08T10:17:41Z</time>
      </trkpt>
      <trkpt lat="45.62872" lon="6.64607">
        <ele>2611.56</ele>
        <time>2018-02-08T10:17:56Z</time>
      </trkpt>
      <trkpt lat="45.62868" lon="6.64604">
        <ele>2612.52</ele>
        <time>2018-02-08T10:18:06Z</time>
      </trkpt>
      <trkpt lat="45.62874" lon="6.64601">
        <ele>2614.44</ele>
        <time>2018-02-08T10:18:23Z</time>
      </trkpt>
      <trkpt lat="45.62875" lon="6.64602">
        <ele>2614.44</ele>
        <time>2018-02-08T10:18:40Z</time>
      </trkpt>
      <trkpt lat="45.62879" lon="6.64604">
        <ele>2614.44</ele>
        <time>2018-02-08T10:19:03Z</time>
      </trkpt>
      <trkpt lat="45.62881" lon="6.64607">
        <ele>2614.44</ele>
        <time>2018-02-08T10:19:31Z</time>
      </trkpt>
      <trkpt lat="45.62876" lon="6.64602">
        <ele>2614.44</ele>
        <time>2018-02-08T10:19:56Z</time>
      </trkpt>
      <trkpt lat="45.62878" lon="6.64601">
        <ele>2613.96</ele>
        <time>2018-02-08T10:20:27Z</time>
      </trkpt>
      <trkpt lat="45.6288" lon="6.64604">
        <ele>2613.96</ele>
        <time>2018-02-08T10:21:01Z</time>
      </trkpt>
      <trkpt lat="45.62878" lon="6.64604">
        <ele>2614.44</ele>
        <time>2018-02-08T10:21:24Z</time>
      </trkpt>
      <trkpt lat="45.62875" lon="6.64602">
        <ele>2613.96</ele>
        <time>2018-02-08T10:21:46Z</time>
      </trkpt>
      <trkpt lat="45.62874" lon="6.64603">
        <ele>2613.96</ele>
        <time>2018-02-08T10:22:09Z</time>
      </trkpt>
      <trkpt lat="45.62875" lon="6.64602">
        <ele>2613.96</ele>
        <time>2018-02-08T10:22:29Z</time>
      </trkpt>
      <trkpt lat="45.62875" lon="6.646">
        <ele>2613.48</ele>
        <time>2018-02-08T10:22:57Z</time>
      </trkpt>
      <trkpt lat="45.6288" lon="6.64604">
        <ele>2613.96</ele>
        <time>2018-02-08T10:23:23Z</time>
      </trkpt>
      <trkpt lat="45.62877" lon="6.64602">
        <ele>2613.96</ele>
        <time>2018-02-08T10:23:54Z</time>
      </trkpt>
      <trkpt lat="45.62878" lon="6.64601">
        <ele>2615.4</ele>
        <time>2018-02-08T10:24:06Z</time>
      </trkpt>
      <trkpt lat="45.62876" lon="6.64602">
        <ele>2614.92</ele>
        <time>2018-02-08T10:24:27Z</time>
      </trkpt>
      <trkpt lat="45.62876" lon="6.646">
        <ele>2614.92</ele>
        <time>2018-02-08T10:24:53Z</time>
      </trkpt>
      <trkpt lat="45.62881" lon="6.64602">
        <ele>2615.88</ele>
        <time>2018-02-08T10:25:09Z</time>
      </trkpt>
      <trkpt lat="45.62881" lon="6.64598">
        <ele>2615.88</ele>
        <time>2018-02-08T10:25:30Z</time>
      </trkpt>
      <trkpt lat="45.62879" lon="6.646">
        <ele>2616.37</ele>
        <time>2018-02-08T10:25:51Z</time>
      </trkpt>
      <trkpt lat="45.62883" lon="6.646">
        <ele>2615.88</ele>
        <time>2018-02-08T10:26:14Z</time>
      </trkpt>
      <trkpt lat="45.62885" lon="6.646">
        <ele>2616.37</ele>
        <time>2018-02-08T10:26:26Z</time>
      </trkpt>
      <trkpt lat="45.62885" lon="6.64603">
        <ele>2616.85</ele>
        <time>2018-02-08T10:26:55Z</time>
      </trkpt>
      <trkpt lat="45.62882" lon="6.64598">
        <ele>2616.37</ele>
        <time>2018-02-08T10:27:22Z</time>
      </trkpt>
      <trkpt lat="45.62888" lon="6.64602">
        <ele>2616.37</ele>
        <time>2018-02-08T10:27:40Z</time>
      </trkpt>
      <trkpt lat="45.62886" lon="6.64601">
        <ele>2616.85</ele>
        <time>2018-02-08T10:28:01Z</time>
      </trkpt>
      <trkpt lat="45.62889" lon="6.64602">
        <ele>2616.85</ele>
        <time>2018-02-08T10:28:25Z</time>
      </trkpt>
      <trkpt lat="45.62892" lon="6.64601">
        <ele>2617.81</ele>
        <time>2018-02-08T10:28:36Z</time>
      </trkpt>
      <trkpt lat="45.62897" lon="6.64601">
        <ele>2619.73</ele>
        <time>2018-02-08T10:28:49Z</time>
      </trkpt>
      <trkpt lat="45.62895" lon="6.64601">
        <ele>2619.73</ele>
        <time>2018-02-08T10:29:03Z</time>
      </trkpt>
      <trkpt lat="45.62893" lon="6.64598">
        <ele>2620.69</ele>
        <time>2018-02-08T10:29:20Z</time>
      </trkpt>
      <trkpt lat="45.62891" lon="6.64596">
        <ele>2621.65</ele>
        <time>2018-02-08T10:29:33Z</time>
      </trkpt>
      <trkpt lat="45.62893" lon="6.64595">
        <ele>2622.13</ele>
        <time>2018-02-08T10:29:47Z</time>
      </trkpt>
      <trkpt lat="45.62892" lon="6.64597">
        <ele>2621.65</ele>
        <time>2018-02-08T10:30:05Z</time>
      </trkpt>
      <trkpt lat="45.62894" lon="6.64597">
        <ele>2622.13</ele>
        <time>2018-02-08T10:30:32Z</time>
      </trkpt>
      <trkpt lat="45.62892" lon="6.64596">
        <ele>2622.13</ele>
        <time>2018-02-08T10:30:50Z</time>
      </trkpt>
      <trkpt lat="45.62893" lon="6.64598">
        <ele>2622.13</ele>
        <time>2018-02-08T10:31:15Z</time>
      </trkpt>
      <trkpt lat="45.62896" lon="6.64596">
        <ele>2622.61</ele>
        <time>2018-02-08T10:31:38Z</time>
      </trkpt>
      <trkpt lat="45.62901" lon="6.64595">
        <ele>2624.54</ele>
        <time>2018-02-08T10:31:52Z</time>
      </trkpt>
      <trkpt lat="45.62899" lon="6.64594">
        <ele>2624.54</ele>
        <time>2018-02-08T10:32:08Z</time>
      </trkpt>
      <trkpt lat="45.62896" lon="6.6459">
        <ele>2625.02</ele>
        <time>2018-02-08T10:32:23Z</time>
      </trkpt>
      <trkpt lat="45.62893" lon="6.6459">
        <ele>2626.46</ele>
        <time>2018-02-08T10:32:37Z</time>
      </trkpt>
      <trkpt lat="45.62894" lon="6.64589">
        <ele>2626.46</ele>
        <time>2018-02-08T10:32:56Z</time>
      </trkpt>
      <trkpt lat="45.62895" lon="6.64587">
        <ele>2625.98</ele>
        <time>2018-02-08T10:33:17Z</time>
      </trkpt>
      <trkpt lat="45.62894" lon="6.64588">
        <ele>2626.94</ele>
        <time>2018-02-08T10:33:30Z</time>
      </trkpt>
      <trkpt lat="45.62898" lon="6.64587">
        <ele>2627.42</ele>
        <time>2018-02-08T10:33:46Z</time>
      </trkpt>
      <trkpt lat="45.629" lon="6.6459">
        <ele>2627.42</ele>
        <time>2018-02-08T10:34:12Z</time>
      </trkpt>
      <trkpt lat="45.629" lon="6.64589">
        <ele>2626.94</ele>
        <time>2018-02-08T10:34:29Z</time>
      </trkpt>
      <trkpt lat="45.62903" lon="6.64589">
        <ele>2627.9</ele>
        <time>2018-02-08T10:34:38Z</time>
      </trkpt>
      <trkpt lat="45.62904" lon="6.64588">
        <ele>2628.86</ele>
        <time>2018-02-08T10:34:52Z</time>
      </trkpt>
      <trkpt lat="45.62899" lon="6.64584">
        <ele>2629.82</ele>
        <time>2018-02-08T10:35:11Z</time>
      </trkpt>
      <trkpt lat="45.62896" lon="6.64581">
        <ele>2630.79</ele>
        <time>2018-02-08T10:35:23Z</time>
      </trkpt>
      <trkpt lat="45.62898" lon="6.6458">
        <ele>2631.75</ele>
        <time>2018-02-08T10:35:38Z</time>
      </trkpt>
      <trkpt lat="45.629" lon="6.64581">
        <ele>2631.75</ele>
        <time>2018-02-08T10:35:59Z</time>
      </trkpt>
      <trkpt lat="45.62901" lon="6.64579">
        <ele>2632.71</ele>
        <time>2018-02-08T10:36:12Z</time>
      </trkpt>
      <trkpt lat="45.62904" lon="6.64582">
        <ele>2633.19</ele>
        <time>2018-02-08T10:36:30Z</time>
      </trkpt>
      <trkpt lat="45.62906" lon="6.64582">
        <ele>2634.63</ele>
        <time>2018-02-08T10:36:46Z</time>
      </trkpt>
      <trkpt lat="45.62901" lon="6.64579">
        <ele>2634.63</ele>
        <time>2018-02-08T10:37:03Z</time>
      </trkpt>
      <trkpt lat="45.62898" lon="6.64574">
        <ele>2635.59</ele>
        <time>2018-02-08T10:37:16Z</time>
      </trkpt>
      <trkpt lat="45.629" lon="6.64573">
        <ele>2636.55</ele>
        <time>2018-02-08T10:37:29Z</time>
      </trkpt>
      <trkpt lat="45.62902" lon="6.64573">
        <ele>2637.51</ele>
        <time>2018-02-08T10:37:49Z</time>
      </trkpt>
      <trkpt lat="45.62905" lon="6.64572">
        <ele>2638.48</ele>
        <time>2018-02-08T10:38:02Z</time>
      </trkpt>
      <trkpt lat="45.62901" lon="6.64571">
        <ele>2639.44</ele>
        <time>2018-02-08T10:38:20Z</time>
      </trkpt>
      <trkpt lat="45.629" lon="6.64568">
        <ele>2639.92</ele>
        <time>2018-02-08T10:38:36Z</time>
      </trkpt>
      <trkpt lat="45.62903" lon="6.64569">
        <ele>2640.4</ele>
        <time>2018-02-08T10:38:58Z</time>
      </trkpt>
      <trkpt lat="45.62907" lon="6.64571">
        <ele>2640.88</ele>
        <time>2018-02-08T10:39:09Z</time>
      </trkpt>
      <trkpt lat="45.62908" lon="6.64568">
        <ele>2642.32</ele>
        <time>2018-02-08T10:39:24Z</time>
      </trkpt>
      <trkpt lat="45.62905" lon="6.64568">
        <ele>2642.32</ele>
        <time>2018-02-08T10:39:45Z</time>
      </trkpt>
      <trkpt lat="45.62901" lon="6.64564">
        <ele>2643.76</ele>
        <time>2018-02-08T10:39:59Z</time>
      </trkpt>
      <trkpt lat="45.62903" lon="6.64563">
        <ele>2644.24</ele>
        <time>2018-02-08T10:40:14Z</time>
      </trkpt>
      <trkpt lat="45.62905" lon="6.64561">
        <ele>2645.21</ele>
        <time>2018-02-08T10:40:32Z</time>
      </trkpt>
      <trkpt lat="45.62906" lon="6.64559">
        <ele>2645.69</ele>
        <time>2018-02-08T10:40:46Z</time>
      </trkpt>
      <trkpt lat="45.62904" lon="6.64561">
        <ele>2646.65</ele>
        <time>2018-02-08T10:41:04Z</time>
      </trkpt>
      <trkpt lat="45.62901" lon="6.64558">
        <ele>2647.61</ele>
        <time>2018-02-08T10:41:19Z</time>
      </trkpt>
      <trkpt lat="45.62902" lon="6.64556">
        <ele>2647.61</ele>
        <time>2018-02-08T10:41:35Z</time>
      </trkpt>
      <trkpt lat="45.62906" lon="6.64555">
        <ele>2648.57</ele>
        <time>2018-02-08T10:41:50Z</time>
      </trkpt>
      <trkpt lat="45.6291" lon="6.64556">
        <ele>2649.53</ele>
        <time>2018-02-08T10:42:04Z</time>
      </trkpt>
      <trkpt lat="45.62906" lon="6.64554">
        <ele>2650.01</ele>
        <time>2018-02-08T10:42:21Z</time>
      </trkpt>
      <trkpt lat="45.62904" lon="6.64551">
        <ele>2651.45</ele>
        <time>2018-02-08T10:42:36Z</time>
      </trkpt>
      <trkpt lat="45.62905" lon="6.6455">
        <ele>2651.45</ele>
        <time>2018-02-08T10:42:59Z</time>
      </trkpt>
      <trkpt lat="45.62908" lon="6.64551">
        <ele>2651.93</ele>
        <time>2018-02-08T10:43:18Z</time>
      </trkpt>
      <trkpt lat="45.62904" lon="6.64551">
        <ele>2652.9</ele>
        <time>2018-02-08T10:43:34Z</time>
      </trkpt>
      <trkpt lat="45.62904" lon="6.64549">
        <ele>2653.38</ele>
        <time>2018-02-08T10:43:49Z</time>
      </trkpt>
      <trkpt lat="45.62905" lon="6.64548">
        <ele>2653.86</ele>
        <time>2018-02-08T10:44:04Z</time>
      </trkpt>
      <trkpt lat="45.62909" lon="6.64547">
        <ele>2655.78</ele>
        <time>2018-02-08T10:44:18Z</time>
      </trkpt>
      <trkpt lat="45.62909" lon="6.64545">
        <ele>2655.78</ele>
        <time>2018-02-08T10:44:34Z</time>
      </trkpt>
      <trkpt lat="45.62905" lon="6.64545">
        <ele>2657.22</ele>
        <time>2018-02-08T10:44:50Z</time>
      </trkpt>
      <trkpt lat="45.62907" lon="6.64548">
        <ele>2656.74</ele>
        <time>2018-02-08T10:45:09Z</time>
      </trkpt>
      <trkpt lat="45.62905" lon="6.64547">
        <ele>2657.22</ele>
        <time>2018-02-08T10:45:31Z</time>
      </trkpt>
      <trkpt lat="45.62901" lon="6.64546">
        <ele>2658.66</ele>
        <time>2018-02-08T10:45:44Z</time>
      </trkpt>
      <trkpt lat="45.62902" lon="6.64542">
        <ele>2659.14</ele>
        <time>2018-02-08T10:46:00Z</time>
      </trkpt>
      <trkpt lat="45.62908" lon="6.6454">
        <ele>2659.62</ele>
        <time>2018-02-08T10:46:13Z</time>
      </trkpt>
      <trkpt lat="45.62911" lon="6.64539">
        <ele>2661.55</ele>
        <time>2018-02-08T10:46:26Z</time>
      </trkpt>
      <trkpt lat="45.62907" lon="6.64535">
        <ele>2661.55</ele>
        <time>2018-02-08T10:46:46Z</time>
      </trkpt>
      <trkpt lat="45.62905" lon="6.64535">
        <ele>2661.07</ele>
        <time>2018-02-08T10:47:02Z</time>
      </trkpt>
      <trkpt lat="45.62905" lon="6.64538">
        <ele>2662.03</ele>
        <time>2018-02-08T10:47:19Z</time>
      </trkpt>
      <trkpt lat="45.62908" lon="6.64535">
        <ele>2662.99</ele>
        <time>2018-02-08T10:47:35Z</time>
      </trkpt>
      <trkpt lat="45.62911" lon="6.64532">
        <ele>2663.47</ele>
        <time>2018-02-08T10:47:51Z</time>
      </trkpt>
      <trkpt lat="45.62915" lon="6.64534">
        <ele>2665.87</ele>
        <time>2018-02-08T10:48:05Z</time>
      </trkpt>
      <trkpt lat="45.62916" lon="6.64535">
        <ele>2665.87</ele>
        <time>2018-02-08T10:48:16Z</time>
      </trkpt>
      <trkpt lat="45.62912" lon="6.64532">
        <ele>2665.87</ele>
        <time>2018-02-08T10:48:32Z</time>
      </trkpt>
      <trkpt lat="45.62911" lon="6.64529">
        <ele>2666.83</ele>
        <time>2018-02-08T10:48:45Z</time>
      </trkpt>
      <trkpt lat="45.62909" lon="6.64526">
        <ele>2667.8</ele>
        <time>2018-02-08T10:49:00Z</time>
      </trkpt>
      <trkpt lat="45.62912" lon="6.64527">
        <ele>2669.24</ele>
        <time>2018-02-08T10:49:14Z</time>
      </trkpt>
      <trkpt lat="45.62918" lon="6.64529">
        <ele>2669.72</ele>
        <time>2018-02-08T10:49:30Z</time>
      </trkpt>
      <trkpt lat="45.62919" lon="6.64528">
        <ele>2671.16</ele>
        <time>2018-02-08T10:49:45Z</time>
      </trkpt>
      <trkpt lat="45.62921" lon="6.6453">
        <ele>2671.16</ele>
        <time>2018-02-08T10:50:09Z</time>
      </trkpt>
      <trkpt lat="45.62916" lon="6.64524">
        <ele>2671.64</ele>
        <time>2018-02-08T10:50:28Z</time>
      </trkpt>
      <trkpt lat="45.62915" lon="6.64518">
        <ele>2673.08</ele>
        <time>2018-02-08T10:50:45Z</time>
      </trkpt>
      <trkpt lat="45.62917" lon="6.64519">
        <ele>2673.56</ele>
        <time>2018-02-08T10:51:06Z</time>
      </trkpt>
      <trkpt lat="45.62921" lon="6.6452">
        <ele>2674.52</ele>
        <time>2018-02-08T10:51:20Z</time>
      </trkpt>
      <trkpt lat="45.62921" lon="6.64521">
        <ele>2676.45</ele>
        <time>2018-02-08T10:51:35Z</time>
      </trkpt>
      <trkpt lat="45.62917" lon="6.64517">
        <ele>2676.93</ele>
        <time>2018-02-08T10:51:54Z</time>
      </trkpt>
      <trkpt lat="45.62917" lon="6.64516">
        <ele>2676.93</ele>
        <time>2018-02-08T10:52:15Z</time>
      </trkpt>
      <trkpt lat="45.6292" lon="6.6452">
        <ele>2676.93</ele>
        <time>2018-02-08T10:52:46Z</time>
      </trkpt>
      <trkpt lat="45.62919" lon="6.64516">
        <ele>2676.93</ele>
        <time>2018-02-08T10:53:07Z</time>
      </trkpt>
      <trkpt lat="45.62916" lon="6.64513">
        <ele>2676.93</ele>
        <time>2018-02-08T10:53:21Z</time>
      </trkpt>
      <trkpt lat="45.62915" lon="6.64511">
        <ele>2678.37</ele>
        <time>2018-02-08T10:53:35Z</time>
      </trkpt>
      <trkpt lat="45.62919" lon="6.64511">
        <ele>2679.33</ele>
        <time>2018-02-08T10:53:52Z</time>
      </trkpt>
      <trkpt lat="45.62919" lon="6.6451">
        <ele>2679.33</ele>
        <time>2018-02-08T10:54:07Z</time>
      </trkpt>
      <trkpt lat="45.62919" lon="6.64511">
        <ele>2680.29</ele>
        <time>2018-02-08T10:54:21Z</time>
      </trkpt>
      <trkpt lat="45.62919" lon="6.64512">
        <ele>2680.29</ele>
        <time>2018-02-08T10:54:45Z</time>
      </trkpt>
      <trkpt lat="45.62916" lon="6.64509">
        <ele>2680.29</ele>
        <time>2018-02-08T10:55:06Z</time>
      </trkpt>
      <trkpt lat="45.62915" lon="6.64509">
        <ele>2679.81</ele>
        <time>2018-02-08T10:55:25Z</time>
      </trkpt>
      <trkpt lat="45.62914" lon="6.64509">
        <ele>2679.81</ele>
        <time>2018-02-08T10:55:47Z</time>
      </trkpt>
      <trkpt lat="45.62913" lon="6.64506">
        <ele>2680.29</ele>
        <time>2018-02-08T10:56:08Z</time>
      </trkpt>
      <trkpt lat="45.62916" lon="6.6451">
        <ele>2679.33</ele>
        <time>2018-02-08T10:56:18Z</time>
      </trkpt>
      <trkpt lat="45.62918" lon="6.64509">
        <ele>2679.81</ele>
        <time>2018-02-08T10:56:38Z</time>
      </trkpt>
      <trkpt lat="45.62918" lon="6.64512">
        <ele>2679.33</ele>
        <time>2018-02-08T10:57:03Z</time>
      </trkpt>
      <trkpt lat="45.62917" lon="6.64512">
        <ele>2679.33</ele>
        <time>2018-02-08T10:57:31Z</time>
      </trkpt>
      <trkpt lat="45.62916" lon="6.64514">
        <ele>2679.33</ele>
        <time>2018-02-08T10:57:49Z</time>
      </trkpt>
      <trkpt lat="45.6292" lon="6.64513">
        <ele>2679.81</ele>
        <time>2018-02-08T10:58:15Z</time>
      </trkpt>
      <trkpt lat="45.62916" lon="6.645">
        <ele>2679.81</ele>
        <time>2018-02-08T10:58:49Z</time>
      </trkpt>
      <trkpt lat="45.6291" lon="6.64496">
        <ele>2679.33</ele>
        <time>2018-02-08T10:59:22Z</time>
      </trkpt>
      <trkpt lat="45.62909" lon="6.64497">
        <ele>2679.33</ele>
        <time>2018-02-08T10:59:55Z</time>
      </trkpt>
      <trkpt lat="45.62906" lon="6.64497">
        <ele>2679.33</ele>
        <time>2018-02-08T11:00:28Z</time>
      </trkpt>
      <trkpt lat="45.62909" lon="6.64499">
        <ele>2678.37</ele>
        <time>2018-02-08T11:01:04Z</time>
      </trkpt>
      <trkpt lat="45.62916" lon="6.64506">
        <ele>2679.81</ele>
        <time>2018-02-08T11:01:15Z</time>
      </trkpt>
      <trkpt lat="45.62913" lon="6.64502">
        <ele>2680.29</ele>
        <time>2018-02-08T11:01:32Z</time>
      </trkpt>
      <trkpt lat="45.62912" lon="6.64506">
        <ele>2680.29</ele>
        <time>2018-02-08T11:01:52Z</time>
      </trkpt>
      <trkpt lat="45.62913" lon="6.64506">
        <ele>2680.29</ele>
        <time>2018-02-08T11:02:06Z</time>
      </trkpt>
      <trkpt lat="45.62911" lon="6.64505">
        <ele>2681.73</ele>
        <time>2018-02-08T11:02:22Z</time>
      </trkpt>
      <trkpt lat="45.6291" lon="6.64502">
        <ele>2683.66</ele>
        <time>2018-02-08T11:02:36Z</time>
      </trkpt>
      <trkpt lat="45.62909" lon="6.64501">
        <ele>2684.14</ele>
        <time>2018-02-08T11:02:47Z</time>
      </trkpt>
      <trkpt lat="45.62909" lon="6.64501">
        <ele>2684.62</ele>
        <time>2018-02-08T11:03:07Z</time>
      </trkpt>
      <trkpt lat="45.62907" lon="6.64501">
        <ele>2686.06</ele>
        <time>2018-02-08T11:03:21Z</time>
      </trkpt>
      <trkpt lat="45.62905" lon="6.64498">
        <ele>2687.5</ele>
        <time>2018-02-08T11:03:36Z</time>
      </trkpt>
      <trkpt lat="45.62905" lon="6.64495">
        <ele>2688.94</ele>
        <time>2018-02-08T11:03:51Z</time>
      </trkpt>
      <trkpt lat="45.62903" lon="6.64492">
        <ele>2689.91</ele>
        <time>2018-02-08T11:04:08Z</time>
      </trkpt>
      <trkpt lat="45.62901" lon="6.64493">
        <ele>2690.39</ele>
        <time>2018-02-08T11:04:25Z</time>
      </trkpt>
      <trkpt lat="45.629" lon="6.64494">
        <ele>2691.83</ele>
        <time>2018-02-08T11:04:42Z</time>
      </trkpt>
      <trkpt lat="45.62898" lon="6.64493">
        <ele>2693.27</ele>
        <time>2018-02-08T11:04:56Z</time>
      </trkpt>
      <trkpt lat="45.62897" lon="6.6449">
        <ele>2694.71</ele>
        <time>2018-02-08T11:05:16Z</time>
      </trkpt>
      <trkpt lat="45.62895" lon="6.64489">
        <ele>2695.67</ele>
        <time>2018-02-08T11:05:27Z</time>
      </trkpt>
      <trkpt lat="45.62894" lon="6.64484">
        <ele>2696.64</ele>
        <time>2018-02-08T11:05:41Z</time>
      </trkpt>
      <trkpt lat="45.62894" lon="6.64479">
        <ele>2698.08</ele>
        <time>2018-02-08T11:05:56Z</time>
      </trkpt>
      <trkpt lat="45.62896" lon="6.64478">
        <ele>2699.52</ele>
        <time>2018-02-08T11:06:12Z</time>
      </trkpt>
      <trkpt lat="45.62894" lon="6.64475">
        <ele>2700</ele>
        <time>2018-02-08T11:06:31Z</time>
      </trkpt>
      <trkpt lat="45.62894" lon="6.64474">
        <ele>2701.44</ele>
        <time>2018-02-08T11:06:35Z</time>
      </trkpt>
      <trkpt lat="45.62896" lon="6.64472">
        <ele>2702.88</ele>
        <time>2018-02-08T11:06:50Z</time>
      </trkpt>
      <trkpt lat="45.62895" lon="6.64473">
        <ele>2703.36</ele>
        <time>2018-02-08T11:07:10Z</time>
      </trkpt>
      <trkpt lat="45.62894" lon="6.64472">
        <ele>2705.29</ele>
        <time>2018-02-08T11:07:26Z</time>
      </trkpt>
      <trkpt lat="45.62894" lon="6.64474">
        <ele>2705.77</ele>
        <time>2018-02-08T11:07:50Z</time>
      </trkpt>
      <trkpt lat="45.62893" lon="6.6447">
        <ele>2707.69</ele>
        <time>2018-02-08T11:08:03Z</time>
      </trkpt>
      <trkpt lat="45.62892" lon="6.64465">
        <ele>2709.13</ele>
        <time>2018-02-08T11:08:16Z</time>
      </trkpt>
      <trkpt lat="45.62892" lon="6.6446">
        <ele>2710.57</ele>
        <time>2018-02-08T11:08:32Z</time>
      </trkpt>
      <trkpt lat="45.62892" lon="6.64457">
        <ele>2712.98</ele>
        <time>2018-02-08T11:08:51Z</time>
      </trkpt>
      <trkpt lat="45.62893" lon="6.64456">
        <ele>2713.46</ele>
        <time>2018-02-08T11:09:05Z</time>
      </trkpt>
      <trkpt lat="45.62892" lon="6.64454">
        <ele>2714.42</ele>
        <time>2018-02-08T11:09:30Z</time>
      </trkpt>
      <trkpt lat="45.62894" lon="6.6445">
        <ele>2715.86</ele>
        <time>2018-02-08T11:09:43Z</time>
      </trkpt>
      <trkpt lat="45.62894" lon="6.64447">
        <ele>2717.3</ele>
        <time>2018-02-08T11:09:57Z</time>
      </trkpt>
      <trkpt lat="45.62894" lon="6.64449">
        <ele>2718.75</ele>
        <time>2018-02-08T11:10:16Z</time>
      </trkpt>
      <trkpt lat="45.62895" lon="6.64445">
        <ele>2719.71</ele>
        <time>2018-02-08T11:10:34Z</time>
      </trkpt>
      <trkpt lat="45.62894" lon="6.64443">
        <ele>2721.63</ele>
        <time>2018-02-08T11:10:52Z</time>
      </trkpt>
      <trkpt lat="45.62894" lon="6.64443">
        <ele>2722.59</ele>
        <time>2018-02-08T11:11:05Z</time>
      </trkpt>
      <trkpt lat="45.62893" lon="6.64442">
        <ele>2724.51</ele>
        <time>2018-02-08T11:11:22Z</time>
      </trkpt>
      <trkpt lat="45.62893" lon="6.64441">
        <ele>2724.99</ele>
        <time>2018-02-08T11:11:43Z</time>
      </trkpt>
      <trkpt lat="45.62889" lon="6.64439">
        <ele>2726.44</ele>
        <time>2018-02-08T11:11:57Z</time>
      </trkpt>
      <trkpt lat="45.62888" lon="6.64434">
        <ele>2727.88</ele>
        <time>2018-02-08T11:12:10Z</time>
      </trkpt>
      <trkpt lat="45.62889" lon="6.64429">
        <ele>2727.4</ele>
        <time>2018-02-08T11:12:23Z</time>
      </trkpt>
      <trkpt lat="45.62895" lon="6.64428">
        <ele>2728.36</ele>
        <time>2018-02-08T11:12:38Z</time>
      </trkpt>
      <trkpt lat="45.62898" lon="6.64425">
        <ele>2729.32</ele>
        <time>2018-02-08T11:12:57Z</time>
      </trkpt>
      <trkpt lat="45.62898" lon="6.64429">
        <ele>2729.32</ele>
        <time>2018-02-08T11:13:09Z</time>
      </trkpt>
      <trkpt lat="45.62897" lon="6.64427">
        <ele>2728.84</ele>
        <time>2018-02-08T11:13:21Z</time>
      </trkpt>
      <trkpt lat="45.62897" lon="6.64428">
        <ele>2728.84</ele>
        <time>2018-02-08T11:13:39Z</time>
      </trkpt>
      <trkpt lat="45.62897" lon="6.64426">
        <ele>2728.36</ele>
        <time>2018-02-08T11:13:59Z</time>
      </trkpt>
      <trkpt lat="45.62898" lon="6.64426">
        <ele>2728.36</ele>
        <time>2018-02-08T11:14:23Z</time>
      </trkpt>
      <trkpt lat="45.62899" lon="6.64426">
        <ele>2728.36</ele>
        <time>2018-02-08T11:15:03Z</time>
      </trkpt>
      <trkpt lat="45.62899" lon="6.64431">
        <ele>2728.84</ele>
        <time>2018-02-08T11:15:29Z</time>
      </trkpt>
      <trkpt lat="45.62898" lon="6.64427">
        <ele>2728.36</ele>
        <time>2018-02-08T11:15:48Z</time>
      </trkpt>
      <trkpt lat="45.62897" lon="6.64428">
        <ele>2728.36</ele>
        <time>2018-02-08T11:16:07Z</time>
      </trkpt>
      <trkpt lat="45.62896" lon="6.64427">
        <ele>2727.88</ele>
        <time>2018-02-08T11:16:33Z</time>
      </trkpt>
      <trkpt lat="45.62896" lon="6.64429">
        <ele>2728.36</ele>
        <time>2018-02-08T11:17:09Z</time>
      </trkpt>
      <trkpt lat="45.62893" lon="6.64427">
        <ele>2727.4</ele>
        <time>2018-02-08T11:17:43Z</time>
      </trkpt>
      <trkpt lat="45.62899" lon="6.6443">
        <ele>2726.92</ele>
        <time>2018-02-08T11:18:19Z</time>
      </trkpt>
      <trkpt lat="45.62898" lon="6.64425">
        <ele>2726.92</ele>
        <time>2018-02-08T11:18:56Z</time>
      </trkpt>
      <trkpt lat="45.62899" lon="6.64422">
        <ele>2726.92</ele>
        <time>2018-02-08T11:19:37Z</time>
      </trkpt>
      <trkpt lat="45.629" lon="6.64425">
        <ele>2727.4</ele>
        <time>2018-02-08T11:20:08Z</time>
      </trkpt>
      <trkpt lat="45.62899" lon="6.64428">
        <ele>2727.4</ele>
        <time>2018-02-08T11:20:44Z</time>
      </trkpt>
      <trkpt lat="45.62896" lon="6.64429">
        <ele>2726.92</ele>
        <time>2018-02-08T11:21:20Z</time>
      </trkpt>
      <trkpt lat="45.62895" lon="6.64427">
        <ele>2726.92</ele>
        <time>2018-02-08T11:21:57Z</time>
      </trkpt>
      <trkpt lat="45.62897" lon="6.64428">
        <ele>2726.92</ele>
        <time>2018-02-08T11:22:19Z</time>
      </trkpt>
      <trkpt lat="45.62898" lon="6.64427">
        <ele>2726.92</ele>
        <time>2018-02-08T11:22:53Z</time>
      </trkpt>
      <trkpt lat="45.62889" lon="6.64434">
        <ele>2727.4</ele>
        <time>2018-02-08T11:23:27Z</time>
      </trkpt>
      <trkpt lat="45.62892" lon="6.64433">
        <ele>2726.92</ele>
        <time>2018-02-08T11:24:04Z</time>
      </trkpt>
      <trkpt lat="45.62894" lon="6.64431">
        <ele>2726.92</ele>
        <time>2018-02-08T11:24:39Z</time>
      </trkpt>
      <trkpt lat="45.62897" lon="6.64428">
        <ele>2726.92</ele>
        <time>2018-02-08T11:25:09Z</time>
      </trkpt>
      <trkpt lat="45.62896" lon="6.64427">
        <ele>2726.92</ele>
        <time>2018-02-08T11:25:46Z</time>
      </trkpt>
      <trkpt lat="45.62897" lon="6.64427">
        <ele>2726.92</ele>
        <time>2018-02-08T11:26:14Z</time>
      </trkpt>
      <trkpt lat="45.62895" lon="6.64427">
        <ele>2726.92</ele>
        <time>2018-02-08T11:26:45Z</time>
      </trkpt>
      <trkpt lat="45.62896" lon="6.64427">
        <ele>2726.44</ele>
        <time>2018-02-08T11:27:11Z</time>
      </trkpt>
      <trkpt lat="45.62899" lon="6.64427">
        <ele>2726.92</ele>
        <time>2018-02-08T11:27:42Z</time>
      </trkpt>
      <trkpt lat="45.629" lon="6.64427">
        <ele>2725.96</ele>
        <time>2018-02-08T11:28:10Z</time>
      </trkpt>
      <trkpt lat="45.62901" lon="6.64426">
        <ele>2726.44</ele>
        <time>2018-02-08T11:28:42Z</time>
      </trkpt>
      <trkpt lat="45.62901" lon="6.64427">
        <ele>2726.44</ele>
        <time>2018-02-08T11:29:11Z</time>
      </trkpt>
      <trkpt lat="45.62899" lon="6.64426">
        <ele>2725.96</ele>
        <time>2018-02-08T11:29:36Z</time>
      </trkpt>
      <trkpt lat="45.629" lon="6.64427">
        <ele>2726.44</ele>
        <time>2018-02-08T11:29:57Z</time>
      </trkpt>
      <trkpt lat="45.62899" lon="6.64425">
        <ele>2725.96</ele>
        <time>2018-02-08T11:30:32Z</time>
      </trkpt>
      <trkpt lat="45.62897" lon="6.64425">
        <ele>2725.96</ele>
        <time>2018-02-08T11:30:58Z</time>
      </trkpt>
      <trkpt lat="45.62898" lon="6.64428">
        <ele>2725.96</ele>
        <time>2018-02-08T11:31:19Z</time>
      </trkpt>
      <trkpt lat="45.62898" lon="6.64433">
        <ele>2726.44</ele>
        <time>2018-02-08T11:31:44Z</time>
      </trkpt>
      <trkpt lat="45.62897" lon="6.64433">
        <ele>2726.92</ele>
        <time>2018-02-08T11:32:14Z</time>
      </trkpt>
      <trkpt lat="45.62896" lon="6.64428">
        <ele>2726.44</ele>
        <time>2018-02-08T11:32:43Z</time>
      </trkpt>
      <trkpt lat="45.62895" lon="6.64429">
        <ele>2726.44</ele>
        <time>2018-02-08T11:33:16Z</time>
      </trkpt>
      <trkpt lat="45.62894" lon="6.64431">
        <ele>2725.48</ele>
        <time>2018-02-08T11:33:44Z</time>
      </trkpt>
      <trkpt lat="45.62895" lon="6.64429">
        <ele>2725.48</ele>
        <time>2018-02-08T11:34:13Z</time>
      </trkpt>
      <trkpt lat="45.62896" lon="6.6443">
        <ele>2725.48</ele>
        <time>2018-02-08T11:34:49Z</time>
      </trkpt>
      <trkpt lat="45.62898" lon="6.64428">
        <ele>2725.48</ele>
        <time>2018-02-08T11:35:26Z</time>
      </trkpt>
      <trkpt lat="45.62896" lon="6.64431">
        <ele>2725.48</ele>
        <time>2018-02-08T11:36:00Z</time>
      </trkpt>
      <trkpt lat="45.62898" lon="6.64429">
        <ele>2724.99</ele>
        <time>2018-02-08T11:36:31Z</time>
      </trkpt>
      <trkpt lat="45.62899" lon="6.6443">
        <ele>2725.48</ele>
        <time>2018-02-08T11:37:05Z</time>
      </trkpt>
      <trkpt lat="45.62898" lon="6.64432">
        <ele>2725.48</ele>
        <time>2018-02-08T11:37:29Z</time>
      </trkpt>
      <trkpt lat="45.62897" lon="6.64431">
        <ele>2724.99</ele>
        <time>2018-02-08T11:37:55Z</time>
      </trkpt>
      <trkpt lat="45.62897" lon="6.64431">
        <ele>2724.51</ele>
        <time>2018-02-08T11:38:26Z</time>
      </trkpt>
      <trkpt lat="45.62898" lon="6.64432">
        <ele>2724.99</ele>
        <time>2018-02-08T11:38:53Z</time>
      </trkpt>
      <trkpt lat="45.62897" lon="6.64434">
        <ele>2724.51</ele>
        <time>2018-02-08T11:39:26Z</time>
      </trkpt>
      <trkpt lat="45.62896" lon="6.64432">
        <ele>2724.51</ele>
        <time>2018-02-08T11:39:54Z</time>
      </trkpt>
      <trkpt lat="45.62897" lon="6.64434">
        <ele>2725.48</ele>
        <time>2018-02-08T11:40:27Z</time>
      </trkpt>
      <trkpt lat="45.62898" lon="6.64431">
        <ele>2725.48</ele>
        <time>2018-02-08T11:40:56Z</time>
      </trkpt>
      <trkpt lat="45.62898" lon="6.6443">
        <ele>2724.99</ele>
        <time>2018-02-08T11:41:17Z</time>
      </trkpt>
      <trkpt lat="45.62899" lon="6.64431">
        <ele>2724.99</ele>
        <time>2018-02-08T11:41:41Z</time>
      </trkpt>
      <trkpt lat="45.62897" lon="6.64431">
        <ele>2724.99</ele>
        <time>2018-02-08T11:42:10Z</time>
      </trkpt>
      <trkpt lat="45.62897" lon="6.64429">
        <ele>2724.51</ele>
        <time>2018-02-08T11:42:50Z</time>
      </trkpt>
      <trkpt lat="45.62896" lon="6.64431">
        <ele>2724.51</ele>
        <time>2018-02-08T11:43:15Z</time>
      </trkpt>
      <trkpt lat="45.62898" lon="6.64431">
        <ele>2724.51</ele>
        <time>2018-02-08T11:43:48Z</time>
      </trkpt>
      <trkpt lat="45.62897" lon="6.64432">
        <ele>2724.51</ele>
        <time>2018-02-08T11:44:16Z</time>
      </trkpt>
      <trkpt lat="45.62897" lon="6.64433">
        <ele>2724.51</ele>
        <time>2018-02-08T11:44:50Z</time>
      </trkpt>
      <trkpt lat="45.62899" lon="6.64428">
        <ele>2724.51</ele>
        <time>2018-02-08T11:45:20Z</time>
      </trkpt>
      <trkpt lat="45.629" lon="6.64426">
        <ele>2724.51</ele>
        <time>2018-02-08T11:45:55Z</time>
      </trkpt>
      <trkpt lat="45.62901" lon="6.64428">
        <ele>2724.99</ele>
        <time>2018-02-08T11:46:46Z</time>
      </trkpt>
      <trkpt lat="45.62899" lon="6.64427">
        <ele>2724.51</ele>
        <time>2018-02-08T11:47:28Z</time>
      </trkpt>
      <trkpt lat="45.62898" lon="6.64427">
        <ele>2724.51</ele>
        <time>2018-02-08T11:48:03Z</time>
      </trkpt>
      <trkpt lat="45.62899" lon="6.64426">
        <ele>2724.99</ele>
        <time>2018-02-08T11:48:40Z</time>
      </trkpt>
      <trkpt lat="45.62899" lon="6.64426">
        <ele>2724.51</ele>
        <time>2018-02-08T11:49:18Z</time>
      </trkpt>
      <trkpt lat="45.629" lon="6.64427">
        <ele>2724.99</ele>
        <time>2018-02-08T11:49:55Z</time>
      </trkpt>
      <trkpt lat="45.62899" lon="6.64428">
        <ele>2724.99</ele>
        <time>2018-02-08T11:50:38Z</time>
      </trkpt>
      <trkpt lat="45.62898" lon="6.64426">
        <ele>2724.99</ele>
        <time>2018-02-08T11:51:11Z</time>
      </trkpt>
      <trkpt lat="45.62898" lon="6.6443">
        <ele>2724.99</ele>
        <time>2018-02-08T11:51:40Z</time>
      </trkpt>
      <trkpt lat="45.62897" lon="6.64427">
        <ele>2724.99</ele>
        <time>2018-02-08T11:52:06Z</time>
      </trkpt>
      <trkpt lat="45.62896" lon="6.64425">
        <ele>2724.99</ele>
        <time>2018-02-08T11:52:40Z</time>
      </trkpt>
      <trkpt lat="45.62898" lon="6.64424">
        <ele>2724.99</ele>
        <time>2018-02-08T11:53:27Z</time>
      </trkpt>
      <trkpt lat="45.62902" lon="6.64429">
        <ele>2725.48</ele>
        <time>2018-02-08T11:53:58Z</time>
      </trkpt>
      <trkpt lat="45.629" lon="6.64428">
        <ele>2725.48</ele>
        <time>2018-02-08T11:54:30Z</time>
      </trkpt>
      <trkpt lat="45.629" lon="6.6443">
        <ele>2726.44</ele>
        <time>2018-02-08T11:54:52Z</time>
      </trkpt>
      <trkpt lat="45.629" lon="6.64429">
        <ele>2726.44</ele>
        <time>2018-02-08T11:55:18Z</time>
      </trkpt>
      <trkpt lat="45.62901" lon="6.64429">
        <ele>2726.44</ele>
        <time>2018-02-08T11:55:36Z</time>
      </trkpt>
      <trkpt lat="45.62902" lon="6.64429">
        <ele>2726.92</ele>
        <time>2018-02-08T11:55:56Z</time>
      </trkpt>
      <trkpt lat="45.62901" lon="6.6443">
        <ele>2727.4</ele>
        <time>2018-02-08T11:56:20Z</time>
      </trkpt>
      <trkpt lat="45.62901" lon="6.64429">
        <ele>2726.44</ele>
        <time>2018-02-08T11:56:44Z</time>
      </trkpt>
      <trkpt lat="45.62899" lon="6.64427">
        <ele>2726.44</ele>
        <time>2018-02-08T11:56:57Z</time>
      </trkpt>
      <trkpt lat="45.62889" lon="6.64434">
        <ele>2723.55</ele>
        <time>2018-02-08T11:57:04Z</time>
      </trkpt>
      <trkpt lat="45.62888" lon="6.64432">
        <ele>2724.03</ele>
        <time>2018-02-08T11:57:29Z</time>
      </trkpt>
      <trkpt lat="45.62889" lon="6.64434">
        <ele>2724.51</ele>
        <time>2018-02-08T11:57:58Z</time>
      </trkpt>
      <trkpt lat="45.62888" lon="6.64433">
        <ele>2724.03</ele>
        <time>2018-02-08T11:58:15Z</time>
      </trkpt>
      <trkpt lat="45.62881" lon="6.64421">
        <ele>2720.67</ele>
        <time>2018-02-08T11:58:20Z</time>
      </trkpt>
      <trkpt lat="45.6288" lon="6.64418">
        <ele>2720.67</ele>
        <time>2018-02-08T11:58:21Z</time>
      </trkpt>
      <trkpt lat="45.62878" lon="6.64414">
        <ele>2719.23</ele>
        <time>2018-02-08T11:58:22Z</time>
      </trkpt>
      <trkpt lat="45.62863" lon="6.64395">
        <ele>2714.42</ele>
        <time>2018-02-08T11:58:25Z</time>
      </trkpt>
      <trkpt lat="45.62854" lon="6.64386">
        <ele>2716.82</ele>
        <time>2018-02-08T11:58:31Z</time>
      </trkpt>
      <trkpt lat="45.62851" lon="6.64385">
        <ele>2717.78</ele>
        <time>2018-02-08T11:58:44Z</time>
      </trkpt>
      <trkpt lat="45.62847" lon="6.6438">
        <ele>2717.3</ele>
        <time>2018-02-08T11:58:53Z</time>
      </trkpt>
      <trkpt lat="45.62848" lon="6.64362">
        <ele>2713.46</ele>
        <time>2018-02-08T11:58:59Z</time>
      </trkpt>
      <trkpt lat="45.62831" lon="6.6435">
        <ele>2712.98</ele>
        <time>2018-02-08T11:59:06Z</time>
      </trkpt>
      <trkpt lat="45.62827" lon="6.64342">
        <ele>2709.61</ele>
        <time>2018-02-08T11:59:09Z</time>
      </trkpt>
      <trkpt lat="45.62825" lon="6.64341">
        <ele>2710.09</ele>
        <time>2018-02-08T11:59:10Z</time>
      </trkpt>
      <trkpt lat="45.6281" lon="6.64333">
        <ele>2707.21</ele>
        <time>2018-02-08T11:59:15Z</time>
      </trkpt>
      <trkpt lat="45.62803" lon="6.64327">
        <ele>2706.73</ele>
        <time>2018-02-08T11:59:17Z</time>
      </trkpt>
      <trkpt lat="45.62793" lon="6.64298">
        <ele>2704.33</ele>
        <time>2018-02-08T11:59:25Z</time>
      </trkpt>
      <trkpt lat="45.62796" lon="6.64294">
        <ele>2704.33</ele>
        <time>2018-02-08T11:59:34Z</time>
      </trkpt>
      <trkpt lat="45.62798" lon="6.64295">
        <ele>2704.33</ele>
        <time>2018-02-08T11:59:47Z</time>
      </trkpt>
      <trkpt lat="45.62804" lon="6.64297">
        <ele>2702.4</ele>
        <time>2018-02-08T11:59:49Z</time>
      </trkpt>
      <trkpt lat="45.62814" lon="6.64301">
        <ele>2701.92</ele>
        <time>2018-02-08T11:59:51Z</time>
      </trkpt>
      <trkpt lat="45.62819" lon="6.64288">
        <ele>2700.48</ele>
        <time>2018-02-08T11:59:54Z</time>
      </trkpt>
      <trkpt lat="45.62819" lon="6.64282">
        <ele>2700</ele>
        <time>2018-02-08T11:59:55Z</time>
      </trkpt>
      <trkpt lat="45.62837" lon="6.64279">
        <ele>2694.71</ele>
        <time>2018-02-08T12:00:00Z</time>
      </trkpt>
      <trkpt lat="45.62846" lon="6.6428">
        <ele>2694.23</ele>
        <time>2018-02-08T12:00:03Z</time>
      </trkpt>
      <trkpt lat="45.62844" lon="6.64261">
        <ele>2689.91</ele>
        <time>2018-02-08T12:00:07Z</time>
      </trkpt>
      <trkpt lat="45.62839" lon="6.64251">
        <ele>2688.94</ele>
        <time>2018-02-08T12:00:09Z</time>
      </trkpt>
      <trkpt lat="45.62838" lon="6.64232">
        <ele>2685.58</ele>
        <time>2018-02-08T12:00:12Z</time>
      </trkpt>
      <trkpt lat="45.62838" lon="6.64227">
        <ele>2685.58</ele>
        <time>2018-02-08T12:00:13Z</time>
      </trkpt>
      <trkpt lat="45.62852" lon="6.64221">
        <ele>2679.81</ele>
        <time>2018-02-08T12:00:17Z</time>
      </trkpt>
      <trkpt lat="45.62859" lon="6.64202">
        <ele>2675.49</ele>
        <time>2018-02-08T12:00:20Z</time>
      </trkpt>
      <trkpt lat="45.62863" lon="6.64202">
        <ele>2675.49</ele>
        <time>2018-02-08T12:00:21Z</time>
      </trkpt>
      <trkpt lat="45.62872" lon="6.64204">
        <ele>2672.12</ele>
        <time>2018-02-08T12:00:23Z</time>
      </trkpt>
      <trkpt lat="45.62878" lon="6.64198">
        <ele>2667.8</ele>
        <time>2018-02-08T12:00:24Z</time>
      </trkpt>
      <trkpt lat="45.62881" lon="6.64187">
        <ele>2663.95</ele>
        <time>2018-02-08T12:00:26Z</time>
      </trkpt>
      <trkpt lat="45.62895" lon="6.64183">
        <ele>2660.11</ele>
        <time>2018-02-08T12:00:29Z</time>
      </trkpt>
      <trkpt lat="45.62898" lon="6.64177">
        <ele>2656.74</ele>
        <time>2018-02-08T12:00:30Z</time>
      </trkpt>
      <trkpt lat="45.629" lon="6.64165">
        <ele>2653.38</ele>
        <time>2018-02-08T12:00:32Z</time>
      </trkpt>
      <trkpt lat="45.62913" lon="6.64167">
        <ele>2650.01</ele>
        <time>2018-02-08T12:00:35Z</time>
      </trkpt>
      <trkpt lat="45.62917" lon="6.64163">
        <ele>2646.65</ele>
        <time>2018-02-08T12:00:36Z</time>
      </trkpt>
      <trkpt lat="45.62923" lon="6.64153">
        <ele>2643.28</ele>
        <time>2018-02-08T12:00:38Z</time>
      </trkpt>
      <trkpt lat="45.62926" lon="6.64156">
        <ele>2639.92</ele>
        <time>2018-02-08T12:00:41Z</time>
      </trkpt>
      <trkpt lat="45.62927" lon="6.64156">
        <ele>2639.44</ele>
        <time>2018-02-08T12:00:42Z</time>
      </trkpt>
      <trkpt lat="45.62931" lon="6.64144">
        <ele>2637.03</ele>
        <time>2018-02-08T12:00:47Z</time>
      </trkpt>
      <trkpt lat="45.62935" lon="6.64146">
        <ele>2635.11</ele>
        <time>2018-02-08T12:00:50Z</time>
      </trkpt>
      <trkpt lat="45.62935" lon="6.64148">
        <ele>2635.11</ele>
        <time>2018-02-08T12:01:02Z</time>
      </trkpt>
      <trkpt lat="45.6295" lon="6.64167">
        <ele>2631.75</ele>
        <time>2018-02-08T12:01:07Z</time>
      </trkpt>
      <trkpt lat="45.62955" lon="6.64166">
        <ele>2631.27</ele>
        <time>2018-02-08T12:01:08Z</time>
      </trkpt>
      <trkpt lat="45.62956" lon="6.64155">
        <ele>2626.94</ele>
        <time>2018-02-08T12:01:10Z</time>
      </trkpt>
      <trkpt lat="45.62953" lon="6.64148">
        <ele>2625.98</ele>
        <time>2018-02-08T12:01:12Z</time>
      </trkpt>
      <trkpt lat="45.62949" lon="6.64135">
        <ele>2625.98</ele>
        <time>2018-02-08T12:01:23Z</time>
      </trkpt>
      <trkpt lat="45.62948" lon="6.64136">
        <ele>2625.98</ele>
        <time>2018-02-08T12:01:42Z</time>
      </trkpt>
      <trkpt lat="45.62948" lon="6.64137">
        <ele>2625.98</ele>
        <time>2018-02-08T12:02:01Z</time>
      </trkpt>
      <trkpt lat="45.62945" lon="6.64127">
        <ele>2625.98</ele>
        <time>2018-02-08T12:02:14Z</time>
      </trkpt>
      <trkpt lat="45.62937" lon="6.64109">
        <ele>2622.61</ele>
        <time>2018-02-08T12:02:23Z</time>
      </trkpt>
      <trkpt lat="45.62936" lon="6.64103">
        <ele>2622.61</ele>
        <time>2018-02-08T12:02:25Z</time>
      </trkpt>
      <trkpt lat="45.62946" lon="6.64105">
        <ele>2618.29</ele>
        <time>2018-02-08T12:02:29Z</time>
      </trkpt>
      <trkpt lat="45.62947" lon="6.64102">
        <ele>2613.96</ele>
        <time>2018-02-08T12:02:31Z</time>
      </trkpt>
      <trkpt lat="45.62947" lon="6.641">
        <ele>2613.48</ele>
        <time>2018-02-08T12:02:35Z</time>
      </trkpt>
      <trkpt lat="45.62947" lon="6.64087">
        <ele>2610.12</ele>
        <time>2018-02-08T12:02:40Z</time>
      </trkpt>
      <trkpt lat="45.62948" lon="6.64082">
        <ele>2608.67</ele>
        <time>2018-02-08T12:02:51Z</time>
      </trkpt>
      <trkpt lat="45.62948" lon="6.64078">
        <ele>2608.67</ele>
        <time>2018-02-08T12:03:04Z</time>
      </trkpt>
      <trkpt lat="45.62952" lon="6.64079">
        <ele>2608.19</ele>
        <time>2018-02-08T12:03:06Z</time>
      </trkpt>
      <trkpt lat="45.62954" lon="6.64082">
        <ele>2604.35</ele>
        <time>2018-02-08T12:03:07Z</time>
      </trkpt>
      <trkpt lat="45.62958" lon="6.64078">
        <ele>2600.02</ele>
        <time>2018-02-08T12:03:09Z</time>
      </trkpt>
      <trkpt lat="45.62963" lon="6.64068">
        <ele>2595.22</ele>
        <time>2018-02-08T12:03:13Z</time>
      </trkpt>
      <trkpt lat="45.62965" lon="6.64072">
        <ele>2593.29</ele>
        <time>2018-02-08T12:03:15Z</time>
      </trkpt>
      <trkpt lat="45.62968" lon="6.64078">
        <ele>2592.33</ele>
        <time>2018-02-08T12:03:17Z</time>
      </trkpt>
      <trkpt lat="45.62973" lon="6.64076">
        <ele>2588.01</ele>
        <time>2018-02-08T12:03:20Z</time>
      </trkpt>
      <trkpt lat="45.62972" lon="6.64074">
        <ele>2587.53</ele>
        <time>2018-02-08T12:03:36Z</time>
      </trkpt>
      <trkpt lat="45.62972" lon="6.64074">
        <ele>2588.01</ele>
        <time>2018-02-08T12:03:44Z</time>
      </trkpt>
      <trkpt lat="45.62973" lon="6.64062">
        <ele>2585.12</ele>
        <time>2018-02-08T12:03:48Z</time>
      </trkpt>
      <trkpt lat="45.62975" lon="6.64054">
        <ele>2583.68</ele>
        <time>2018-02-08T12:03:51Z</time>
      </trkpt>
      <trkpt lat="45.62984" lon="6.6406">
        <ele>2577.91</ele>
        <time>2018-02-08T12:03:54Z</time>
      </trkpt>
      <trkpt lat="45.6299" lon="6.64072">
        <ele>2575.03</ele>
        <time>2018-02-08T12:03:57Z</time>
      </trkpt>
      <trkpt lat="45.62997" lon="6.64067">
        <ele>2570.7</ele>
        <time>2018-02-08T12:03:59Z</time>
      </trkpt>
      <trkpt lat="45.62997" lon="6.64057">
        <ele>2567.34</ele>
        <time>2018-02-08T12:04:01Z</time>
      </trkpt>
      <trkpt lat="45.63003" lon="6.64055">
        <ele>2563.49</ele>
        <time>2018-02-08T12:04:04Z</time>
      </trkpt>
      <trkpt lat="45.63006" lon="6.64066">
        <ele>2560.13</ele>
        <time>2018-02-08T12:04:08Z</time>
      </trkpt>
      <trkpt lat="45.63011" lon="6.64072">
        <ele>2559.17</ele>
        <time>2018-02-08T12:04:13Z</time>
      </trkpt>
      <trkpt lat="45.6302" lon="6.64061">
        <ele>2551.96</ele>
        <time>2018-02-08T12:04:16Z</time>
      </trkpt>
      <trkpt lat="45.63018" lon="6.64053">
        <ele>2550.03</ele>
        <time>2018-02-08T12:04:18Z</time>
      </trkpt>
      <trkpt lat="45.63014" lon="6.64046">
        <ele>2549.07</ele>
        <time>2018-02-08T12:04:26Z</time>
      </trkpt>
      <trkpt lat="45.63016" lon="6.64034">
        <ele>2546.67</ele>
        <time>2018-02-08T12:04:31Z</time>
      </trkpt>
      <trkpt lat="45.63025" lon="6.64039">
        <ele>2543.31</ele>
        <time>2018-02-08T12:04:35Z</time>
      </trkpt>
      <trkpt lat="45.63026" lon="6.64043">
        <ele>2540.42</ele>
        <time>2018-02-08T12:04:37Z</time>
      </trkpt>
      <trkpt lat="45.6303" lon="6.64039">
        <ele>2537.06</ele>
        <time>2018-02-08T12:04:40Z</time>
      </trkpt>
      <trkpt lat="45.6303" lon="6.64036">
        <ele>2535.61</ele>
        <time>2018-02-08T12:04:42Z</time>
      </trkpt>
      <trkpt lat="45.63034" lon="6.64023">
        <ele>2532.25</ele>
        <time>2018-02-08T12:04:57Z</time>
      </trkpt>
      <trkpt lat="45.63034" lon="6.64021">
        <ele>2532.25</ele>
        <time>2018-02-08T12:04:58Z</time>
      </trkpt>
      <trkpt lat="45.63035" lon="6.64018">
        <ele>2532.25</ele>
        <time>2018-02-08T12:04:59Z</time>
      </trkpt>
      <trkpt lat="45.63042" lon="6.64023">
        <ele>2527.92</ele>
        <time>2018-02-08T12:05:02Z</time>
      </trkpt>
      <trkpt lat="45.63048" lon="6.64016">
        <ele>2522.16</ele>
        <time>2018-02-08T12:05:05Z</time>
      </trkpt>
      <trkpt lat="45.63056" lon="6.64018">
        <ele>2517.35</ele>
        <time>2018-02-08T12:05:09Z</time>
      </trkpt>
      <trkpt lat="45.63056" lon="6.64019">
        <ele>2516.39</ele>
        <time>2018-02-08T12:05:11Z</time>
      </trkpt>
      <trkpt lat="45.63057" lon="6.64022">
        <ele>2515.91</ele>
        <time>2018-02-08T12:05:28Z</time>
      </trkpt>
      <trkpt lat="45.63065" lon="6.64035">
        <ele>2513.02</ele>
        <time>2018-02-08T12:05:34Z</time>
      </trkpt>
      <trkpt lat="45.63074" lon="6.64025">
        <ele>2506.77</ele>
        <time>2018-02-08T12:05:37Z</time>
      </trkpt>
      <trkpt lat="45.63072" lon="6.64017">
        <ele>2505.33</ele>
        <time>2018-02-08T12:05:39Z</time>
      </trkpt>
      <trkpt lat="45.6308" lon="6.64016">
        <ele>2501.49</ele>
        <time>2018-02-08T12:05:43Z</time>
      </trkpt>
      <trkpt lat="45.63086" lon="6.64022">
        <ele>2498.12</ele>
        <time>2018-02-08T12:05:46Z</time>
      </trkpt>
      <trkpt lat="45.63089" lon="6.64012">
        <ele>2493.32</ele>
        <time>2018-02-08T12:05:48Z</time>
      </trkpt>
      <trkpt lat="45.63086" lon="6.64001">
        <ele>2490.43</ele>
        <time>2018-02-08T12:05:51Z</time>
      </trkpt>
      <trkpt lat="45.63086" lon="6.6399">
        <ele>2488.51</ele>
        <time>2018-02-08T12:05:55Z</time>
      </trkpt>
      <trkpt lat="45.63084" lon="6.63986">
        <ele>2488.51</ele>
        <time>2018-02-08T12:06:09Z</time>
      </trkpt>
      <trkpt lat="45.6309" lon="6.63982">
        <ele>2485.15</ele>
        <time>2018-02-08T12:06:12Z</time>
      </trkpt>
      <trkpt lat="45.63092" lon="6.63986">
        <ele>2483.22</ele>
        <time>2018-02-08T12:06:13Z</time>
      </trkpt>
      <trkpt lat="45.63096" lon="6.63993">
        <ele>2482.26</ele>
        <time>2018-02-08T12:06:16Z</time>
      </trkpt>
      <trkpt lat="45.63103" lon="6.63989">
        <ele>2477.45</ele>
        <time>2018-02-08T12:06:19Z</time>
      </trkpt>
      <trkpt lat="45.63104" lon="6.63982">
        <ele>2474.57</ele>
        <time>2018-02-08T12:06:21Z</time>
      </trkpt>
      <trkpt lat="45.63103" lon="6.63979">
        <ele>2475.05</ele>
        <time>2018-02-08T12:06:33Z</time>
      </trkpt>
      <trkpt lat="45.63103" lon="6.63975">
        <ele>2474.57</ele>
        <time>2018-02-08T12:06:44Z</time>
      </trkpt>
      <trkpt lat="45.63103" lon="6.63973">
        <ele>2475.05</ele>
        <time>2018-02-08T12:07:08Z</time>
      </trkpt>
      <trkpt lat="45.63111" lon="6.63972">
        <ele>2470.24</ele>
        <time>2018-02-08T12:07:13Z</time>
      </trkpt>
      <trkpt lat="45.6311" lon="6.63973">
        <ele>2469.28</ele>
        <time>2018-02-08T12:07:15Z</time>
      </trkpt>
      <trkpt lat="45.63111" lon="6.63975">
        <ele>2469.28</ele>
        <time>2018-02-08T12:07:37Z</time>
      </trkpt>
      <trkpt lat="45.63109" lon="6.63974">
        <ele>2469.76</ele>
        <time>2018-02-08T12:08:07Z</time>
      </trkpt>
      <trkpt lat="45.63111" lon="6.63974">
        <ele>2469.28</ele>
        <time>2018-02-08T12:08:27Z</time>
      </trkpt>
      <trkpt lat="45.63122" lon="6.63981">
        <ele>2464.96</ele>
        <time>2018-02-08T12:08:33Z</time>
      </trkpt>
      <trkpt lat="45.63125" lon="6.63975">
        <ele>2461.59</ele>
        <time>2018-02-08T12:08:34Z</time>
      </trkpt>
      <trkpt lat="45.63134" lon="6.63967">
        <ele>2457.75</ele>
        <time>2018-02-08T12:08:38Z</time>
      </trkpt>
      <trkpt lat="45.63136" lon="6.63973">
        <ele>2455.82</ele>
        <time>2018-02-08T12:08:39Z</time>
      </trkpt>
      <trkpt lat="45.63138" lon="6.63983">
        <ele>2453.42</ele>
        <time>2018-02-08T12:08:41Z</time>
      </trkpt>
      <trkpt lat="45.63145" lon="6.63982">
        <ele>2448.13</ele>
        <time>2018-02-08T12:08:43Z</time>
      </trkpt>
      <trkpt lat="45.63147" lon="6.63969">
        <ele>2445.25</ele>
        <time>2018-02-08T12:08:45Z</time>
      </trkpt>
      <trkpt lat="45.63147" lon="6.63964">
        <ele>2445.73</ele>
        <time>2018-02-08T12:08:50Z</time>
      </trkpt>
      <trkpt lat="45.63154" lon="6.63946">
        <ele>2442.37</ele>
        <time>2018-02-08T12:08:55Z</time>
      </trkpt>
      <trkpt lat="45.63157" lon="6.63934">
        <ele>2440.44</ele>
        <time>2018-02-08T12:08:58Z</time>
      </trkpt>
      <trkpt lat="45.63158" lon="6.63931">
        <ele>2439.96</ele>
        <time>2018-02-08T12:08:59Z</time>
      </trkpt>
      <trkpt lat="45.63163" lon="6.63938">
        <ele>2436.12</ele>
        <time>2018-02-08T12:09:02Z</time>
      </trkpt>
      <trkpt lat="45.63171" lon="6.63932">
        <ele>2431.31</ele>
        <time>2018-02-08T12:09:05Z</time>
      </trkpt>
      <trkpt lat="45.63176" lon="6.63937">
        <ele>2427.95</ele>
        <time>2018-02-08T12:09:08Z</time>
      </trkpt>
      <trkpt lat="45.63182" lon="6.63943">
        <ele>2424.1</ele>
        <time>2018-02-08T12:09:11Z</time>
      </trkpt>
      <trkpt lat="45.63186" lon="6.63933">
        <ele>2420.26</ele>
        <time>2018-02-08T12:09:13Z</time>
      </trkpt>
      <trkpt lat="45.63194" lon="6.63938">
        <ele>2415.45</ele>
        <time>2018-02-08T12:09:17Z</time>
      </trkpt>
      <trkpt lat="45.63194" lon="6.63949">
        <ele>2414.01</ele>
        <time>2018-02-08T12:09:20Z</time>
      </trkpt>
      <trkpt lat="45.63203" lon="6.63939">
        <ele>2407.76</ele>
        <time>2018-02-08T12:09:23Z</time>
      </trkpt>
      <trkpt lat="45.63203" lon="6.63935">
        <ele>2407.76</ele>
        <time>2018-02-08T12:09:24Z</time>
      </trkpt>
      <trkpt lat="45.63214" lon="6.6393">
        <ele>2403.43</ele>
        <time>2018-02-08T12:09:29Z</time>
      </trkpt>
      <trkpt lat="45.63214" lon="6.63935">
        <ele>2401.51</ele>
        <time>2018-02-08T12:09:30Z</time>
      </trkpt>
      <trkpt lat="45.63214" lon="6.63941">
        <ele>2400.55</ele>
        <time>2018-02-08T12:09:32Z</time>
      </trkpt>
      <trkpt lat="45.63214" lon="6.63942">
        <ele>2400.55</ele>
        <time>2018-02-08T12:09:38Z</time>
      </trkpt>
      <trkpt lat="45.63223" lon="6.63934">
        <ele>2395.74</ele>
        <time>2018-02-08T12:09:42Z</time>
      </trkpt>
      <trkpt lat="45.63229" lon="6.63912">
        <ele>2392.38</ele>
        <time>2018-02-08T12:09:47Z</time>
      </trkpt>
      <trkpt lat="45.63237" lon="6.63919">
        <ele>2388.05</ele>
        <time>2018-02-08T12:09:50Z</time>
      </trkpt>
      <trkpt lat="45.63237" lon="6.63926">
        <ele>2386.61</ele>
        <time>2018-02-08T12:09:51Z</time>
      </trkpt>
      <trkpt lat="45.63238" lon="6.63942">
        <ele>2385.65</ele>
        <time>2018-02-08T12:09:54Z</time>
      </trkpt>
      <trkpt lat="45.63242" lon="6.6396">
        <ele>2383.73</ele>
        <time>2018-02-08T12:09:58Z</time>
      </trkpt>
      <trkpt lat="45.6325" lon="6.63977">
        <ele>2381.8</ele>
        <time>2018-02-08T12:10:02Z</time>
      </trkpt>
      <trkpt lat="45.63264" lon="6.64001">
        <ele>2378.44</ele>
        <time>2018-02-08T12:10:11Z</time>
      </trkpt>
      <trkpt lat="45.63268" lon="6.64006">
        <ele>2377</ele>
        <time>2018-02-08T12:10:14Z</time>
      </trkpt>
      <trkpt lat="45.63271" lon="6.64008">
        <ele>2377</ele>
        <time>2018-02-08T12:10:18Z</time>
      </trkpt>
      <trkpt lat="45.63272" lon="6.6401">
        <ele>2377</ele>
        <time>2018-02-08T12:10:34Z</time>
      </trkpt>
      <trkpt lat="45.63274" lon="6.64014">
        <ele>2377.48</ele>
        <time>2018-02-08T12:10:45Z</time>
      </trkpt>
      <trkpt lat="45.63273" lon="6.64018">
        <ele>2376.04</ele>
        <time>2018-02-08T12:11:02Z</time>
      </trkpt>
      <trkpt lat="45.6328" lon="6.64038">
        <ele>2374.59</ele>
        <time>2018-02-08T12:11:16Z</time>
      </trkpt>
      <trkpt lat="45.63286" lon="6.64048">
        <ele>2372.67</ele>
        <time>2018-02-08T12:11:20Z</time>
      </trkpt>
      <trkpt lat="45.63292" lon="6.64055">
        <ele>2371.23</ele>
        <time>2018-02-08T12:11:23Z</time>
      </trkpt>
      <trkpt lat="45.63296" lon="6.64056">
        <ele>2365.94</ele>
        <time>2018-02-08T12:11:26Z</time>
      </trkpt>
      <trkpt lat="45.63297" lon="6.64039">
        <ele>2364.98</ele>
        <time>2018-02-08T12:11:28Z</time>
      </trkpt>
      <trkpt lat="45.63307" lon="6.64046">
        <ele>2361.62</ele>
        <time>2018-02-08T12:11:32Z</time>
      </trkpt>
      <trkpt lat="45.6331" lon="6.64055">
        <ele>2360.65</ele>
        <time>2018-02-08T12:11:34Z</time>
      </trkpt>
      <trkpt lat="45.6332" lon="6.64072">
        <ele>2358.73</ele>
        <time>2018-02-08T12:11:39Z</time>
      </trkpt>
      <trkpt lat="45.6333" lon="6.64063">
        <ele>2350.56</ele>
        <time>2018-02-08T12:11:42Z</time>
      </trkpt>
      <trkpt lat="45.63329" lon="6.64049">
        <ele>2349.12</ele>
        <time>2018-02-08T12:11:44Z</time>
      </trkpt>
      <trkpt lat="45.63336" lon="6.64044">
        <ele>2347.68</ele>
        <time>2018-02-08T12:11:49Z</time>
      </trkpt>
      <trkpt lat="45.63337" lon="6.64049">
        <ele>2346.72</ele>
        <time>2018-02-08T12:11:50Z</time>
      </trkpt>
      <trkpt lat="45.63338" lon="6.64055">
        <ele>2345.27</ele>
        <time>2018-02-08T12:11:53Z</time>
      </trkpt>
      <trkpt lat="45.63339" lon="6.64056">
        <ele>2345.75</ele>
        <time>2018-02-08T12:11:55Z</time>
      </trkpt>
      <trkpt lat="45.63352" lon="6.64071">
        <ele>2341.91</ele>
        <time>2018-02-08T12:12:04Z</time>
      </trkpt>
      <trkpt lat="45.63355" lon="6.64074">
        <ele>2341.43</ele>
        <time>2018-02-08T12:12:05Z</time>
      </trkpt>
      <trkpt lat="45.63369" lon="6.64084">
        <ele>2339.99</ele>
        <time>2018-02-08T12:12:13Z</time>
      </trkpt>
      <trkpt lat="45.63368" lon="6.64073">
        <ele>2335.18</ele>
        <time>2018-02-08T12:12:17Z</time>
      </trkpt>
      <trkpt lat="45.63369" lon="6.64067">
        <ele>2334.7</ele>
        <time>2018-02-08T12:12:19Z</time>
      </trkpt>
      <trkpt lat="45.63374" lon="6.6407">
        <ele>2332.78</ele>
        <time>2018-02-08T12:12:21Z</time>
      </trkpt>
      <trkpt lat="45.63378" lon="6.64071">
        <ele>2332.3</ele>
        <time>2018-02-08T12:12:23Z</time>
      </trkpt>
      <trkpt lat="45.63379" lon="6.64062">
        <ele>2327.01</ele>
        <time>2018-02-08T12:12:26Z</time>
      </trkpt>
      <trkpt lat="45.63379" lon="6.64061">
        <ele>2326.53</ele>
        <time>2018-02-08T12:12:27Z</time>
      </trkpt>
      <trkpt lat="45.63386" lon="6.6406">
        <ele>2323.64</ele>
        <time>2018-02-08T12:12:32Z</time>
      </trkpt>
      <trkpt lat="45.63391" lon="6.64066">
        <ele>2322.2</ele>
        <time>2018-02-08T12:12:36Z</time>
      </trkpt>
      <trkpt lat="45.6339" lon="6.64066">
        <ele>2322.2</ele>
        <time>2018-02-08T12:12:39Z</time>
      </trkpt>
      <trkpt lat="45.634" lon="6.64077">
        <ele>2319.8</ele>
        <time>2018-02-08T12:12:47Z</time>
      </trkpt>
      <trkpt lat="45.63402" lon="6.64069">
        <ele>2315.95</ele>
        <time>2018-02-08T12:12:50Z</time>
      </trkpt>
      <trkpt lat="45.634" lon="6.64064">
        <ele>2314.99</ele>
        <time>2018-02-08T12:12:52Z</time>
      </trkpt>
      <trkpt lat="45.63407" lon="6.64064">
        <ele>2312.11</ele>
        <time>2018-02-08T12:12:57Z</time>
      </trkpt>
      <trkpt lat="45.63407" lon="6.64065">
        <ele>2312.11</ele>
        <time>2018-02-08T12:12:58Z</time>
      </trkpt>
      <trkpt lat="45.63408" lon="6.64067">
        <ele>2312.59</ele>
        <time>2018-02-08T12:13:14Z</time>
      </trkpt>
      <trkpt lat="45.63416" lon="6.64066">
        <ele>2307.78</ele>
        <time>2018-02-08T12:13:19Z</time>
      </trkpt>
      <trkpt lat="45.63415" lon="6.64051">
        <ele>2304.42</ele>
        <time>2018-02-08T12:13:24Z</time>
      </trkpt>
      <trkpt lat="45.63418" lon="6.64055">
        <ele>2302.49</ele>
        <time>2018-02-08T12:13:26Z</time>
      </trkpt>
      <trkpt lat="45.63419" lon="6.64058">
        <ele>2302.01</ele>
        <time>2018-02-08T12:13:27Z</time>
      </trkpt>
      <trkpt lat="45.63422" lon="6.64061">
        <ele>2301.53</ele>
        <time>2018-02-08T12:13:29Z</time>
      </trkpt>
      <trkpt lat="45.63427" lon="6.64052">
        <ele>2297.69</ele>
        <time>2018-02-08T12:13:32Z</time>
      </trkpt>
      <trkpt lat="45.63427" lon="6.64048">
        <ele>2296.25</ele>
        <time>2018-02-08T12:13:34Z</time>
      </trkpt>
      <trkpt lat="45.63435" lon="6.64057">
        <ele>2293.84</ele>
        <time>2018-02-08T12:13:38Z</time>
      </trkpt>
      <trkpt lat="45.63446" lon="6.64079">
        <ele>2291.44</ele>
        <time>2018-02-08T12:13:47Z</time>
      </trkpt>
      <trkpt lat="45.63452" lon="6.64088">
        <ele>2290</ele>
        <time>2018-02-08T12:13:50Z</time>
      </trkpt>
      <trkpt lat="45.63472" lon="6.64101">
        <ele>2287.11</ele>
        <time>2018-02-08T12:13:56Z</time>
      </trkpt>
      <trkpt lat="45.63477" lon="6.64103">
        <ele>2286.15</ele>
        <time>2018-02-08T12:13:58Z</time>
      </trkpt>
      <trkpt lat="45.63478" lon="6.64094">
        <ele>2282.79</ele>
        <time>2018-02-08T12:14:01Z</time>
      </trkpt>
      <trkpt lat="45.63483" lon="6.64083">
        <ele>2279.9</ele>
        <time>2018-02-08T12:14:04Z</time>
      </trkpt>
      <trkpt lat="45.63503" lon="6.64087">
        <ele>2277.02</ele>
        <time>2018-02-08T12:14:14Z</time>
      </trkpt>
      <trkpt lat="45.63509" lon="6.64085">
        <ele>2276.06</ele>
        <time>2018-02-08T12:14:19Z</time>
      </trkpt>
      <trkpt lat="45.63534" lon="6.64098">
        <ele>2273.66</ele>
        <time>2018-02-08T12:14:31Z</time>
      </trkpt>
      <trkpt lat="45.63536" lon="6.64099">
        <ele>2273.66</ele>
        <time>2018-02-08T12:14:32Z</time>
      </trkpt>
      <trkpt lat="45.63538" lon="6.64085">
        <ele>2269.33</ele>
        <time>2018-02-08T12:14:36Z</time>
      </trkpt>
      <trkpt lat="45.63536" lon="6.64081">
        <ele>2269.33</ele>
        <time>2018-02-08T12:14:37Z</time>
      </trkpt>
      <trkpt lat="45.63534" lon="6.64078">
        <ele>2268.85</ele>
        <time>2018-02-08T12:14:38Z</time>
      </trkpt>
      <trkpt lat="45.63525" lon="6.64067">
        <ele>2267.41</ele>
        <time>2018-02-08T12:14:43Z</time>
      </trkpt>
      <trkpt lat="45.63532" lon="6.64064">
        <ele>2266.45</ele>
        <time>2018-02-08T12:14:47Z</time>
      </trkpt>
      <trkpt lat="45.63563" lon="6.64076">
        <ele>2263.08</ele>
        <time>2018-02-08T12:14:57Z</time>
      </trkpt>
      <trkpt lat="45.63573" lon="6.64078">
        <ele>2261.16</ele>
        <time>2018-02-08T12:14:59Z</time>
      </trkpt>
      <trkpt lat="45.63582" lon="6.64078">
        <ele>2260.2</ele>
        <time>2018-02-08T12:15:01Z</time>
      </trkpt>
      <trkpt lat="45.63613" lon="6.64071">
        <ele>2257.31</ele>
        <time>2018-02-08T12:15:12Z</time>
      </trkpt>
      <trkpt lat="45.63639" lon="6.6406">
        <ele>2253.95</ele>
        <time>2018-02-08T12:15:19Z</time>
      </trkpt>
      <trkpt lat="45.63653" lon="6.6405">
        <ele>2252.03</ele>
        <time>2018-02-08T12:15:23Z</time>
      </trkpt>
      <trkpt lat="45.63679" lon="6.64026">
        <ele>2248.66</ele>
        <time>2018-02-08T12:15:32Z</time>
      </trkpt>
      <trkpt lat="45.63684" lon="6.6402">
        <ele>2248.18</ele>
        <time>2018-02-08T12:15:42Z</time>
      </trkpt>
      <trkpt lat="45.63682" lon="6.6402">
        <ele>2248.18</ele>
        <time>2018-02-08T12:15:59Z</time>
      </trkpt>
      <trkpt lat="45.63682" lon="6.64021">
        <ele>2249.14</ele>
        <time>2018-02-08T12:16:14Z</time>
      </trkpt>
      <trkpt lat="45.63682" lon="6.64022">
        <ele>2248.18</ele>
        <time>2018-02-08T12:16:32Z</time>
      </trkpt>
      <trkpt lat="45.63682" lon="6.64023">
        <ele>2248.66</ele>
        <time>2018-02-08T12:16:52Z</time>
      </trkpt>
      <trkpt lat="45.63681" lon="6.64022">
        <ele>2248.18</ele>
        <time>2018-02-08T12:17:15Z</time>
      </trkpt>
      <trkpt lat="45.63682" lon="6.64022">
        <ele>2248.66</ele>
        <time>2018-02-08T12:17:31Z</time>
      </trkpt>
      <trkpt lat="45.63682" lon="6.64022">
        <ele>2248.66</ele>
        <time>2018-02-08T12:17:55Z</time>
      </trkpt>
      <trkpt lat="45.63682" lon="6.64021">
        <ele>2248.18</ele>
        <time>2018-02-08T12:18:09Z</time>
      </trkpt>
      <trkpt lat="45.63688" lon="6.6402">
        <ele>2248.18</ele>
        <time>2018-02-08T12:18:44Z</time>
      </trkpt>
      <trkpt lat="45.63686" lon="6.64022">
        <ele>2248.18</ele>
        <time>2018-02-08T12:19:22Z</time>
      </trkpt>
      <trkpt lat="45.63684" lon="6.64023">
        <ele>2248.66</ele>
        <time>2018-02-08T12:20:12Z</time>
      </trkpt>
      <trkpt lat="45.63686" lon="6.64023">
        <ele>2248.66</ele>
        <time>2018-02-08T12:20:50Z</time>
      </trkpt>
      <trkpt lat="45.63688" lon="6.64023">
        <ele>2248.66</ele>
        <time>2018-02-08T12:21:21Z</time>
      </trkpt>
      <trkpt lat="45.63691" lon="6.64024">
        <ele>2249.14</ele>
        <time>2018-02-08T12:21:42Z</time>
      </trkpt>
      <trkpt lat="45.63687" lon="6.64024">
        <ele>2249.14</ele>
        <time>2018-02-08T12:22:17Z</time>
      </trkpt>
      <trkpt lat="45.63687" lon="6.64026">
        <ele>2249.62</ele>
        <time>2018-02-08T12:22:55Z</time>
      </trkpt>
      <trkpt lat="45.63688" lon="6.64026">
        <ele>2249.62</ele>
        <time>2018-02-08T12:23:31Z</time>
      </trkpt>
      <trkpt lat="45.63686" lon="6.64023">
        <ele>2249.14</ele>
        <time>2018-02-08T12:24:03Z</time>
      </trkpt>
      <trkpt lat="45.63688" lon="6.64021">
        <ele>2249.62</ele>
        <time>2018-02-08T12:24:36Z</time>
      </trkpt>
      <trkpt lat="45.63686" lon="6.64023">
        <ele>2249.62</ele>
        <time>2018-02-08T12:25:02Z</time>
      </trkpt>
      <trkpt lat="45.63686" lon="6.64022">
        <ele>2249.62</ele>
        <time>2018-02-08T12:25:32Z</time>
      </trkpt>
      <trkpt lat="45.63687" lon="6.64022">
        <ele>2250.1</ele>
        <time>2018-02-08T12:25:59Z</time>
      </trkpt>
      <trkpt lat="45.63686" lon="6.64022">
        <ele>2250.1</ele>
        <time>2018-02-08T12:26:17Z</time>
      </trkpt>
      <trkpt lat="45.63685" lon="6.64023">
        <ele>2250.1</ele>
        <time>2018-02-08T12:26:39Z</time>
      </trkpt>
      <trkpt lat="45.63683" lon="6.64022">
        <ele>2250.1</ele>
        <time>2018-02-08T12:27:09Z</time>
      </trkpt>
      <trkpt lat="45.63683" lon="6.64022">
        <ele>2250.58</ele>
        <time>2018-02-08T12:27:46Z</time>
      </trkpt>
      <trkpt lat="45.63684" lon="6.64023">
        <ele>2250.1</ele>
        <time>2018-02-08T12:28:19Z</time>
      </trkpt>
      <trkpt lat="45.63683" lon="6.64023">
        <ele>2250.1</ele>
        <time>2018-02-08T12:28:47Z</time>
      </trkpt>
      <trkpt lat="45.63684" lon="6.64024">
        <ele>2252.03</ele>
        <time>2018-02-08T12:29:30Z</time>
      </trkpt>
      <trkpt lat="45.63682" lon="6.64023">
        <ele>2252.03</ele>
        <time>2018-02-08T12:29:48Z</time>
      </trkpt>
      <trkpt lat="45.63682" lon="6.64023">
        <ele>2252.03</ele>
        <time>2018-02-08T12:30:27Z</time>
      </trkpt>
      <trkpt lat="45.63683" lon="6.64025">
        <ele>2252.99</ele>
        <time>2018-02-08T12:31:04Z</time>
      </trkpt>
      <trkpt lat="45.63688" lon="6.64025">
        <ele>2253.95</ele>
        <time>2018-02-08T12:31:16Z</time>
      </trkpt>
      <trkpt lat="45.63695" lon="6.64023">
        <ele>2255.87</ele>
        <time>2018-02-08T12:31:28Z</time>
      </trkpt>
      <trkpt lat="45.63699" lon="6.64022">
        <ele>2257.79</ele>
        <time>2018-02-08T12:31:42Z</time>
      </trkpt>
      <trkpt lat="45.63703" lon="6.64025">
        <ele>2259.24</ele>
        <time>2018-02-08T12:31:55Z</time>
      </trkpt>
      <trkpt lat="45.63706" lon="6.64027">
        <ele>2259.24</ele>
        <time>2018-02-08T12:32:13Z</time>
      </trkpt>
      <trkpt lat="45.63699" lon="6.64038">
        <ele>2259.72</ele>
        <time>2018-02-08T12:32:26Z</time>
      </trkpt>
      <trkpt lat="45.63693" lon="6.64046">
        <ele>2262.12</ele>
        <time>2018-02-08T12:32:40Z</time>
      </trkpt>
      <trkpt lat="45.63685" lon="6.64058">
        <ele>2264.52</ele>
        <time>2018-02-08T12:33:01Z</time>
      </trkpt>
      <trkpt lat="45.63678" lon="6.64065">
        <ele>2266.45</ele>
        <time>2018-02-08T12:33:15Z</time>
      </trkpt>
      <trkpt lat="45.63672" lon="6.64072">
        <ele>2268.85</ele>
        <time>2018-02-08T12:33:31Z</time>
      </trkpt>
      <trkpt lat="45.63665" lon="6.64081">
        <ele>2270.77</ele>
        <time>2018-02-08T12:33:48Z</time>
      </trkpt>
      <trkpt lat="45.63663" lon="6.64087">
        <ele>2272.69</ele>
        <time>2018-02-08T12:34:01Z</time>
      </trkpt>
      <trkpt lat="45.63666" lon="6.64094">
        <ele>2274.62</ele>
        <time>2018-02-08T12:34:14Z</time>
      </trkpt>
      <trkpt lat="45.63661" lon="6.64103">
        <ele>2276.06</ele>
        <time>2018-02-08T12:34:26Z</time>
      </trkpt>
      <trkpt lat="45.63658" lon="6.64104">
        <ele>2278.46</ele>
        <time>2018-02-08T12:34:40Z</time>
      </trkpt>
      <trkpt lat="45.63648" lon="6.64105">
        <ele>2279.9</ele>
        <time>2018-02-08T12:34:55Z</time>
      </trkpt>
      <trkpt lat="45.63644" lon="6.64109">
        <ele>2280.87</ele>
        <time>2018-02-08T12:35:09Z</time>
      </trkpt>
      <trkpt lat="45.63647" lon="6.64115">
        <ele>2282.79</ele>
        <time>2018-02-08T12:35:19Z</time>
      </trkpt>
      <trkpt lat="45.63644" lon="6.64122">
        <ele>2284.71</ele>
        <time>2018-02-08T12:35:31Z</time>
      </trkpt>
      <trkpt lat="45.6364" lon="6.64131">
        <ele>2286.63</ele>
        <time>2018-02-08T12:35:45Z</time>
      </trkpt>
      <trkpt lat="45.63638" lon="6.64138">
        <ele>2288.56</ele>
        <time>2018-02-08T12:35:58Z</time>
      </trkpt>
      <trkpt lat="45.63635" lon="6.64146">
        <ele>2290.96</ele>
        <time>2018-02-08T12:36:12Z</time>
      </trkpt>
      <trkpt lat="45.63639" lon="6.64156">
        <ele>2292.88</ele>
        <time>2018-02-08T12:36:24Z</time>
      </trkpt>
      <trkpt lat="45.63642" lon="6.64164">
        <ele>2293.36</ele>
        <time>2018-02-08T12:36:37Z</time>
      </trkpt>
      <trkpt lat="45.6365" lon="6.64174">
        <ele>2295.28</ele>
        <time>2018-02-08T12:36:51Z</time>
      </trkpt>
      <trkpt lat="45.63654" lon="6.64184">
        <ele>2296.25</ele>
        <time>2018-02-08T12:37:05Z</time>
      </trkpt>
      <trkpt lat="45.63658" lon="6.64199">
        <ele>2297.69</ele>
        <time>2018-02-08T12:37:20Z</time>
      </trkpt>
      <trkpt lat="45.6366" lon="6.64206">
        <ele>2298.65</ele>
        <time>2018-02-08T12:37:32Z</time>
      </trkpt>
      <trkpt lat="45.63662" lon="6.64223">
        <ele>2300.09</ele>
        <time>2018-02-08T12:37:50Z</time>
      </trkpt>
      <trkpt lat="45.63661" lon="6.64235">
        <ele>2302.01</ele>
        <time>2018-02-08T12:38:01Z</time>
      </trkpt>
      <trkpt lat="45.63659" lon="6.64245">
        <ele>2302.98</ele>
        <time>2018-02-08T12:38:16Z</time>
      </trkpt>
      <trkpt lat="45.63654" lon="6.64256">
        <ele>2304.9</ele>
        <time>2018-02-08T12:38:31Z</time>
      </trkpt>
      <trkpt lat="45.6365" lon="6.64271">
        <ele>2307.78</ele>
        <time>2018-02-08T12:38:49Z</time>
      </trkpt>
      <trkpt lat="45.63649" lon="6.6428">
        <ele>2309.22</ele>
        <time>2018-02-08T12:39:04Z</time>
      </trkpt>
      <trkpt lat="45.63648" lon="6.64294">
        <ele>2310.67</ele>
        <time>2018-02-08T12:39:19Z</time>
      </trkpt>
      <trkpt lat="45.63649" lon="6.64303">
        <ele>2312.59</ele>
        <time>2018-02-08T12:39:32Z</time>
      </trkpt>
      <trkpt lat="45.63645" lon="6.64316">
        <ele>2314.03</ele>
        <time>2018-02-08T12:39:48Z</time>
      </trkpt>
      <trkpt lat="45.63643" lon="6.64329">
        <ele>2315.95</ele>
        <time>2018-02-08T12:40:05Z</time>
      </trkpt>
      <trkpt lat="45.63641" lon="6.64338">
        <ele>2317.4</ele>
        <time>2018-02-08T12:40:21Z</time>
      </trkpt>
      <trkpt lat="45.63641" lon="6.64349">
        <ele>2319.32</ele>
        <time>2018-02-08T12:40:35Z</time>
      </trkpt>
      <trkpt lat="45.63643" lon="6.64364">
        <ele>2321.72</ele>
        <time>2018-02-08T12:40:54Z</time>
      </trkpt>
      <trkpt lat="45.63646" lon="6.64375">
        <ele>2323.64</ele>
        <time>2018-02-08T12:41:09Z</time>
      </trkpt>
      <trkpt lat="45.63648" lon="6.64383">
        <ele>2324.61</ele>
        <time>2018-02-08T12:41:24Z</time>
      </trkpt>
      <trkpt lat="45.6365" lon="6.64392">
        <ele>2326.53</ele>
        <time>2018-02-08T12:41:39Z</time>
      </trkpt>
      <trkpt lat="45.63654" lon="6.64398">
        <ele>2328.45</ele>
        <time>2018-02-08T12:41:51Z</time>
      </trkpt>
      <trkpt lat="45.63653" lon="6.64402">
        <ele>2329.89</ele>
        <time>2018-02-08T12:42:03Z</time>
      </trkpt>
      <trkpt lat="45.63646" lon="6.64403">
        <ele>2330.85</ele>
        <time>2018-02-08T12:42:15Z</time>
      </trkpt>
      <trkpt lat="45.63638" lon="6.64403">
        <ele>2332.78</ele>
        <time>2018-02-08T12:42:31Z</time>
      </trkpt>
      <trkpt lat="45.6363" lon="6.64401">
        <ele>2335.18</ele>
        <time>2018-02-08T12:42:48Z</time>
      </trkpt>
      <trkpt lat="45.63625" lon="6.64407">
        <ele>2337.58</ele>
        <time>2018-02-08T12:43:03Z</time>
      </trkpt>
      <trkpt lat="45.63631" lon="6.64413">
        <ele>2339.02</ele>
        <time>2018-02-08T12:43:17Z</time>
      </trkpt>
      <trkpt lat="45.63636" lon="6.64424">
        <ele>2340.95</ele>
        <time>2018-02-08T12:43:34Z</time>
      </trkpt>
      <trkpt lat="45.63642" lon="6.64431">
        <ele>2341.91</ele>
        <time>2018-02-08T12:43:49Z</time>
      </trkpt>
      <trkpt lat="45.63648" lon="6.6444">
        <ele>2343.83</ele>
        <time>2018-02-08T12:44:05Z</time>
      </trkpt>
      <trkpt lat="45.63652" lon="6.64447">
        <ele>2345.27</ele>
        <time>2018-02-08T12:44:19Z</time>
      </trkpt>
      <trkpt lat="45.63657" lon="6.64457">
        <ele>2347.68</ele>
        <time>2018-02-08T12:44:34Z</time>
      </trkpt>
      <trkpt lat="45.63662" lon="6.64463">
        <ele>2348.64</ele>
        <time>2018-02-08T12:44:49Z</time>
      </trkpt>
      <trkpt lat="45.63665" lon="6.64468">
        <ele>2350.08</ele>
        <time>2018-02-08T12:44:57Z</time>
      </trkpt>
      <trkpt lat="45.6367" lon="6.64474">
        <ele>2351.52</ele>
        <time>2018-02-08T12:45:12Z</time>
      </trkpt>
      <trkpt lat="45.63676" lon="6.64481">
        <ele>2353.93</ele>
        <time>2018-02-08T12:45:29Z</time>
      </trkpt>
      <trkpt lat="45.63673" lon="6.64486">
        <ele>2355.85</ele>
        <time>2018-02-08T12:45:44Z</time>
      </trkpt>
      <trkpt lat="45.63666" lon="6.64489">
        <ele>2357.29</ele>
        <time>2018-02-08T12:45:59Z</time>
      </trkpt>
      <trkpt lat="45.63657" lon="6.64492">
        <ele>2358.25</ele>
        <time>2018-02-08T12:46:14Z</time>
      </trkpt>
      <trkpt lat="45.63656" lon="6.64491">
        <ele>2360.17</ele>
        <time>2018-02-08T12:46:27Z</time>
      </trkpt>
      <trkpt lat="45.63661" lon="6.64499">
        <ele>2360.65</ele>
        <time>2018-02-08T12:46:41Z</time>
      </trkpt>
      <trkpt lat="45.63669" lon="6.64507">
        <ele>2362.58</ele>
        <time>2018-02-08T12:46:58Z</time>
      </trkpt>
      <trkpt lat="45.63673" lon="6.64513">
        <ele>2364.5</ele>
        <time>2018-02-08T12:47:09Z</time>
      </trkpt>
      <trkpt lat="45.6368" lon="6.64516">
        <ele>2365.46</ele>
        <time>2018-02-08T12:47:23Z</time>
      </trkpt>
      <trkpt lat="45.63681" lon="6.64522">
        <ele>2366.9</ele>
        <time>2018-02-08T12:47:37Z</time>
      </trkpt>
      <trkpt lat="45.63677" lon="6.6453">
        <ele>2369.31</ele>
        <time>2018-02-08T12:47:54Z</time>
      </trkpt>
      <trkpt lat="45.63682" lon="6.64536">
        <ele>2370.75</ele>
        <time>2018-02-08T12:48:07Z</time>
      </trkpt>
      <trkpt lat="45.63689" lon="6.64535">
        <ele>2372.67</ele>
        <time>2018-02-08T12:48:22Z</time>
      </trkpt>
      <trkpt lat="45.63696" lon="6.64535">
        <ele>2374.59</ele>
        <time>2018-02-08T12:48:40Z</time>
      </trkpt>
      <trkpt lat="45.63699" lon="6.64544">
        <ele>2375.55</ele>
        <time>2018-02-08T12:48:52Z</time>
      </trkpt>
      <trkpt lat="45.63701" lon="6.64554">
        <ele>2376.52</ele>
        <time>2018-02-08T12:49:06Z</time>
      </trkpt>
      <trkpt lat="45.63702" lon="6.64558">
        <ele>2378.44</ele>
        <time>2018-02-08T12:49:19Z</time>
      </trkpt>
      <trkpt lat="45.6371" lon="6.64553">
        <ele>2379.4</ele>
        <time>2018-02-08T12:49:36Z</time>
      </trkpt>
      <trkpt lat="45.63718" lon="6.64551">
        <ele>2380.36</ele>
        <time>2018-02-08T12:49:50Z</time>
      </trkpt>
      <trkpt lat="45.63725" lon="6.64551">
        <ele>2382.76</ele>
        <time>2018-02-08T12:50:04Z</time>
      </trkpt>
      <trkpt lat="45.6373" lon="6.6455">
        <ele>2383.73</ele>
        <time>2018-02-08T12:50:22Z</time>
      </trkpt>
      <trkpt lat="45.63736" lon="6.64551">
        <ele>2384.69</ele>
        <time>2018-02-08T12:50:35Z</time>
      </trkpt>
      <trkpt lat="45.63744" lon="6.64549">
        <ele>2386.13</ele>
        <time>2018-02-08T12:50:52Z</time>
      </trkpt>
      <trkpt lat="45.63748" lon="6.64552">
        <ele>2387.09</ele>
        <time>2018-02-08T12:51:03Z</time>
      </trkpt>
      <trkpt lat="45.6375" lon="6.6456">
        <ele>2389.01</ele>
        <time>2018-02-08T12:51:15Z</time>
      </trkpt>
      <trkpt lat="45.63752" lon="6.64558">
        <ele>2389.97</ele>
        <time>2018-02-08T12:51:25Z</time>
      </trkpt>
      <trkpt lat="45.63757" lon="6.64554">
        <ele>2391.42</ele>
        <time>2018-02-08T12:51:39Z</time>
      </trkpt>
      <trkpt lat="45.63759" lon="6.64555">
        <ele>2391.9</ele>
        <time>2018-02-08T12:51:44Z</time>
      </trkpt>
      <trkpt lat="45.63762" lon="6.6456">
        <ele>2393.82</ele>
        <time>2018-02-08T12:51:57Z</time>
      </trkpt>
      <trkpt lat="45.63765" lon="6.64565">
        <ele>2395.26</ele>
        <time>2018-02-08T12:52:10Z</time>
      </trkpt>
      <trkpt lat="45.63766" lon="6.64562">
        <ele>2396.7</ele>
        <time>2018-02-08T12:52:22Z</time>
      </trkpt>
      <trkpt lat="45.63771" lon="6.64564">
        <ele>2398.63</ele>
        <time>2018-02-08T12:52:36Z</time>
      </trkpt>
      <trkpt lat="45.63773" lon="6.6457">
        <ele>2400.07</ele>
        <time>2018-02-08T12:52:50Z</time>
      </trkpt>
      <trkpt lat="45.63774" lon="6.64577">
        <ele>2401.99</ele>
        <time>2018-02-08T12:53:01Z</time>
      </trkpt>
      <trkpt lat="45.63776" lon="6.6458">
        <ele>2403.43</ele>
        <time>2018-02-08T12:53:12Z</time>
      </trkpt>
      <trkpt lat="45.63783" lon="6.64575">
        <ele>2404.88</ele>
        <time>2018-02-08T12:53:27Z</time>
      </trkpt>
      <trkpt lat="45.6379" lon="6.64575">
        <ele>2405.36</ele>
        <time>2018-02-08T12:53:40Z</time>
      </trkpt>
      <trkpt lat="45.63794" lon="6.64578">
        <ele>2406.8</ele>
        <time>2018-02-08T12:53:56Z</time>
      </trkpt>
      <trkpt lat="45.63794" lon="6.64585">
        <ele>2408.72</ele>
        <time>2018-02-08T12:54:11Z</time>
      </trkpt>
      <trkpt lat="45.63796" lon="6.64597">
        <ele>2410.64</ele>
        <time>2018-02-08T12:54:27Z</time>
      </trkpt>
      <trkpt lat="45.63796" lon="6.6459">
        <ele>2411.6</ele>
        <time>2018-02-08T12:54:40Z</time>
      </trkpt>
      <trkpt lat="45.63801" lon="6.64588">
        <ele>2413.53</ele>
        <time>2018-02-08T12:54:57Z</time>
      </trkpt>
      <trkpt lat="45.638" lon="6.64594">
        <ele>2414.97</ele>
        <time>2018-02-08T12:55:10Z</time>
      </trkpt>
      <trkpt lat="45.63798" lon="6.64606">
        <ele>2416.41</ele>
        <time>2018-02-08T12:55:26Z</time>
      </trkpt>
      <trkpt lat="45.638" lon="6.64601">
        <ele>2416.41</ele>
        <time>2018-02-08T12:55:39Z</time>
      </trkpt>
      <trkpt lat="45.63807" lon="6.64594">
        <ele>2418.81</ele>
        <time>2018-02-08T12:55:54Z</time>
      </trkpt>
      <trkpt lat="45.6381" lon="6.64599">
        <ele>2420.26</ele>
        <time>2018-02-08T12:56:08Z</time>
      </trkpt>
      <trkpt lat="45.63809" lon="6.64607">
        <ele>2421.22</ele>
        <time>2018-02-08T12:56:22Z</time>
      </trkpt>
      <trkpt lat="45.63808" lon="6.64618">
        <ele>2422.66</ele>
        <time>2018-02-08T12:56:36Z</time>
      </trkpt>
      <trkpt lat="45.63809" lon="6.64617">
        <ele>2423.62</ele>
        <time>2018-02-08T12:56:49Z</time>
      </trkpt>
      <trkpt lat="45.63816" lon="6.64608">
        <ele>2425.06</ele>
        <time>2018-02-08T12:57:03Z</time>
      </trkpt>
      <trkpt lat="45.63823" lon="6.64604">
        <ele>2425.06</ele>
        <time>2018-02-08T12:57:15Z</time>
      </trkpt>
      <trkpt lat="45.63828" lon="6.64607">
        <ele>2426.5</ele>
        <time>2018-02-08T12:57:27Z</time>
      </trkpt>
      <trkpt lat="45.63824" lon="6.64612">
        <ele>2426.99</ele>
        <time>2018-02-08T12:57:40Z</time>
      </trkpt>
      <trkpt lat="45.63821" lon="6.64618">
        <ele>2428.91</ele>
        <time>2018-02-08T12:57:53Z</time>
      </trkpt>
      <trkpt lat="45.6382" lon="6.64633">
        <ele>2430.35</ele>
        <time>2018-02-08T12:58:10Z</time>
      </trkpt>
      <trkpt lat="45.63822" lon="6.64628">
        <ele>2430.83</ele>
        <time>2018-02-08T12:58:21Z</time>
      </trkpt>
      <trkpt lat="45.63828" lon="6.64622">
        <ele>2433.23</ele>
        <time>2018-02-08T12:58:37Z</time>
      </trkpt>
      <trkpt lat="45.63834" lon="6.64618">
        <ele>2434.68</ele>
        <time>2018-02-08T12:58:49Z</time>
      </trkpt>
      <trkpt lat="45.63838" lon="6.64621">
        <ele>2435.64</ele>
        <time>2018-02-08T12:59:04Z</time>
      </trkpt>
      <trkpt lat="45.63836" lon="6.64631">
        <ele>2438.04</ele>
        <time>2018-02-08T12:59:18Z</time>
      </trkpt>
      <trkpt lat="45.63835" lon="6.64641">
        <ele>2439.48</ele>
        <time>2018-02-08T12:59:34Z</time>
      </trkpt>
      <trkpt lat="45.63834" lon="6.64645">
        <ele>2440.44</ele>
        <time>2018-02-08T12:59:47Z</time>
      </trkpt>
      <trkpt lat="45.6384" lon="6.64644">
        <ele>2441.41</ele>
        <time>2018-02-08T13:00:03Z</time>
      </trkpt>
      <trkpt lat="45.63846" lon="6.64644">
        <ele>2443.81</ele>
        <time>2018-02-08T13:00:16Z</time>
      </trkpt>
      <trkpt lat="45.63851" lon="6.64645">
        <ele>2445.25</ele>
        <time>2018-02-08T13:00:30Z</time>
      </trkpt>
      <trkpt lat="45.63857" lon="6.64651">
        <ele>2445.73</ele>
        <time>2018-02-08T13:00:45Z</time>
      </trkpt>
      <trkpt lat="45.63858" lon="6.6466">
        <ele>2447.17</ele>
        <time>2018-02-08T13:01:02Z</time>
      </trkpt>
      <trkpt lat="45.6385" lon="6.64666">
        <ele>2449.1</ele>
        <time>2018-02-08T13:01:15Z</time>
      </trkpt>
      <trkpt lat="45.63845" lon="6.6467">
        <ele>2451.5</ele>
        <time>2018-02-08T13:01:31Z</time>
      </trkpt>
      <trkpt lat="45.63844" lon="6.64678">
        <ele>2452.46</ele>
        <time>2018-02-08T13:01:47Z</time>
      </trkpt>
      <trkpt lat="45.63847" lon="6.64687">
        <ele>2454.86</ele>
        <time>2018-02-08T13:02:00Z</time>
      </trkpt>
      <trkpt lat="45.63851" lon="6.64685">
        <ele>2456.31</ele>
        <time>2018-02-08T13:02:14Z</time>
      </trkpt>
      <trkpt lat="45.63858" lon="6.64688">
        <ele>2458.23</ele>
        <time>2018-02-08T13:02:30Z</time>
      </trkpt>
      <trkpt lat="45.63856" lon="6.64692">
        <ele>2460.15</ele>
        <time>2018-02-08T13:02:41Z</time>
      </trkpt>
      <trkpt lat="45.63857" lon="6.64701">
        <ele>2461.11</ele>
        <time>2018-02-08T13:02:57Z</time>
      </trkpt>
      <trkpt lat="45.63861" lon="6.64698">
        <ele>2463.04</ele>
        <time>2018-02-08T13:03:10Z</time>
      </trkpt>
      <trkpt lat="45.63866" lon="6.64694">
        <ele>2464.48</ele>
        <time>2018-02-08T13:03:25Z</time>
      </trkpt>
      <trkpt lat="45.63869" lon="6.64699">
        <ele>2465.92</ele>
        <time>2018-02-08T13:03:39Z</time>
      </trkpt>
      <trkpt lat="45.63871" lon="6.64701">
        <ele>2465.92</ele>
        <time>2018-02-08T13:03:54Z</time>
      </trkpt>
      <trkpt lat="45.63877" lon="6.64706">
        <ele>2468.32</ele>
        <time>2018-02-08T13:04:08Z</time>
      </trkpt>
      <trkpt lat="45.63874" lon="6.64708">
        <ele>2468.8</ele>
        <time>2018-02-08T13:04:19Z</time>
      </trkpt>
      <trkpt lat="45.6387" lon="6.64715">
        <ele>2470.73</ele>
        <time>2018-02-08T13:04:36Z</time>
      </trkpt>
      <trkpt lat="45.63866" lon="6.64721">
        <ele>2472.65</ele>
        <time>2018-02-08T13:04:49Z</time>
      </trkpt>
      <trkpt lat="45.63865" lon="6.64731">
        <ele>2474.09</ele>
        <time>2018-02-08T13:05:05Z</time>
      </trkpt>
      <trkpt lat="45.63867" lon="6.64734">
        <ele>2475.53</ele>
        <time>2018-02-08T13:05:19Z</time>
      </trkpt>
      <trkpt lat="45.6387" lon="6.64732">
        <ele>2476.97</ele>
        <time>2018-02-08T13:05:32Z</time>
      </trkpt>
      <trkpt lat="45.63875" lon="6.6473">
        <ele>2478.42</ele>
        <time>2018-02-08T13:05:47Z</time>
      </trkpt>
      <trkpt lat="45.63875" lon="6.6473">
        <ele>2478.9</ele>
        <time>2018-02-08T13:05:48Z</time>
      </trkpt>
      <trkpt lat="45.63882" lon="6.64732">
        <ele>2480.34</ele>
        <time>2018-02-08T13:06:04Z</time>
      </trkpt>
      <trkpt lat="45.6389" lon="6.64734">
        <ele>2481.3</ele>
        <time>2018-02-08T13:06:18Z</time>
      </trkpt>
      <trkpt lat="45.63897" lon="6.64735">
        <ele>2483.7</ele>
        <time>2018-02-08T13:06:35Z</time>
      </trkpt>
      <trkpt lat="45.63905" lon="6.64735">
        <ele>2485.15</ele>
        <time>2018-02-08T13:06:50Z</time>
      </trkpt>
      <trkpt lat="45.63907" lon="6.64738">
        <ele>2487.07</ele>
        <time>2018-02-08T13:07:04Z</time>
      </trkpt>
      <trkpt lat="45.63902" lon="6.64742">
        <ele>2488.03</ele>
        <time>2018-02-08T13:07:20Z</time>
      </trkpt>
      <trkpt lat="45.63897" lon="6.64747">
        <ele>2489.47</ele>
        <time>2018-02-08T13:07:33Z</time>
      </trkpt>
      <trkpt lat="45.63898" lon="6.64748">
        <ele>2490.91</ele>
        <time>2018-02-08T13:07:46Z</time>
      </trkpt>
      <trkpt lat="45.63905" lon="6.64751">
        <ele>2491.87</ele>
        <time>2018-02-08T13:08:02Z</time>
      </trkpt>
      <trkpt lat="45.63911" lon="6.64751">
        <ele>2493.8</ele>
        <time>2018-02-08T13:08:17Z</time>
      </trkpt>
      <trkpt lat="45.63911" lon="6.64754">
        <ele>2494.76</ele>
        <time>2018-02-08T13:08:29Z</time>
      </trkpt>
      <trkpt lat="45.63906" lon="6.64759">
        <ele>2497.16</ele>
        <time>2018-02-08T13:08:43Z</time>
      </trkpt>
      <trkpt lat="45.63905" lon="6.64769">
        <ele>2499.08</ele>
        <time>2018-02-08T13:08:58Z</time>
      </trkpt>
      <trkpt lat="45.63912" lon="6.64767">
        <ele>2501.01</ele>
        <time>2018-02-08T13:09:12Z</time>
      </trkpt>
      <trkpt lat="45.63913" lon="6.6477">
        <ele>2501.49</ele>
        <time>2018-02-08T13:09:24Z</time>
      </trkpt>
      <trkpt lat="45.6391" lon="6.64779">
        <ele>2502.93</ele>
        <time>2018-02-08T13:09:38Z</time>
      </trkpt>
      <trkpt lat="45.63906" lon="6.64789">
        <ele>2504.37</ele>
        <time>2018-02-08T13:09:54Z</time>
      </trkpt>
      <trkpt lat="45.63904" lon="6.64795">
        <ele>2505.33</ele>
        <time>2018-02-08T13:10:08Z</time>
      </trkpt>
      <trkpt lat="45.63905" lon="6.64796">
        <ele>2505.81</ele>
        <time>2018-02-08T13:10:32Z</time>
      </trkpt>
      <trkpt lat="45.63905" lon="6.64794">
        <ele>2505.81</ele>
        <time>2018-02-08T13:10:51Z</time>
      </trkpt>
      <trkpt lat="45.63904" lon="6.64797">
        <ele>2505.33</ele>
        <time>2018-02-08T13:11:10Z</time>
      </trkpt>
      <trkpt lat="45.63904" lon="6.64798">
        <ele>2505.33</ele>
        <time>2018-02-08T13:11:27Z</time>
      </trkpt>
      <trkpt lat="45.63903" lon="6.64797">
        <ele>2505.33</ele>
        <time>2018-02-08T13:11:41Z</time>
      </trkpt>
      <trkpt lat="45.63905" lon="6.64808">
        <ele>2506.77</ele>
        <time>2018-02-08T13:11:54Z</time>
      </trkpt>
      <trkpt lat="45.63909" lon="6.6482">
        <ele>2508.22</ele>
        <time>2018-02-08T13:12:09Z</time>
      </trkpt>
      <trkpt lat="45.63911" lon="6.64817">
        <ele>2509.66</ele>
        <time>2018-02-08T13:12:19Z</time>
      </trkpt>
      <trkpt lat="45.63914" lon="6.6481">
        <ele>2511.1</ele>
        <time>2018-02-08T13:12:33Z</time>
      </trkpt>
      <trkpt lat="45.63917" lon="6.64806">
        <ele>2513.5</ele>
        <time>2018-02-08T13:12:46Z</time>
      </trkpt>
      <trkpt lat="45.63921" lon="6.64809">
        <ele>2514.47</ele>
        <time>2018-02-08T13:13:00Z</time>
      </trkpt>
      <trkpt lat="45.63924" lon="6.64818">
        <ele>2516.39</ele>
        <time>2018-02-08T13:13:13Z</time>
      </trkpt>
      <trkpt lat="45.63927" lon="6.64827">
        <ele>2518.79</ele>
        <time>2018-02-08T13:13:27Z</time>
      </trkpt>
      <trkpt lat="45.63931" lon="6.64836">
        <ele>2520.23</ele>
        <time>2018-02-08T13:13:43Z</time>
      </trkpt>
      <trkpt lat="45.63933" lon="6.6484">
        <ele>2519.27</ele>
        <time>2018-02-08T13:13:49Z</time>
      </trkpt>
      <trkpt lat="45.63941" lon="6.64857">
        <ele>2518.79</ele>
        <time>2018-02-08T13:14:05Z</time>
      </trkpt>
      <trkpt lat="45.63945" lon="6.64866">
        <ele>2519.75</ele>
        <time>2018-02-08T13:14:19Z</time>
      </trkpt>
      <trkpt lat="45.63945" lon="6.64868">
        <ele>2519.75</ele>
        <time>2018-02-08T13:14:39Z</time>
      </trkpt>
      <trkpt lat="45.63945" lon="6.64878">
        <ele>2520.71</ele>
        <time>2018-02-08T13:14:52Z</time>
      </trkpt>
      <trkpt lat="45.63948" lon="6.64893">
        <ele>2521.68</ele>
        <time>2018-02-08T13:15:08Z</time>
      </trkpt>
      <trkpt lat="45.63953" lon="6.64905">
        <ele>2522.16</ele>
        <time>2018-02-08T13:15:23Z</time>
      </trkpt>
      <trkpt lat="45.63954" lon="6.64914">
        <ele>2523.6</ele>
        <time>2018-02-08T13:15:36Z</time>
      </trkpt>
      <trkpt lat="45.63956" lon="6.6492">
        <ele>2525.04</ele>
        <time>2018-02-08T13:15:48Z</time>
      </trkpt>
      <trkpt lat="45.63957" lon="6.64927">
        <ele>2527.44</ele>
        <time>2018-02-08T13:16:02Z</time>
      </trkpt>
      <trkpt lat="45.63958" lon="6.64934">
        <ele>2528.89</ele>
        <time>2018-02-08T13:16:16Z</time>
      </trkpt>
      <trkpt lat="45.63958" lon="6.64935">
        <ele>2529.37</ele>
        <time>2018-02-08T13:16:29Z</time>
      </trkpt>
      <trkpt lat="45.63959" lon="6.64941">
        <ele>2530.81</ele>
        <time>2018-02-08T13:16:46Z</time>
      </trkpt>
      <trkpt lat="45.63961" lon="6.64945">
        <ele>2531.77</ele>
        <time>2018-02-08T13:16:59Z</time>
      </trkpt>
      <trkpt lat="45.63961" lon="6.64954">
        <ele>2534.17</ele>
        <time>2018-02-08T13:17:12Z</time>
      </trkpt>
      <trkpt lat="45.63962" lon="6.64966">
        <ele>2533.69</ele>
        <time>2018-02-08T13:17:26Z</time>
      </trkpt>
      <trkpt lat="45.63957" lon="6.6498">
        <ele>2533.69</ele>
        <time>2018-02-08T13:17:42Z</time>
      </trkpt>
      <trkpt lat="45.63953" lon="6.65">
        <ele>2533.21</ele>
        <time>2018-02-08T13:18:02Z</time>
      </trkpt>
      <trkpt lat="45.6395" lon="6.65012">
        <ele>2533.69</ele>
        <time>2018-02-08T13:18:15Z</time>
      </trkpt>
      <trkpt lat="45.63944" lon="6.65019">
        <ele>2535.13</ele>
        <time>2018-02-08T13:18:29Z</time>
      </trkpt>
      <trkpt lat="45.63935" lon="6.65025">
        <ele>2536.1</ele>
        <time>2018-02-08T13:18:44Z</time>
      </trkpt>
      <trkpt lat="45.63925" lon="6.65026">
        <ele>2536.58</ele>
        <time>2018-02-08T13:18:59Z</time>
      </trkpt>
      <trkpt lat="45.63918" lon="6.65022">
        <ele>2537.06</ele>
        <time>2018-02-08T13:19:13Z</time>
      </trkpt>
      <trkpt lat="45.63907" lon="6.65023">
        <ele>2538.5</ele>
        <time>2018-02-08T13:19:33Z</time>
      </trkpt>
      <trkpt lat="45.63902" lon="6.65025">
        <ele>2540.42</ele>
        <time>2018-02-08T13:19:47Z</time>
      </trkpt>
      <trkpt lat="45.63908" lon="6.65032">
        <ele>2542.34</ele>
        <time>2018-02-08T13:20:03Z</time>
      </trkpt>
      <trkpt lat="45.63914" lon="6.65039">
        <ele>2544.27</ele>
        <time>2018-02-08T13:20:19Z</time>
      </trkpt>
      <trkpt lat="45.63918" lon="6.65044">
        <ele>2545.23</ele>
        <time>2018-02-08T13:20:29Z</time>
      </trkpt>
      <trkpt lat="45.63908" lon="6.65047">
        <ele>2546.19</ele>
        <time>2018-02-08T13:20:44Z</time>
      </trkpt>
      <trkpt lat="45.63901" lon="6.65048">
        <ele>2547.63</ele>
        <time>2018-02-08T13:20:58Z</time>
      </trkpt>
      <trkpt lat="45.63901" lon="6.65049">
        <ele>2549.07</ele>
        <time>2018-02-08T13:21:13Z</time>
      </trkpt>
      <trkpt lat="45.63905" lon="6.65054">
        <ele>2549.55</ele>
        <time>2018-02-08T13:21:24Z</time>
      </trkpt>
      <trkpt lat="45.63909" lon="6.65058">
        <ele>2551.48</ele>
        <time>2018-02-08T13:21:36Z</time>
      </trkpt>
      <trkpt lat="45.63914" lon="6.65064">
        <ele>2552.92</ele>
        <time>2018-02-08T13:21:50Z</time>
      </trkpt>
      <trkpt lat="45.6392" lon="6.65067">
        <ele>2554.84</ele>
        <time>2018-02-08T13:22:04Z</time>
      </trkpt>
      <trkpt lat="45.63917" lon="6.6507">
        <ele>2555.32</ele>
        <time>2018-02-08T13:22:17Z</time>
      </trkpt>
      <trkpt lat="45.63911" lon="6.65073">
        <ele>2556.28</ele>
        <time>2018-02-08T13:22:32Z</time>
      </trkpt>
      <trkpt lat="45.63906" lon="6.65077">
        <ele>2557.73</ele>
        <time>2018-02-08T13:22:46Z</time>
      </trkpt>
      <trkpt lat="45.63899" lon="6.6508">
        <ele>2559.65</ele>
        <time>2018-02-08T13:23:01Z</time>
      </trkpt>
      <trkpt lat="45.63898" lon="6.65081">
        <ele>2560.13</ele>
        <time>2018-02-08T13:23:04Z</time>
      </trkpt>
      <trkpt lat="45.63892" lon="6.65082">
        <ele>2561.57</ele>
        <time>2018-02-08T13:23:19Z</time>
      </trkpt>
      <trkpt lat="45.63899" lon="6.6508">
        <ele>2562.05</ele>
        <time>2018-02-08T13:23:37Z</time>
      </trkpt>
      <trkpt lat="45.63903" lon="6.65085">
        <ele>2563.49</ele>
        <time>2018-02-08T13:23:52Z</time>
      </trkpt>
      <trkpt lat="45.63909" lon="6.65091">
        <ele>2564.45</ele>
        <time>2018-02-08T13:24:08Z</time>
      </trkpt>
      <trkpt lat="45.63915" lon="6.65095">
        <ele>2566.86</ele>
        <time>2018-02-08T13:24:22Z</time>
      </trkpt>
      <trkpt lat="45.63917" lon="6.65097">
        <ele>2567.82</ele>
        <time>2018-02-08T13:24:34Z</time>
      </trkpt>
      <trkpt lat="45.63914" lon="6.651">
        <ele>2568.78</ele>
        <time>2018-02-08T13:24:48Z</time>
      </trkpt>
      <trkpt lat="45.63908" lon="6.65104">
        <ele>2569.26</ele>
        <time>2018-02-08T13:25:00Z</time>
      </trkpt>
      <trkpt lat="45.63906" lon="6.65105">
        <ele>2569.74</ele>
        <time>2018-02-08T13:25:16Z</time>
      </trkpt>
      <trkpt lat="45.63907" lon="6.65107">
        <ele>2569.74</ele>
        <time>2018-02-08T13:25:38Z</time>
      </trkpt>
      <trkpt lat="45.63906" lon="6.65101">
        <ele>2569.74</ele>
        <time>2018-02-08T13:26:04Z</time>
      </trkpt>
      <trkpt lat="45.63908" lon="6.65103">
        <ele>2570.22</ele>
        <time>2018-02-08T13:26:20Z</time>
      </trkpt>
      <trkpt lat="45.63906" lon="6.65111">
        <ele>2569.26</ele>
        <time>2018-02-08T13:26:41Z</time>
      </trkpt>
      <trkpt lat="45.63904" lon="6.65116">
        <ele>2569.26</ele>
        <time>2018-02-08T13:27:11Z</time>
      </trkpt>
      <trkpt lat="45.63901" lon="6.65112">
        <ele>2569.26</ele>
        <time>2018-02-08T13:27:36Z</time>
      </trkpt>
      <trkpt lat="45.6391" lon="6.65109">
        <ele>2570.22</ele>
        <time>2018-02-08T13:27:59Z</time>
      </trkpt>
      <trkpt lat="45.6391" lon="6.6511">
        <ele>2569.74</ele>
        <time>2018-02-08T13:28:21Z</time>
      </trkpt>
      <trkpt lat="45.6391" lon="6.65098">
        <ele>2569.74</ele>
        <time>2018-02-08T13:28:44Z</time>
      </trkpt>
      <trkpt lat="45.63901" lon="6.65097">
        <ele>2569.26</ele>
        <time>2018-02-08T13:29:12Z</time>
      </trkpt>
      <trkpt lat="45.63902" lon="6.65106">
        <ele>2569.74</ele>
        <time>2018-02-08T13:29:36Z</time>
      </trkpt>
      <trkpt lat="45.63901" lon="6.65105">
        <ele>2569.74</ele>
        <time>2018-02-08T13:29:57Z</time>
      </trkpt>
      <trkpt lat="45.63907" lon="6.65105">
        <ele>2569.74</ele>
        <time>2018-02-08T13:30:20Z</time>
      </trkpt>
      <trkpt lat="45.63913" lon="6.65095">
        <ele>2569.74</ele>
        <time>2018-02-08T13:30:40Z</time>
      </trkpt>
      <trkpt lat="45.63915" lon="6.6509">
        <ele>2569.74</ele>
        <time>2018-02-08T13:30:59Z</time>
      </trkpt>
      <trkpt lat="45.63897" lon="6.65096">
        <ele>2569.26</ele>
        <time>2018-02-08T13:31:16Z</time>
      </trkpt>
      <trkpt lat="45.63904" lon="6.65098">
        <ele>2569.74</ele>
        <time>2018-02-08T13:31:38Z</time>
      </trkpt>
      <trkpt lat="45.63906" lon="6.65097">
        <ele>2569.74</ele>
        <time>2018-02-08T13:32:01Z</time>
      </trkpt>
      <trkpt lat="45.63909" lon="6.65099">
        <ele>2569.26</ele>
        <time>2018-02-08T13:32:22Z</time>
      </trkpt>
      <trkpt lat="45.63897" lon="6.65104">
        <ele>2569.26</ele>
        <time>2018-02-08T13:32:44Z</time>
      </trkpt>
      <trkpt lat="45.63898" lon="6.65103">
        <ele>2568.78</ele>
        <time>2018-02-08T13:33:10Z</time>
      </trkpt>
      <trkpt lat="45.63905" lon="6.65104">
        <ele>2570.22</ele>
        <time>2018-02-08T13:33:33Z</time>
      </trkpt>
      <trkpt lat="45.63905" lon="6.65106">
        <ele>2570.22</ele>
        <time>2018-02-08T13:33:57Z</time>
      </trkpt>
      <trkpt lat="45.63904" lon="6.65106">
        <ele>2570.22</ele>
        <time>2018-02-08T13:34:18Z</time>
      </trkpt>
      <trkpt lat="45.63905" lon="6.65106">
        <ele>2570.7</ele>
        <time>2018-02-08T13:34:32Z</time>
      </trkpt>
      <trkpt lat="45.63899" lon="6.65104">
        <ele>2570.7</ele>
        <time>2018-02-08T13:34:43Z</time>
      </trkpt>
      <trkpt lat="45.63893" lon="6.65105">
        <ele>2572.14</ele>
        <time>2018-02-08T13:34:58Z</time>
      </trkpt>
      <trkpt lat="45.63894" lon="6.65109">
        <ele>2572.63</ele>
        <time>2018-02-08T13:35:12Z</time>
      </trkpt>
      <trkpt lat="45.63887" lon="6.65107">
        <ele>2573.11</ele>
        <time>2018-02-08T13:35:33Z</time>
      </trkpt>
      <trkpt lat="45.63889" lon="6.65111">
        <ele>2574.55</ele>
        <time>2018-02-08T13:35:46Z</time>
      </trkpt>
      <trkpt lat="45.63899" lon="6.65116">
        <ele>2575.51</ele>
        <time>2018-02-08T13:36:04Z</time>
      </trkpt>
      <trkpt lat="45.63898" lon="6.65116">
        <ele>2575.99</ele>
        <time>2018-02-08T13:36:22Z</time>
      </trkpt>
      <trkpt lat="45.63906" lon="6.65119">
        <ele>2577.43</ele>
        <time>2018-02-08T13:36:37Z</time>
      </trkpt>
      <trkpt lat="45.63907" lon="6.65118">
        <ele>2578.39</ele>
        <time>2018-02-08T13:36:53Z</time>
      </trkpt>
      <trkpt lat="45.6391" lon="6.6512">
        <ele>2579.35</ele>
        <time>2018-02-08T13:37:10Z</time>
      </trkpt>
      <trkpt lat="45.63911" lon="6.65121">
        <ele>2578.87</ele>
        <time>2018-02-08T13:37:31Z</time>
      </trkpt>
      <trkpt lat="45.63912" lon="6.65121">
        <ele>2579.84</ele>
        <time>2018-02-08T13:37:49Z</time>
      </trkpt>
      <trkpt lat="45.63914" lon="6.65121">
        <ele>2579.35</ele>
        <time>2018-02-08T13:38:08Z</time>
      </trkpt>
      <trkpt lat="45.63915" lon="6.65121">
        <ele>2579.35</ele>
        <time>2018-02-08T13:38:29Z</time>
      </trkpt>
      <trkpt lat="45.63918" lon="6.65121">
        <ele>2579.84</ele>
        <time>2018-02-08T13:38:49Z</time>
      </trkpt>
      <trkpt lat="45.63917" lon="6.65122">
        <ele>2580.32</ele>
        <time>2018-02-08T13:39:10Z</time>
      </trkpt>
      <trkpt lat="45.63918" lon="6.65122">
        <ele>2580.32</ele>
        <time>2018-02-08T13:39:30Z</time>
      </trkpt>
      <trkpt lat="45.63919" lon="6.65121">
        <ele>2580.32</ele>
        <time>2018-02-08T13:39:45Z</time>
      </trkpt>
      <trkpt lat="45.6392" lon="6.65119">
        <ele>2579.84</ele>
        <time>2018-02-08T13:40:04Z</time>
      </trkpt>
      <trkpt lat="45.63919" lon="6.65126">
        <ele>2580.32</ele>
        <time>2018-02-08T13:40:17Z</time>
      </trkpt>
      <trkpt lat="45.63914" lon="6.65131">
        <ele>2582.24</ele>
        <time>2018-02-08T13:40:29Z</time>
      </trkpt>
      <trkpt lat="45.63912" lon="6.65133">
        <ele>2582.72</ele>
        <time>2018-02-08T13:40:44Z</time>
      </trkpt>
      <trkpt lat="45.63913" lon="6.65133">
        <ele>2582.24</ele>
        <time>2018-02-08T13:41:02Z</time>
      </trkpt>
      <trkpt lat="45.63913" lon="6.6513">
        <ele>2581.76</ele>
        <time>2018-02-08T13:41:14Z</time>
      </trkpt>
      <trkpt lat="45.63913" lon="6.65128">
        <ele>2581.28</ele>
        <time>2018-02-08T13:41:31Z</time>
      </trkpt>
      <trkpt lat="45.63912" lon="6.65133">
        <ele>2581.28</ele>
        <time>2018-02-08T13:41:44Z</time>
      </trkpt>
      <trkpt lat="45.6391" lon="6.6513">
        <ele>2581.28</ele>
        <time>2018-02-08T13:42:18Z</time>
      </trkpt>
      <trkpt lat="45.63912" lon="6.65131">
        <ele>2580.8</ele>
        <time>2018-02-08T13:43:02Z</time>
      </trkpt>
      <trkpt lat="45.6391" lon="6.65131">
        <ele>2580.8</ele>
        <time>2018-02-08T13:43:45Z</time>
      </trkpt>
      <trkpt lat="45.63912" lon="6.65132">
        <ele>2580.32</ele>
        <time>2018-02-08T13:44:26Z</time>
      </trkpt>
      <trkpt lat="45.63911" lon="6.65132">
        <ele>2580.32</ele>
        <time>2018-02-08T13:45:05Z</time>
      </trkpt>
      <trkpt lat="45.63913" lon="6.65131">
        <ele>2579.84</ele>
        <time>2018-02-08T13:45:43Z</time>
      </trkpt>
      <trkpt lat="45.63914" lon="6.65131">
        <ele>2579.84</ele>
        <time>2018-02-08T13:46:24Z</time>
      </trkpt>
      <trkpt lat="45.63913" lon="6.65132">
        <ele>2579.84</ele>
        <time>2018-02-08T13:46:56Z</time>
      </trkpt>
      <trkpt lat="45.63913" lon="6.6513">
        <ele>2578.87</ele>
        <time>2018-02-08T13:47:35Z</time>
      </trkpt>
      <trkpt lat="45.63915" lon="6.65131">
        <ele>2578.87</ele>
        <time>2018-02-08T13:48:07Z</time>
      </trkpt>
      <trkpt lat="45.63914" lon="6.65131">
        <ele>2579.35</ele>
        <time>2018-02-08T13:48:57Z</time>
      </trkpt>
      <trkpt lat="45.63913" lon="6.65131">
        <ele>2578.39</ele>
        <time>2018-02-08T13:49:35Z</time>
      </trkpt>
      <trkpt lat="45.63909" lon="6.6513">
        <ele>2578.87</ele>
        <time>2018-02-08T13:50:18Z</time>
      </trkpt>
      <trkpt lat="45.63909" lon="6.65129">
        <ele>2578.87</ele>
        <time>2018-02-08T13:50:59Z</time>
      </trkpt>
      <trkpt lat="45.6391" lon="6.6513">
        <ele>2578.87</ele>
        <time>2018-02-08T13:51:03Z</time>
      </trkpt>
      <trkpt lat="45.63913" lon="6.65132">
        <ele>2579.35</ele>
        <time>2018-02-08T13:51:15Z</time>
      </trkpt>
      <trkpt lat="45.63914" lon="6.65132">
        <ele>2579.84</ele>
        <time>2018-02-08T13:51:33Z</time>
      </trkpt>
      <trkpt lat="45.63914" lon="6.65134">
        <ele>2579.35</ele>
        <time>2018-02-08T13:51:54Z</time>
      </trkpt>
      <trkpt lat="45.63914" lon="6.65135">
        <ele>2579.35</ele>
        <time>2018-02-08T13:52:15Z</time>
      </trkpt>
      <trkpt lat="45.63914" lon="6.65134">
        <ele>2579.35</ele>
        <time>2018-02-08T13:52:34Z</time>
      </trkpt>
      <trkpt lat="45.63915" lon="6.65136">
        <ele>2578.87</ele>
        <time>2018-02-08T13:52:56Z</time>
      </trkpt>
      <trkpt lat="45.63915" lon="6.65133">
        <ele>2579.35</ele>
        <time>2018-02-08T13:53:16Z</time>
      </trkpt>
      <trkpt lat="45.63914" lon="6.65137">
        <ele>2577.91</ele>
        <time>2018-02-08T13:53:37Z</time>
      </trkpt>
      <trkpt lat="45.63912" lon="6.6514">
        <ele>2576.95</ele>
        <time>2018-02-08T13:53:40Z</time>
      </trkpt>
      <trkpt lat="45.63908" lon="6.65142">
        <ele>2575.51</ele>
        <time>2018-02-08T13:53:41Z</time>
      </trkpt>
      <trkpt lat="45.63903" lon="6.65144">
        <ele>2574.07</ele>
        <time>2018-02-08T13:53:42Z</time>
      </trkpt>
      <trkpt lat="45.63901" lon="6.65143">
        <ele>2573.59</ele>
        <time>2018-02-08T13:53:47Z</time>
      </trkpt>
      <trkpt lat="45.63902" lon="6.65144">
        <ele>2572.63</ele>
        <time>2018-02-08T13:53:50Z</time>
      </trkpt>
      <trkpt lat="45.63903" lon="6.65147">
        <ele>2572.14</ele>
        <time>2018-02-08T13:53:51Z</time>
      </trkpt>
      <trkpt lat="45.63909" lon="6.6515">
        <ele>2569.26</ele>
        <time>2018-02-08T13:53:53Z</time>
      </trkpt>
      <trkpt lat="45.6391" lon="6.65151">
        <ele>2567.82</ele>
        <time>2018-02-08T13:53:56Z</time>
      </trkpt>
      <trkpt lat="45.63911" lon="6.65152">
        <ele>2567.82</ele>
        <time>2018-02-08T13:53:57Z</time>
      </trkpt>
      <trkpt lat="45.63913" lon="6.65154">
        <ele>2567.34</ele>
        <time>2018-02-08T13:53:58Z</time>
      </trkpt>
      <trkpt lat="45.63915" lon="6.65155">
        <ele>2565.9</ele>
        <time>2018-02-08T13:53:59Z</time>
      </trkpt>
      <trkpt lat="45.63916" lon="6.65156">
        <ele>2564.93</ele>
        <time>2018-02-08T13:54:00Z</time>
      </trkpt>
      <trkpt lat="45.63926" lon="6.65162">
        <ele>2562.05</ele>
        <time>2018-02-08T13:54:03Z</time>
      </trkpt>
      <trkpt lat="45.6393" lon="6.65162">
        <ele>2559.65</ele>
        <time>2018-02-08T13:54:04Z</time>
      </trkpt>
      <trkpt lat="45.63932" lon="6.65162">
        <ele>2558.69</ele>
        <time>2018-02-08T13:54:05Z</time>
      </trkpt>
      <trkpt lat="45.63933" lon="6.65163">
        <ele>2558.69</ele>
        <time>2018-02-08T13:54:06Z</time>
      </trkpt>
      <trkpt lat="45.63935" lon="6.65169">
        <ele>2556.76</ele>
        <time>2018-02-08T13:54:12Z</time>
      </trkpt>
      <trkpt lat="45.63929" lon="6.65173">
        <ele>2553.88</ele>
        <time>2018-02-08T13:54:14Z</time>
      </trkpt>
      <trkpt lat="45.63926" lon="6.65173">
        <ele>2552.92</ele>
        <time>2018-02-08T13:54:16Z</time>
      </trkpt>
      <trkpt lat="45.63927" lon="6.65172">
        <ele>2552.92</ele>
        <time>2018-02-08T13:54:34Z</time>
      </trkpt>
      <trkpt lat="45.63931" lon="6.65179">
        <ele>2550.03</ele>
        <time>2018-02-08T13:54:38Z</time>
      </trkpt>
      <trkpt lat="45.63932" lon="6.65184">
        <ele>2549.07</ele>
        <time>2018-02-08T13:54:40Z</time>
      </trkpt>
      <trkpt lat="45.63928" lon="6.65189">
        <ele>2545.71</ele>
        <time>2018-02-08T13:54:42Z</time>
      </trkpt>
      <trkpt lat="45.63927" lon="6.65189">
        <ele>2545.71</ele>
        <time>2018-02-08T13:54:43Z</time>
      </trkpt>
      <trkpt lat="45.63927" lon="6.65189">
        <ele>2545.71</ele>
        <time>2018-02-08T13:54:45Z</time>
      </trkpt>
      <trkpt lat="45.63931" lon="6.65199">
        <ele>2541.38</ele>
        <time>2018-02-08T13:54:48Z</time>
      </trkpt>
      <trkpt lat="45.63939" lon="6.652">
        <ele>2538.98</ele>
        <time>2018-02-08T13:54:54Z</time>
      </trkpt>
      <trkpt lat="45.63939" lon="6.652">
        <ele>2538.98</ele>
        <time>2018-02-08T13:55:11Z</time>
      </trkpt>
      <trkpt lat="45.6394" lon="6.652">
        <ele>2538.5</ele>
        <time>2018-02-08T13:55:13Z</time>
      </trkpt>
      <trkpt lat="45.63945" lon="6.65203">
        <ele>2538.02</ele>
        <time>2018-02-08T13:55:16Z</time>
      </trkpt>
      <trkpt lat="45.63947" lon="6.65204">
        <ele>2537.54</ele>
        <time>2018-02-08T13:55:17Z</time>
      </trkpt>
      <trkpt lat="45.63949" lon="6.65206">
        <ele>2537.54</ele>
        <time>2018-02-08T13:55:18Z</time>
      </trkpt>
      <trkpt lat="45.63952" lon="6.65209">
        <ele>2537.06</ele>
        <time>2018-02-08T13:55:19Z</time>
      </trkpt>
      <trkpt lat="45.63958" lon="6.65213">
        <ele>2535.13</ele>
        <time>2018-02-08T13:55:22Z</time>
      </trkpt>
      <trkpt lat="45.63959" lon="6.65215">
        <ele>2534.65</ele>
        <time>2018-02-08T13:55:24Z</time>
      </trkpt>
      <trkpt lat="45.63958" lon="6.65219">
        <ele>2534.17</ele>
        <time>2018-02-08T13:55:25Z</time>
      </trkpt>
      <trkpt lat="45.63955" lon="6.65223">
        <ele>2532.25</ele>
        <time>2018-02-08T13:55:26Z</time>
      </trkpt>
      <trkpt lat="45.63947" lon="6.65224">
        <ele>2529.85</ele>
        <time>2018-02-08T13:55:28Z</time>
      </trkpt>
      <trkpt lat="45.6394" lon="6.65223">
        <ele>2529.85</ele>
        <time>2018-02-08T13:55:32Z</time>
      </trkpt>
      <trkpt lat="45.63939" lon="6.65226">
        <ele>2526.48</ele>
        <time>2018-02-08T13:55:36Z</time>
      </trkpt>
      <trkpt lat="45.6394" lon="6.65224">
        <ele>2526.96</ele>
        <time>2018-02-08T13:55:52Z</time>
      </trkpt>
      <trkpt lat="45.63942" lon="6.65226">
        <ele>2525.52</ele>
        <time>2018-02-08T13:56:11Z</time>
      </trkpt>
      <trkpt lat="45.63943" lon="6.65227">
        <ele>2526</ele>
        <time>2018-02-08T13:56:12Z</time>
      </trkpt>
      <trkpt lat="45.6395" lon="6.65235">
        <ele>2524.56</ele>
        <time>2018-02-08T13:56:19Z</time>
      </trkpt>
      <trkpt lat="45.63952" lon="6.65237">
        <ele>2524.56</ele>
        <time>2018-02-08T13:56:21Z</time>
      </trkpt>
      <trkpt lat="45.63953" lon="6.65241">
        <ele>2524.08</ele>
        <time>2018-02-08T13:56:23Z</time>
      </trkpt>
      <trkpt lat="45.63953" lon="6.65245">
        <ele>2523.6</ele>
        <time>2018-02-08T13:56:24Z</time>
      </trkpt>
      <trkpt lat="45.63951" lon="6.65247">
        <ele>2522.64</ele>
        <time>2018-02-08T13:56:25Z</time>
      </trkpt>
      <trkpt lat="45.63945" lon="6.65247">
        <ele>2521.19</ele>
        <time>2018-02-08T13:56:35Z</time>
      </trkpt>
      <trkpt lat="45.63942" lon="6.65249">
        <ele>2521.19</ele>
        <time>2018-02-08T13:57:01Z</time>
      </trkpt>
      <trkpt lat="45.63943" lon="6.65246">
        <ele>2521.19</ele>
        <time>2018-02-08T13:57:32Z</time>
      </trkpt>
      <trkpt lat="45.63944" lon="6.65246">
        <ele>2521.19</ele>
        <time>2018-02-08T13:57:53Z</time>
      </trkpt>
      <trkpt lat="45.63943" lon="6.65247">
        <ele>2521.19</ele>
        <time>2018-02-08T13:58:08Z</time>
      </trkpt>
      <trkpt lat="45.63951" lon="6.65254">
        <ele>2519.27</ele>
        <time>2018-02-08T13:58:18Z</time>
      </trkpt>
      <trkpt lat="45.63955" lon="6.65253">
        <ele>2519.27</ele>
        <time>2018-02-08T13:58:42Z</time>
      </trkpt>
      <trkpt lat="45.63953" lon="6.65253">
        <ele>2519.27</ele>
        <time>2018-02-08T13:59:06Z</time>
      </trkpt>
      <trkpt lat="45.63954" lon="6.65252">
        <ele>2518.31</ele>
        <time>2018-02-08T13:59:40Z</time>
      </trkpt>
      <trkpt lat="45.63954" lon="6.65252">
        <ele>2518.79</ele>
        <time>2018-02-08T14:00:04Z</time>
      </trkpt>
      <trkpt lat="45.63955" lon="6.65255">
        <ele>2518.31</ele>
        <time>2018-02-08T14:00:16Z</time>
      </trkpt>
      <trkpt lat="45.63952" lon="6.65255">
        <ele>2518.31</ele>
        <time>2018-02-08T14:00:33Z</time>
      </trkpt>
      <trkpt lat="45.63954" lon="6.65259">
        <ele>2518.31</ele>
        <time>2018-02-08T14:00:52Z</time>
      </trkpt>
      <trkpt lat="45.63955" lon="6.65257">
        <ele>2518.79</ele>
        <time>2018-02-08T14:00:56Z</time>
      </trkpt>
      <trkpt lat="45.63958" lon="6.65254">
        <ele>2517.35</ele>
        <time>2018-02-08T14:01:01Z</time>
      </trkpt>
      <trkpt lat="45.63962" lon="6.65256">
        <ele>2514.95</ele>
        <time>2018-02-08T14:01:07Z</time>
      </trkpt>
      <trkpt lat="45.63969" lon="6.65258">
        <ele>2511.58</ele>
        <time>2018-02-08T14:01:12Z</time>
      </trkpt>
      <trkpt lat="45.63971" lon="6.65261">
        <ele>2508.7</ele>
        <time>2018-02-08T14:01:29Z</time>
      </trkpt>
      <trkpt lat="45.63969" lon="6.65271">
        <ele>2506.29</ele>
        <time>2018-02-08T14:01:40Z</time>
      </trkpt>
      <trkpt lat="45.63966" lon="6.65274">
        <ele>2502.93</ele>
        <time>2018-02-08T14:01:41Z</time>
      </trkpt>
      <trkpt lat="45.63965" lon="6.65274">
        <ele>2502.45</ele>
        <time>2018-02-08T14:01:49Z</time>
      </trkpt>
      <trkpt lat="45.63967" lon="6.65274">
        <ele>2501.97</ele>
        <time>2018-02-08T14:02:04Z</time>
      </trkpt>
      <trkpt lat="45.63968" lon="6.65278">
        <ele>2501.49</ele>
        <time>2018-02-08T14:02:09Z</time>
      </trkpt>
      <trkpt lat="45.6397" lon="6.6528">
        <ele>2500.53</ele>
        <time>2018-02-08T14:02:10Z</time>
      </trkpt>
      <trkpt lat="45.63973" lon="6.65282">
        <ele>2498.6</ele>
        <time>2018-02-08T14:02:11Z</time>
      </trkpt>
      <trkpt lat="45.63975" lon="6.65282">
        <ele>2497.64</ele>
        <time>2018-02-08T14:02:12Z</time>
      </trkpt>
      <trkpt lat="45.63978" lon="6.65284">
        <ele>2496.2</ele>
        <time>2018-02-08T14:02:15Z</time>
      </trkpt>
      <trkpt lat="45.6398" lon="6.65285">
        <ele>2495.24</ele>
        <time>2018-02-08T14:02:16Z</time>
      </trkpt>
      <trkpt lat="45.63982" lon="6.65287">
        <ele>2493.32</ele>
        <time>2018-02-08T14:02:19Z</time>
      </trkpt>
      <trkpt lat="45.6398" lon="6.65292">
        <ele>2491.87</ele>
        <time>2018-02-08T14:02:20Z</time>
      </trkpt>
      <trkpt lat="45.63978" lon="6.65295">
        <ele>2491.39</ele>
        <time>2018-02-08T14:02:21Z</time>
      </trkpt>
      <trkpt lat="45.63976" lon="6.65296">
        <ele>2489.47</ele>
        <time>2018-02-08T14:02:23Z</time>
      </trkpt>
      <trkpt lat="45.63976" lon="6.65299">
        <ele>2488.51</ele>
        <time>2018-02-08T14:02:35Z</time>
      </trkpt>
      <trkpt lat="45.63977" lon="6.65301">
        <ele>2488.51</ele>
        <time>2018-02-08T14:02:36Z</time>
      </trkpt>
      <trkpt lat="45.6398" lon="6.65303">
        <ele>2486.59</ele>
        <time>2018-02-08T14:02:37Z</time>
      </trkpt>
      <trkpt lat="45.63982" lon="6.65304">
        <ele>2484.66</ele>
        <time>2018-02-08T14:02:38Z</time>
      </trkpt>
      <trkpt lat="45.63984" lon="6.65303">
        <ele>2484.18</ele>
        <time>2018-02-08T14:02:39Z</time>
      </trkpt>
      <trkpt lat="45.63985" lon="6.65303">
        <ele>2484.18</ele>
        <time>2018-02-08T14:02:40Z</time>
      </trkpt>
      <trkpt lat="45.63989" lon="6.65299">
        <ele>2484.18</ele>
        <time>2018-02-08T14:02:51Z</time>
      </trkpt>
      <trkpt lat="45.6399" lon="6.653">
        <ele>2483.7</ele>
        <time>2018-02-08T14:02:52Z</time>
      </trkpt>
      <trkpt lat="45.63992" lon="6.65302">
        <ele>2482.74</ele>
        <time>2018-02-08T14:02:53Z</time>
      </trkpt>
      <trkpt lat="45.63996" lon="6.65304">
        <ele>2479.86</ele>
        <time>2018-02-08T14:02:59Z</time>
      </trkpt>
      <trkpt lat="45.6399" lon="6.65315">
        <ele>2476.01</ele>
        <time>2018-02-08T14:03:02Z</time>
      </trkpt>
      <trkpt lat="45.63986" lon="6.65317">
        <ele>2475.05</ele>
        <time>2018-02-08T14:03:04Z</time>
      </trkpt>
      <trkpt lat="45.63989" lon="6.65323">
        <ele>2470.73</ele>
        <time>2018-02-08T14:03:08Z</time>
      </trkpt>
      <trkpt lat="45.6399" lon="6.65322">
        <ele>2471.21</ele>
        <time>2018-02-08T14:03:09Z</time>
      </trkpt>
      <trkpt lat="45.63991" lon="6.6532">
        <ele>2470.24</ele>
        <time>2018-02-08T14:03:18Z</time>
      </trkpt>
      <trkpt lat="45.63998" lon="6.65324">
        <ele>2466.88</ele>
        <time>2018-02-08T14:03:22Z</time>
      </trkpt>
      <trkpt lat="45.63998" lon="6.65328">
        <ele>2466.4</ele>
        <time>2018-02-08T14:03:23Z</time>
      </trkpt>
      <trkpt lat="45.63994" lon="6.65334">
        <ele>2463.04</ele>
        <time>2018-02-08T14:03:25Z</time>
      </trkpt>
      <trkpt lat="45.63993" lon="6.65334">
        <ele>2462.07</ele>
        <time>2018-02-08T14:03:27Z</time>
      </trkpt>
      <trkpt lat="45.63993" lon="6.65336">
        <ele>2461.11</ele>
        <time>2018-02-08T14:03:29Z</time>
      </trkpt>
      <trkpt lat="45.64" lon="6.6534">
        <ele>2457.75</ele>
        <time>2018-02-08T14:03:32Z</time>
      </trkpt>
      <trkpt lat="45.64" lon="6.65335">
        <ele>2457.27</ele>
        <time>2018-02-08T14:03:41Z</time>
      </trkpt>
      <trkpt lat="45.63999" lon="6.65334">
        <ele>2456.79</ele>
        <time>2018-02-08T14:03:44Z</time>
      </trkpt>
      <trkpt lat="45.63998" lon="6.65346">
        <ele>2452.94</ele>
        <time>2018-02-08T14:03:48Z</time>
      </trkpt>
      <trkpt lat="45.63997" lon="6.65348">
        <ele>2451.98</ele>
        <time>2018-02-08T14:03:49Z</time>
      </trkpt>
      <trkpt lat="45.64002" lon="6.65354">
        <ele>2448.13</ele>
        <time>2018-02-08T14:03:52Z</time>
      </trkpt>
      <trkpt lat="45.64008" lon="6.65352">
        <ele>2446.21</ele>
        <time>2018-02-08T14:03:54Z</time>
      </trkpt>
      <trkpt lat="45.64007" lon="6.65348">
        <ele>2446.21</ele>
        <time>2018-02-08T14:04:06Z</time>
      </trkpt>
      <trkpt lat="45.64007" lon="6.6536">
        <ele>2441.41</ele>
        <time>2018-02-08T14:04:11Z</time>
      </trkpt>
      <trkpt lat="45.64006" lon="6.65369">
        <ele>2438.04</ele>
        <time>2018-02-08T14:04:15Z</time>
      </trkpt>
      <trkpt lat="45.64013" lon="6.65371">
        <ele>2434.68</ele>
        <time>2018-02-08T14:04:17Z</time>
      </trkpt>
      <trkpt lat="45.64015" lon="6.6537">
        <ele>2434.68</ele>
        <time>2018-02-08T14:04:18Z</time>
      </trkpt>
      <trkpt lat="45.64016" lon="6.6537">
        <ele>2434.68</ele>
        <time>2018-02-08T14:04:19Z</time>
      </trkpt>
      <trkpt lat="45.64018" lon="6.6538">
        <ele>2430.83</ele>
        <time>2018-02-08T14:04:24Z</time>
      </trkpt>
      <trkpt lat="45.64012" lon="6.65385">
        <ele>2428.91</ele>
        <time>2018-02-08T14:04:36Z</time>
      </trkpt>
      <trkpt lat="45.64007" lon="6.65392">
        <ele>2426.99</ele>
        <time>2018-02-08T14:04:43Z</time>
      </trkpt>
      <trkpt lat="45.6401" lon="6.65401">
        <ele>2425.06</ele>
        <time>2018-02-08T14:04:46Z</time>
      </trkpt>
      <trkpt lat="45.64018" lon="6.65396">
        <ele>2422.18</ele>
        <time>2018-02-08T14:04:48Z</time>
      </trkpt>
      <trkpt lat="45.64025" lon="6.65394">
        <ele>2421.22</ele>
        <time>2018-02-08T14:04:51Z</time>
      </trkpt>
      <trkpt lat="45.64021" lon="6.65406">
        <ele>2416.89</ele>
        <time>2018-02-08T14:04:54Z</time>
      </trkpt>
      <trkpt lat="45.64016" lon="6.65411">
        <ele>2415.93</ele>
        <time>2018-02-08T14:04:56Z</time>
      </trkpt>
      <trkpt lat="45.64019" lon="6.65417">
        <ele>2410.64</ele>
        <time>2018-02-08T14:04:59Z</time>
      </trkpt>
      <trkpt lat="45.64021" lon="6.65416">
        <ele>2410.16</ele>
        <time>2018-02-08T14:05:00Z</time>
      </trkpt>
      <trkpt lat="45.64029" lon="6.65415">
        <ele>2410.16</ele>
        <time>2018-02-08T14:05:11Z</time>
      </trkpt>
      <trkpt lat="45.64038" lon="6.6542">
        <ele>2408.72</ele>
        <time>2018-02-08T14:05:15Z</time>
      </trkpt>
      <trkpt lat="45.64034" lon="6.65434">
        <ele>2404.39</ele>
        <time>2018-02-08T14:05:18Z</time>
      </trkpt>
      <trkpt lat="45.64031" lon="6.65437">
        <ele>2403.91</ele>
        <time>2018-02-08T14:05:19Z</time>
      </trkpt>
      <trkpt lat="45.64024" lon="6.65443">
        <ele>2402.47</ele>
        <time>2018-02-08T14:05:21Z</time>
      </trkpt>
      <trkpt lat="45.64031" lon="6.65462">
        <ele>2395.74</ele>
        <time>2018-02-08T14:05:25Z</time>
      </trkpt>
      <trkpt lat="45.64021" lon="6.65477">
        <ele>2392.38</ele>
        <time>2018-02-08T14:05:28Z</time>
      </trkpt>
      <trkpt lat="45.64017" lon="6.65475">
        <ele>2390.94</ele>
        <time>2018-02-08T14:05:29Z</time>
      </trkpt>
      <trkpt lat="45.64014" lon="6.65474">
        <ele>2389.97</ele>
        <time>2018-02-08T14:05:31Z</time>
      </trkpt>
      <trkpt lat="45.64015" lon="6.65476">
        <ele>2390.94</ele>
        <time>2018-02-08T14:05:39Z</time>
      </trkpt>
      <trkpt lat="45.64006" lon="6.65503">
        <ele>2388.05</ele>
        <time>2018-02-08T14:05:45Z</time>
      </trkpt>
      <trkpt lat="45.63999" lon="6.65526">
        <ele>2384.69</ele>
        <time>2018-02-08T14:05:48Z</time>
      </trkpt>
      <trkpt lat="45.63997" lon="6.65533">
        <ele>2383.25</ele>
        <time>2018-02-08T14:05:49Z</time>
      </trkpt>
      <trkpt lat="45.63993" lon="6.65548">
        <ele>2381.32</ele>
        <time>2018-02-08T14:05:52Z</time>
      </trkpt>
      <trkpt lat="45.63991" lon="6.65562">
        <ele>2379.88</ele>
        <time>2018-02-08T14:05:54Z</time>
      </trkpt>
      <trkpt lat="45.63982" lon="6.65592">
        <ele>2373.63</ele>
        <time>2018-02-08T14:05:58Z</time>
      </trkpt>
      <trkpt lat="45.63975" lon="6.65615">
        <ele>2371.71</ele>
        <time>2018-02-08T14:06:02Z</time>
      </trkpt>
      <trkpt lat="45.63969" lon="6.65628">
        <ele>2369.31</ele>
        <time>2018-02-08T14:06:05Z</time>
      </trkpt>
      <trkpt lat="45.63967" lon="6.6563">
        <ele>2369.31</ele>
        <time>2018-02-08T14:06:06Z</time>
      </trkpt>
      <trkpt lat="45.63971" lon="6.65636">
        <ele>2365.46</ele>
        <time>2018-02-08T14:06:10Z</time>
      </trkpt>
      <trkpt lat="45.63977" lon="6.65649">
        <ele>2361.62</ele>
        <time>2018-02-08T14:06:13Z</time>
      </trkpt>
      <trkpt lat="45.63973" lon="6.65657">
        <ele>2358.25</ele>
        <time>2018-02-08T14:06:15Z</time>
      </trkpt>
      <trkpt lat="45.6397" lon="6.6566">
        <ele>2358.73</ele>
        <time>2018-02-08T14:06:23Z</time>
      </trkpt>
      <trkpt lat="45.63967" lon="6.65674">
        <ele>2356.81</ele>
        <time>2018-02-08T14:06:26Z</time>
      </trkpt>
      <trkpt lat="45.6396" lon="6.65688">
        <ele>2352.96</ele>
        <time>2018-02-08T14:06:28Z</time>
      </trkpt>
      <trkpt lat="45.63953" lon="6.65722">
        <ele>2348.16</ele>
        <time>2018-02-08T14:06:33Z</time>
      </trkpt>
      <trkpt lat="45.63951" lon="6.65734">
        <ele>2347.68</ele>
        <time>2018-02-08T14:06:35Z</time>
      </trkpt>
      <trkpt lat="45.63947" lon="6.65745">
        <ele>2345.27</ele>
        <time>2018-02-08T14:06:42Z</time>
      </trkpt>
      <trkpt lat="45.63947" lon="6.65745">
        <ele>2344.79</ele>
        <time>2018-02-08T14:06:44Z</time>
      </trkpt>
      <trkpt lat="45.6394" lon="6.65769">
        <ele>2341.43</ele>
        <time>2018-02-08T14:06:50Z</time>
      </trkpt>
      <trkpt lat="45.63938" lon="6.65772">
        <ele>2341.43</ele>
        <time>2018-02-08T14:06:51Z</time>
      </trkpt>
      <trkpt lat="45.63933" lon="6.65778">
        <ele>2339.51</ele>
        <time>2018-02-08T14:06:57Z</time>
      </trkpt>
      <trkpt lat="45.6393" lon="6.65784">
        <ele>2339.51</ele>
        <time>2018-02-08T14:07:00Z</time>
      </trkpt>
      <trkpt lat="45.63936" lon="6.6579">
        <ele>2335.66</ele>
        <time>2018-02-08T14:07:03Z</time>
      </trkpt>
      <trkpt lat="45.63946" lon="6.65794">
        <ele>2331.81</ele>
        <time>2018-02-08T14:07:05Z</time>
      </trkpt>
      <trkpt lat="45.63949" lon="6.65797">
        <ele>2332.3</ele>
        <time>2018-02-08T14:07:06Z</time>
      </trkpt>
      <trkpt lat="45.63956" lon="6.65815">
        <ele>2331.81</ele>
        <time>2018-02-08T14:07:10Z</time>
      </trkpt>
      <trkpt lat="45.63959" lon="6.65835">
        <ele>2330.37</ele>
        <time>2018-02-08T14:07:15Z</time>
      </trkpt>
      <trkpt lat="45.6395" lon="6.6584">
        <ele>2328.93</ele>
        <time>2018-02-08T14:07:22Z</time>
      </trkpt>
      <trkpt lat="45.6395" lon="6.65839">
        <ele>2329.41</ele>
        <time>2018-02-08T14:07:53Z</time>
      </trkpt>
      <trkpt lat="45.6395" lon="6.65839">
        <ele>2328.93</ele>
        <time>2018-02-08T14:08:18Z</time>
      </trkpt>
      <trkpt lat="45.6395" lon="6.65839">
        <ele>2328.45</ele>
        <time>2018-02-08T14:08:43Z</time>
      </trkpt>
      <trkpt lat="45.63949" lon="6.65839">
        <ele>2328.45</ele>
        <time>2018-02-08T14:08:48Z</time>
      </trkpt>
      <trkpt lat="45.6394" lon="6.65834">
        <ele>2327.97</ele>
        <time>2018-02-08T14:08:52Z</time>
      </trkpt>
      <trkpt lat="45.63931" lon="6.65843">
        <ele>2325.09</ele>
        <time>2018-02-08T14:08:55Z</time>
      </trkpt>
      <trkpt lat="45.63912" lon="6.65847">
        <ele>2319.32</ele>
        <time>2018-02-08T14:08:58Z</time>
      </trkpt>
      <trkpt lat="45.63898" lon="6.6585">
        <ele>2316.43</ele>
        <time>2018-02-08T14:09:00Z</time>
      </trkpt>
      <trkpt lat="45.63883" lon="6.65855">
        <ele>2314.03</ele>
        <time>2018-02-08T14:09:02Z</time>
      </trkpt>
      <trkpt lat="45.6387" lon="6.65858">
        <ele>2312.59</ele>
        <time>2018-02-08T14:09:05Z</time>
      </trkpt>
      <trkpt lat="45.63853" lon="6.65877">
        <ele>2308.74</ele>
        <time>2018-02-08T14:09:09Z</time>
      </trkpt>
      <trkpt lat="45.63846" lon="6.65894">
        <ele>2306.82</ele>
        <time>2018-02-08T14:09:12Z</time>
      </trkpt>
      <trkpt lat="45.63837" lon="6.65921">
        <ele>2304.42</ele>
        <time>2018-02-08T14:09:19Z</time>
      </trkpt>
      <trkpt lat="45.63831" lon="6.6592">
        <ele>2303.46</ele>
        <time>2018-02-08T14:09:29Z</time>
      </trkpt>
      <trkpt lat="45.63828" lon="6.6592">
        <ele>2302.98</ele>
        <time>2018-02-08T14:09:47Z</time>
      </trkpt>
      <trkpt lat="45.63829" lon="6.65921">
        <ele>2302.49</ele>
        <time>2018-02-08T14:10:06Z</time>
      </trkpt>
      <trkpt lat="45.63812" lon="6.65921">
        <ele>2300.57</ele>
        <time>2018-02-08T14:10:17Z</time>
      </trkpt>
      <trkpt lat="45.63805" lon="6.65919">
        <ele>2299.13</ele>
        <time>2018-02-08T14:10:20Z</time>
      </trkpt>
      <trkpt lat="45.638" lon="6.65917">
        <ele>2298.17</ele>
        <time>2018-02-08T14:10:23Z</time>
      </trkpt>
      <trkpt lat="45.63804" lon="6.65934">
        <ele>2292.88</ele>
        <time>2018-02-08T14:10:27Z</time>
      </trkpt>
      <trkpt lat="45.63812" lon="6.65941">
        <ele>2291.92</ele>
        <time>2018-02-08T14:10:29Z</time>
      </trkpt>
      <trkpt lat="45.63813" lon="6.65949">
        <ele>2290</ele>
        <time>2018-02-08T14:10:35Z</time>
      </trkpt>
      <trkpt lat="45.63811" lon="6.65948">
        <ele>2290</ele>
        <time>2018-02-08T14:10:36Z</time>
      </trkpt>
      <trkpt lat="45.63809" lon="6.65946">
        <ele>2289.52</ele>
        <time>2018-02-08T14:10:37Z</time>
      </trkpt>
      <trkpt lat="45.63799" lon="6.65939">
        <ele>2288.56</ele>
        <time>2018-02-08T14:10:50Z</time>
      </trkpt>
      <trkpt lat="45.63792" lon="6.65935">
        <ele>2289.04</ele>
        <time>2018-02-08T14:11:04Z</time>
      </trkpt>
      <trkpt lat="45.63784" lon="6.65927">
        <ele>2288.08</ele>
        <time>2018-02-08T14:11:19Z</time>
      </trkpt>
      <trkpt lat="45.63768" lon="6.65916">
        <ele>2286.15</ele>
        <time>2018-02-08T14:11:27Z</time>
      </trkpt>
      <trkpt lat="45.6376" lon="6.65913">
        <ele>2283.27</ele>
        <time>2018-02-08T14:11:33Z</time>
      </trkpt>
      <trkpt lat="45.6376" lon="6.65913">
        <ele>2283.75</ele>
        <time>2018-02-08T14:11:39Z</time>
      </trkpt>
      <trkpt lat="45.63761" lon="6.65919">
        <ele>2282.79</ele>
        <time>2018-02-08T14:11:41Z</time>
      </trkpt>
      <trkpt lat="45.63768" lon="6.65928">
        <ele>2278.94</ele>
        <time>2018-02-08T14:11:43Z</time>
      </trkpt>
      <trkpt lat="45.63777" lon="6.65941">
        <ele>2277.02</ele>
        <time>2018-02-08T14:11:46Z</time>
      </trkpt>
      <trkpt lat="45.63785" lon="6.6596">
        <ele>2275.58</ele>
        <time>2018-02-08T14:11:54Z</time>
      </trkpt>
      <trkpt lat="45.63787" lon="6.65962">
        <ele>2273.66</ele>
        <time>2018-02-08T14:12:01Z</time>
      </trkpt>
      <trkpt lat="45.63793" lon="6.65976">
        <ele>2271.73</ele>
        <time>2018-02-08T14:12:12Z</time>
      </trkpt>
      <trkpt lat="45.63802" lon="6.65997">
        <ele>2267.89</ele>
        <time>2018-02-08T14:12:17Z</time>
      </trkpt>
      <trkpt lat="45.63803" lon="6.65998">
        <ele>2267.89</ele>
        <time>2018-02-08T14:12:18Z</time>
      </trkpt>
      <trkpt lat="45.63805" lon="6.66004">
        <ele>2266.93</ele>
        <time>2018-02-08T14:12:21Z</time>
      </trkpt>
      <trkpt lat="45.63802" lon="6.66011">
        <ele>2265</ele>
        <time>2018-02-08T14:12:24Z</time>
      </trkpt>
      <trkpt lat="45.63801" lon="6.66012">
        <ele>2262.12</ele>
        <time>2018-02-08T14:12:25Z</time>
      </trkpt>
      <trkpt lat="45.63799" lon="6.66008">
        <ele>2262.12</ele>
        <time>2018-02-08T14:12:39Z</time>
      </trkpt>
      <trkpt lat="45.63798" lon="6.66008">
        <ele>2262.6</ele>
        <time>2018-02-08T14:12:43Z</time>
      </trkpt>
      <trkpt lat="45.6379" lon="6.66004">
        <ele>2260.68</ele>
        <time>2018-02-08T14:12:47Z</time>
      </trkpt>
      <trkpt lat="45.63785" lon="6.65998">
        <ele>2258.75</ele>
        <time>2018-02-08T14:12:52Z</time>
      </trkpt>
      <trkpt lat="45.63782" lon="6.66006">
        <ele>2257.79</ele>
        <time>2018-02-08T14:12:54Z</time>
      </trkpt>
      <trkpt lat="45.63787" lon="6.66013">
        <ele>2253.95</ele>
        <time>2018-02-08T14:12:56Z</time>
      </trkpt>
      <trkpt lat="45.63789" lon="6.66016">
        <ele>2253.95</ele>
        <time>2018-02-08T14:12:57Z</time>
      </trkpt>
      <trkpt lat="45.63797" lon="6.66032">
        <ele>2251.54</ele>
        <time>2018-02-08T14:13:03Z</time>
      </trkpt>
      <trkpt lat="45.63799" lon="6.66037">
        <ele>2252.03</ele>
        <time>2018-02-08T14:13:05Z</time>
      </trkpt>
      <trkpt lat="45.6379" lon="6.66036">
        <ele>2247.22</ele>
        <time>2018-02-08T14:13:09Z</time>
      </trkpt>
      <trkpt lat="45.63788" lon="6.66034">
        <ele>2247.7</ele>
        <time>2018-02-08T14:13:10Z</time>
      </trkpt>
      <trkpt lat="45.63776" lon="6.66022">
        <ele>2245.78</ele>
        <time>2018-02-08T14:13:16Z</time>
      </trkpt>
      <trkpt lat="45.63776" lon="6.66035">
        <ele>2240.97</ele>
        <time>2018-02-08T14:13:19Z</time>
      </trkpt>
      <trkpt lat="45.63781" lon="6.66043">
        <ele>2239.53</ele>
        <time>2018-02-08T14:13:21Z</time>
      </trkpt>
      <trkpt lat="45.63784" lon="6.66048">
        <ele>2239.53</ele>
        <time>2018-02-08T14:13:34Z</time>
      </trkpt>
      <trkpt lat="45.63796" lon="6.66069">
        <ele>2236.16</ele>
        <time>2018-02-08T14:13:42Z</time>
      </trkpt>
      <trkpt lat="45.63801" lon="6.66077">
        <ele>2234.24</ele>
        <time>2018-02-08T14:13:45Z</time>
      </trkpt>
      <trkpt lat="45.63805" lon="6.66084">
        <ele>2234.24</ele>
        <time>2018-02-08T14:13:48Z</time>
      </trkpt>
      <trkpt lat="45.63802" lon="6.66091">
        <ele>2233.28</ele>
        <time>2018-02-08T14:13:50Z</time>
      </trkpt>
      <trkpt lat="45.63795" lon="6.66086">
        <ele>2229.43</ele>
        <time>2018-02-08T14:13:52Z</time>
      </trkpt>
      <trkpt lat="45.63792" lon="6.66084">
        <ele>2229.92</ele>
        <time>2018-02-08T14:13:53Z</time>
      </trkpt>
      <trkpt lat="45.6379" lon="6.66096">
        <ele>2224.63</ele>
        <time>2018-02-08T14:13:56Z</time>
      </trkpt>
      <trkpt lat="45.63793" lon="6.66102">
        <ele>2223.67</ele>
        <time>2018-02-08T14:13:57Z</time>
      </trkpt>
      <trkpt lat="45.63809" lon="6.66145">
        <ele>2220.3</ele>
        <time>2018-02-08T14:14:06Z</time>
      </trkpt>
      <trkpt lat="45.638" lon="6.6615">
        <ele>2216.94</ele>
        <time>2018-02-08T14:14:09Z</time>
      </trkpt>
      <trkpt lat="45.63793" lon="6.66139">
        <ele>2214.53</ele>
        <time>2018-02-08T14:14:11Z</time>
      </trkpt>
      <trkpt lat="45.63769" lon="6.6611">
        <ele>2211.65</ele>
        <time>2018-02-08T14:14:21Z</time>
      </trkpt>
      <trkpt lat="45.63768" lon="6.6613">
        <ele>2206.84</ele>
        <time>2018-02-08T14:14:25Z</time>
      </trkpt>
      <trkpt lat="45.63771" lon="6.66144">
        <ele>2205.4</ele>
        <time>2018-02-08T14:14:27Z</time>
      </trkpt>
      <trkpt lat="45.63773" lon="6.6616">
        <ele>2203.96</ele>
        <time>2018-02-08T14:14:30Z</time>
      </trkpt>
      <trkpt lat="45.6376" lon="6.66158">
        <ele>2199.63</ele>
        <time>2018-02-08T14:14:34Z</time>
      </trkpt>
      <trkpt lat="45.63757" lon="6.66153">
        <ele>2199.15</ele>
        <time>2018-02-08T14:14:35Z</time>
      </trkpt>
      <trkpt lat="45.63742" lon="6.66151">
        <ele>2195.31</ele>
        <time>2018-02-08T14:14:39Z</time>
      </trkpt>
      <trkpt lat="45.6374" lon="6.66167">
        <ele>2193.87</ele>
        <time>2018-02-08T14:14:43Z</time>
      </trkpt>
      <trkpt lat="45.63729" lon="6.6617">
        <ele>2188.58</ele>
        <time>2018-02-08T14:14:47Z</time>
      </trkpt>
      <trkpt lat="45.63729" lon="6.66166">
        <ele>2188.58</ele>
        <time>2018-02-08T14:14:48Z</time>
      </trkpt>
      <trkpt lat="45.63729" lon="6.66162">
        <ele>2188.58</ele>
        <time>2018-02-08T14:14:49Z</time>
      </trkpt>
      <trkpt lat="45.63716" lon="6.66142">
        <ele>2185.21</ele>
        <time>2018-02-08T14:14:55Z</time>
      </trkpt>
      <trkpt lat="45.6371" lon="6.66136">
        <ele>2184.73</ele>
        <time>2018-02-08T14:14:57Z</time>
      </trkpt>
      <trkpt lat="45.63705" lon="6.66156">
        <ele>2180.89</ele>
        <time>2018-02-08T14:15:01Z</time>
      </trkpt>
      <trkpt lat="45.637" lon="6.66169">
        <ele>2177.04</ele>
        <time>2018-02-08T14:15:05Z</time>
      </trkpt>
      <trkpt lat="45.63698" lon="6.66162">
        <ele>2175.6</ele>
        <time>2018-02-08T14:15:07Z</time>
      </trkpt>
      <trkpt lat="45.63694" lon="6.66156">
        <ele>2175.6</ele>
        <time>2018-02-08T14:15:10Z</time>
      </trkpt>
      <trkpt lat="45.6369" lon="6.66151">
        <ele>2175.6</ele>
        <time>2018-02-08T14:15:12Z</time>
      </trkpt>
      <trkpt lat="45.6368" lon="6.66155">
        <ele>2172.72</ele>
        <time>2018-02-08T14:15:15Z</time>
      </trkpt>
      <trkpt lat="45.63677" lon="6.66168">
        <ele>2169.83</ele>
        <time>2018-02-08T14:15:17Z</time>
      </trkpt>
      <trkpt lat="45.63675" lon="6.66167">
        <ele>2166.95</ele>
        <time>2018-02-08T14:15:18Z</time>
      </trkpt>
      <trkpt lat="45.63672" lon="6.66158">
        <ele>2165.99</ele>
        <time>2018-02-08T14:15:20Z</time>
      </trkpt>
      <trkpt lat="45.63666" lon="6.66144">
        <ele>2165.03</ele>
        <time>2018-02-08T14:15:23Z</time>
      </trkpt>
      <trkpt lat="45.63648" lon="6.66145">
        <ele>2161.18</ele>
        <time>2018-02-08T14:15:27Z</time>
      </trkpt>
      <trkpt lat="45.63624" lon="6.66163">
        <ele>2157.34</ele>
        <time>2018-02-08T14:15:31Z</time>
      </trkpt>
      <trkpt lat="45.63601" lon="6.6618">
        <ele>2153.49</ele>
        <time>2018-02-08T14:15:36Z</time>
      </trkpt>
      <trkpt lat="45.63595" lon="6.66184">
        <ele>2152.53</ele>
        <time>2018-02-08T14:15:38Z</time>
      </trkpt>
      <trkpt lat="45.63592" lon="6.66186">
        <ele>2153.49</ele>
        <time>2018-02-08T14:15:47Z</time>
      </trkpt>
      <trkpt lat="45.63587" lon="6.66185">
        <ele>2153.01</ele>
        <time>2018-02-08T14:16:00Z</time>
      </trkpt>
      <trkpt lat="45.63585" lon="6.66185">
        <ele>2152.05</ele>
        <time>2018-02-08T14:16:15Z</time>
      </trkpt>
      <trkpt lat="45.63578" lon="6.66185">
        <ele>2152.53</ele>
        <time>2018-02-08T14:16:25Z</time>
      </trkpt>
      <trkpt lat="45.63576" lon="6.66185">
        <ele>2152.05</ele>
        <time>2018-02-08T14:16:26Z</time>
      </trkpt>
      <trkpt lat="45.63575" lon="6.66185">
        <ele>2152.05</ele>
        <time>2018-02-08T14:16:27Z</time>
      </trkpt>
      <trkpt lat="45.63573" lon="6.66186">
        <ele>2152.53</ele>
        <time>2018-02-08T14:16:28Z</time>
      </trkpt>
      <trkpt lat="45.63572" lon="6.66187">
        <ele>2152.53</ele>
        <time>2018-02-08T14:16:29Z</time>
      </trkpt>
      <trkpt lat="45.63549" lon="6.6619">
        <ele>2151.09</ele>
        <time>2018-02-08T14:16:41Z</time>
      </trkpt>
      <trkpt lat="45.63543" lon="6.66185">
        <ele>2148.68</ele>
        <time>2018-02-08T14:16:44Z</time>
      </trkpt>
      <trkpt lat="45.6354" lon="6.66182">
        <ele>2148.2</ele>
        <time>2018-02-08T14:16:52Z</time>
      </trkpt>
      <trkpt lat="45.63523" lon="6.6615">
        <ele>2145.32</ele>
        <time>2018-02-08T14:17:01Z</time>
      </trkpt>
      <trkpt lat="45.63511" lon="6.66154">
        <ele>2141.47</ele>
        <time>2018-02-08T14:17:05Z</time>
      </trkpt>
      <trkpt lat="45.63507" lon="6.66177">
        <ele>2137.63</ele>
        <time>2018-02-08T14:17:08Z</time>
      </trkpt>
      <trkpt lat="45.63506" lon="6.66184">
        <ele>2137.63</ele>
        <time>2018-02-08T14:17:09Z</time>
      </trkpt>
      <trkpt lat="45.63498" lon="6.66206">
        <ele>2133.3</ele>
        <time>2018-02-08T14:17:12Z</time>
      </trkpt>
      <trkpt lat="45.63488" lon="6.66224">
        <ele>2128.02</ele>
        <time>2018-02-08T14:17:14Z</time>
      </trkpt>
      <trkpt lat="45.63466" lon="6.66249">
        <ele>2123.69</ele>
        <time>2018-02-08T14:17:18Z</time>
      </trkpt>
      <trkpt lat="45.63433" lon="6.66285">
        <ele>2121.29</ele>
        <time>2018-02-08T14:17:26Z</time>
      </trkpt>
      <trkpt lat="45.6342" lon="6.66297">
        <ele>2118.88</ele>
        <time>2018-02-08T14:17:29Z</time>
      </trkpt>
      <trkpt lat="45.63409" lon="6.66312">
        <ele>2116.48</ele>
        <time>2018-02-08T14:17:33Z</time>
      </trkpt>
      <trkpt lat="45.63396" lon="6.66331">
        <ele>2114.08</ele>
        <time>2018-02-08T14:17:38Z</time>
      </trkpt>
      <trkpt lat="45.63394" lon="6.66335">
        <ele>2113.6</ele>
        <time>2018-02-08T14:17:39Z</time>
      </trkpt>
      <trkpt lat="45.63393" lon="6.66338">
        <ele>2113.6</ele>
        <time>2018-02-08T14:17:40Z</time>
      </trkpt>
      <trkpt lat="45.6339" lon="6.66337">
        <ele>2113.12</ele>
        <time>2018-02-08T14:17:41Z</time>
      </trkpt>
      <trkpt lat="45.63388" lon="6.66332">
        <ele>2112.15</ele>
        <time>2018-02-08T14:17:42Z</time>
      </trkpt>
      <trkpt lat="45.63387" lon="6.66326">
        <ele>2110.71</ele>
        <time>2018-02-08T14:17:43Z</time>
      </trkpt>
      <trkpt lat="45.63387" lon="6.66318">
        <ele>2110.23</ele>
        <time>2018-02-08T14:17:44Z</time>
      </trkpt>
      <trkpt lat="45.63387" lon="6.66284">
        <ele>2107.35</ele>
        <time>2018-02-08T14:17:51Z</time>
      </trkpt>
      <trkpt lat="45.63378" lon="6.66289">
        <ele>2104.94</ele>
        <time>2018-02-08T14:17:55Z</time>
      </trkpt>
      <trkpt lat="45.63376" lon="6.66295">
        <ele>2104.46</ele>
        <time>2018-02-08T14:17:56Z</time>
      </trkpt>
      <trkpt lat="45.6337" lon="6.66314">
        <ele>2102.06</ele>
        <time>2018-02-08T14:17:59Z</time>
      </trkpt>
      <trkpt lat="45.63364" lon="6.66338">
        <ele>2100.14</ele>
        <time>2018-02-08T14:18:03Z</time>
      </trkpt>
      <trkpt lat="45.63363" lon="6.66343">
        <ele>2099.18</ele>
        <time>2018-02-08T14:18:04Z</time>
      </trkpt>
      <trkpt lat="45.63362" lon="6.66348">
        <ele>2098.7</ele>
        <time>2018-02-08T14:18:05Z</time>
      </trkpt>
      <trkpt lat="45.63362" lon="6.66351">
        <ele>2098.7</ele>
        <time>2018-02-08T14:18:06Z</time>
      </trkpt>
      <trkpt lat="45.63361" lon="6.66352">
        <ele>2098.7</ele>
        <time>2018-02-08T14:18:07Z</time>
      </trkpt>
      <trkpt lat="45.63358" lon="6.66339">
        <ele>2097.73</ele>
        <time>2018-02-08T14:18:10Z</time>
      </trkpt>
      <trkpt lat="45.63351" lon="6.66336">
        <ele>2093.89</ele>
        <time>2018-02-08T14:18:14Z</time>
      </trkpt>
      <trkpt lat="45.63352" lon="6.66344">
        <ele>2092.93</ele>
        <time>2018-02-08T14:18:16Z</time>
      </trkpt>
      <trkpt lat="45.63352" lon="6.66346">
        <ele>2093.41</ele>
        <time>2018-02-08T14:18:18Z</time>
      </trkpt>
      <trkpt lat="45.63342" lon="6.66322">
        <ele>2090.52</ele>
        <time>2018-02-08T14:18:26Z</time>
      </trkpt>
      <trkpt lat="45.63339" lon="6.66327">
        <ele>2089.08</ele>
        <time>2018-02-08T14:18:28Z</time>
      </trkpt>
      <trkpt lat="45.63328" lon="6.66343">
        <ele>2087.16</ele>
        <time>2018-02-08T14:18:34Z</time>
      </trkpt>
      <trkpt lat="45.63316" lon="6.66349">
        <ele>2086.68</ele>
        <time>2018-02-08T14:18:37Z</time>
      </trkpt>
      <trkpt lat="45.63315" lon="6.6636">
        <ele>2085.24</ele>
        <time>2018-02-08T14:18:40Z</time>
      </trkpt>
      <trkpt lat="45.63315" lon="6.66364">
        <ele>2085.24</ele>
        <time>2018-02-08T14:18:41Z</time>
      </trkpt>
      <trkpt lat="45.63305" lon="6.66378">
        <ele>2082.35</ele>
        <time>2018-02-08T14:18:46Z</time>
      </trkpt>
      <trkpt lat="45.63293" lon="6.66386">
        <ele>2077.55</ele>
        <time>2018-02-08T14:18:50Z</time>
      </trkpt>
      <trkpt lat="45.63294" lon="6.66391">
        <ele>2078.03</ele>
        <time>2018-02-08T14:18:51Z</time>
      </trkpt>
      <trkpt lat="45.63296" lon="6.66395">
        <ele>2078.03</ele>
        <time>2018-02-08T14:19:02Z</time>
      </trkpt>
      <trkpt lat="45.63276" lon="6.66384">
        <ele>2075.62</ele>
        <time>2018-02-08T14:19:10Z</time>
      </trkpt>
      <trkpt lat="45.63262" lon="6.66387">
        <ele>2071.78</ele>
        <time>2018-02-08T14:19:15Z</time>
      </trkpt>
      <trkpt lat="45.6326" lon="6.66393">
        <ele>2070.82</ele>
        <time>2018-02-08T14:19:16Z</time>
      </trkpt>
      <trkpt lat="45.63257" lon="6.66412">
        <ele>2069.38</ele>
        <time>2018-02-08T14:19:20Z</time>
      </trkpt>
      <trkpt lat="45.63257" lon="6.66419">
        <ele>2068.89</ele>
        <time>2018-02-08T14:19:22Z</time>
      </trkpt>
      <trkpt lat="45.6325" lon="6.66435">
        <ele>2064.57</ele>
        <time>2018-02-08T14:19:27Z</time>
      </trkpt>
      <trkpt lat="45.63254" lon="6.6644">
        <ele>2063.13</ele>
        <time>2018-02-08T14:19:29Z</time>
      </trkpt>
      <trkpt lat="45.63263" lon="6.66453">
        <ele>2061.2</ele>
        <time>2018-02-08T14:19:33Z</time>
      </trkpt>
      <trkpt lat="45.63278" lon="6.66496">
        <ele>2059.28</ele>
        <time>2018-02-08T14:19:43Z</time>
      </trkpt>
      <trkpt lat="45.63278" lon="6.66504">
        <ele>2058.32</ele>
        <time>2018-02-08T14:19:45Z</time>
      </trkpt>
      <trkpt lat="45.63272" lon="6.6651">
        <ele>2056.88</ele>
        <time>2018-02-08T14:19:47Z</time>
      </trkpt>
      <trkpt lat="45.63267" lon="6.66507">
        <ele>2054.96</ele>
        <time>2018-02-08T14:19:48Z</time>
      </trkpt>
      <trkpt lat="45.6326" lon="6.665">
        <ele>2054.47</ele>
        <time>2018-02-08T14:19:50Z</time>
      </trkpt>
      <trkpt lat="45.63234" lon="6.66494">
        <ele>2050.15</ele>
        <time>2018-02-08T14:20:00Z</time>
      </trkpt>
      <trkpt lat="45.63234" lon="6.66512">
        <ele>2048.23</ele>
        <time>2018-02-08T14:20:04Z</time>
      </trkpt>
      <trkpt lat="45.63238" lon="6.66522">
        <ele>2047.26</ele>
        <time>2018-02-08T14:20:06Z</time>
      </trkpt>
      <trkpt lat="45.6324" lon="6.66528">
        <ele>2046.3</ele>
        <time>2018-02-08T14:20:07Z</time>
      </trkpt>
      <trkpt lat="45.6324" lon="6.66533">
        <ele>2045.82</ele>
        <time>2018-02-08T14:20:08Z</time>
      </trkpt>
      <trkpt lat="45.63238" lon="6.66539">
        <ele>2045.34</ele>
        <time>2018-02-08T14:20:09Z</time>
      </trkpt>
      <trkpt lat="45.63234" lon="6.66542">
        <ele>2044.38</ele>
        <time>2018-02-08T14:20:10Z</time>
      </trkpt>
      <trkpt lat="45.6323" lon="6.66546">
        <ele>2043.42</ele>
        <time>2018-02-08T14:20:11Z</time>
      </trkpt>
      <trkpt lat="45.63228" lon="6.66553">
        <ele>2041.98</ele>
        <time>2018-02-08T14:20:12Z</time>
      </trkpt>
      <trkpt lat="45.63228" lon="6.66559">
        <ele>2040.54</ele>
        <time>2018-02-08T14:20:13Z</time>
      </trkpt>
      <trkpt lat="45.63228" lon="6.66567">
        <ele>2040.05</ele>
        <time>2018-02-08T14:20:14Z</time>
      </trkpt>
      <trkpt lat="45.63229" lon="6.66574">
        <ele>2040.05</ele>
        <time>2018-02-08T14:20:15Z</time>
      </trkpt>
      <trkpt lat="45.63231" lon="6.66599">
        <ele>2036.21</ele>
        <time>2018-02-08T14:20:18Z</time>
      </trkpt>
      <trkpt lat="45.63231" lon="6.66607">
        <ele>2036.21</ele>
        <time>2018-02-08T14:20:19Z</time>
      </trkpt>
      <trkpt lat="45.63231" lon="6.66616">
        <ele>2035.73</ele>
        <time>2018-02-08T14:20:20Z</time>
      </trkpt>
      <trkpt lat="45.63229" lon="6.66622">
        <ele>2034.77</ele>
        <time>2018-02-08T14:20:21Z</time>
      </trkpt>
      <trkpt lat="45.63224" lon="6.66627">
        <ele>2034.77</ele>
        <time>2018-02-08T14:20:22Z</time>
      </trkpt>
      <trkpt lat="45.63219" lon="6.66631">
        <ele>2035.73</ele>
        <time>2018-02-08T14:20:23Z</time>
      </trkpt>
      <trkpt lat="45.63215" lon="6.66634">
        <ele>2034.77</ele>
        <time>2018-02-08T14:20:24Z</time>
      </trkpt>
      <trkpt lat="45.6321" lon="6.66638">
        <ele>2034.77</ele>
        <time>2018-02-08T14:20:25Z</time>
      </trkpt>
      <trkpt lat="45.63207" lon="6.66643">
        <ele>2033.33</ele>
        <time>2018-02-08T14:20:26Z</time>
      </trkpt>
      <trkpt lat="45.63207" lon="6.66648">
        <ele>2032.84</ele>
        <time>2018-02-08T14:20:27Z</time>
      </trkpt>
      <trkpt lat="45.63198" lon="6.66684">
        <ele>2032.36</ele>
        <time>2018-02-08T14:20:39Z</time>
      </trkpt>
      <trkpt lat="45.63197" lon="6.66687">
        <ele>2032.84</ele>
        <time>2018-02-08T14:20:40Z</time>
      </trkpt>
      <trkpt lat="45.63194" lon="6.66697">
        <ele>2030.92</ele>
        <time>2018-02-08T14:20:43Z</time>
      </trkpt>
      <trkpt lat="45.63194" lon="6.66697">
        <ele>2029.96</ele>
        <time>2018-02-08T14:20:45Z</time>
      </trkpt>
      <trkpt lat="45.63197" lon="6.6671">
        <ele>2028.52</ele>
        <time>2018-02-08T14:20:51Z</time>
      </trkpt>
      <trkpt lat="45.63201" lon="6.66738">
        <ele>2022.75</ele>
        <time>2018-02-08T14:20:54Z</time>
      </trkpt>
      <trkpt lat="45.63202" lon="6.66759">
        <ele>2020.35</ele>
        <time>2018-02-08T14:20:56Z</time>
      </trkpt>
      <trkpt lat="45.63203" lon="6.66788">
        <ele>2019.87</ele>
        <time>2018-02-08T14:20:59Z</time>
      </trkpt>
      <trkpt lat="45.63204" lon="6.66795">
        <ele>2018.91</ele>
        <time>2018-02-08T14:21:00Z</time>
      </trkpt>
      <trkpt lat="45.63208" lon="6.66827">
        <ele>2017.46</ele>
        <time>2018-02-08T14:21:04Z</time>
      </trkpt>
      <trkpt lat="45.63209" lon="6.66844">
        <ele>2016.02</ele>
        <time>2018-02-08T14:21:06Z</time>
      </trkpt>
      <trkpt lat="45.63208" lon="6.66852">
        <ele>2014.58</ele>
        <time>2018-02-08T14:21:07Z</time>
      </trkpt>
      <trkpt lat="45.63205" lon="6.66858">
        <ele>2014.1</ele>
        <time>2018-02-08T14:21:08Z</time>
      </trkpt>
      <trkpt lat="45.632" lon="6.66862">
        <ele>2013.14</ele>
        <time>2018-02-08T14:21:09Z</time>
      </trkpt>
      <trkpt lat="45.63195" lon="6.66865">
        <ele>2013.62</ele>
        <time>2018-02-08T14:21:10Z</time>
      </trkpt>
      <trkpt lat="45.63186" lon="6.66873">
        <ele>2012.66</ele>
        <time>2018-02-08T14:21:12Z</time>
      </trkpt>
      <trkpt lat="45.63186" lon="6.66877">
        <ele>2012.18</ele>
        <time>2018-02-08T14:21:13Z</time>
      </trkpt>
      <trkpt lat="45.63188" lon="6.66882">
        <ele>2011.22</ele>
        <time>2018-02-08T14:21:14Z</time>
      </trkpt>
      <trkpt lat="45.63193" lon="6.66893">
        <ele>2010.73</ele>
        <time>2018-02-08T14:21:16Z</time>
      </trkpt>
      <trkpt lat="45.63209" lon="6.66915">
        <ele>2009.77</ele>
        <time>2018-02-08T14:21:25Z</time>
      </trkpt>
      <trkpt lat="45.63209" lon="6.66913">
        <ele>2008.81</ele>
        <time>2018-02-08T14:21:39Z</time>
      </trkpt>
      <trkpt lat="45.63206" lon="6.66914">
        <ele>2009.29</ele>
        <time>2018-02-08T14:22:00Z</time>
      </trkpt>
      <trkpt lat="45.63207" lon="6.66913">
        <ele>2008.33</ele>
        <time>2018-02-08T14:22:18Z</time>
      </trkpt>
      <trkpt lat="45.6321" lon="6.66912">
        <ele>2009.29</ele>
        <time>2018-02-08T14:22:34Z</time>
      </trkpt>
      <trkpt lat="45.6321" lon="6.66912">
        <ele>2009.77</ele>
        <time>2018-02-08T14:22:52Z</time>
      </trkpt>
    </trkseg>
  </trk>
</gpx>